[[{"header":{"parameterUnit":"m.s-1","parameterCategory":1,"la1":30.6,"la2":29.2853,"lo1":-89.7004,"lo2":-87.6739,"dy":0.0162,"dx":0.0183,"nx":112,"ny":82,"refTime":"2024-11-22T18:00:00:Z","depth":0,"parameterNumber":2,"parameterNumberName":"U-component_of_WINDS"},"data":[0.0,0.0,0.0,0.0,0.0,0.0,0.0,0.0,0.0,0.0,0.0,0.0,0.0,0.0,0.0,0.0,0.0,0.0,0.0,0.0,0.0,0.0,0.0,0.0,0.0,0.0,0.0,0.0,0.0,0.0,0.0,0.0,0.0,0.0,0.0,0.0,0.0,0.0,0.0,0.0,0.0,0.0,0.0,0.0,0.0,0.0,0.0,0.0,0.0,0.0,0.0,0.0,0.0,0.0,0.0,0.0,0.0,0.0,0.0,0.0,0.0,0.0,0.0,0.0,0.0,0.0,0.0,0.0,0.0,0.0,0.0,0.0,0.0,0.0,0.0,0.0,0.0,0.0,0.0,0.0,0.0,0.0,0.0,0.0,0.0,0.0,0.0,0.0,0.0,0.0,0.0,-1.9026,-2.1378,-2.2814,-2.2877,-2.1635,-1.9759,-1.7194,0.0,0.0,0.0,0.0,0.0,0.0,0.0,0.0,0.0,0.0,0.0,0.0,0.0,0.0,0.0,0.0,0.0,0.0,0.0,0.0,0.0,0.0,0.0,0.0,0.0,0.0,0.0,0.0,0.0,0.0,0.0,0.0,0.0,0.0,0.0,0.0,0.0,0.0,0.0,0.0,0.0,0.0,0.0,0.0,0.0,0.0,0.0,0.0,0.0,0.0,0.0,0.0,0.0,0.0,0.0,0.0,0.0,0.0,0.0,0.0,0.0,0.0,0.0,0.0,0.0,0.0,0.0,0.0,0.0,0.0,0.0,0.0,0.0,0.0,0.0,0.0,0.0,0.0,0.0,0.0,0.0,0.0,0.0,0.0,0.0,0.0,0.0,0.0,0.0,0.0,0.0,0.0,0.0,0.0,0.0,0.0,0.0,0.0,0.0,0.0,0.0,0.0,0.0,0.0,-1.6999,-2.1216,-2.2646,-2.3012,-2.2378,-2.1534,-1.9813,-1.6849,0.0,0.0,0.0,0.0,0.0,0.0,0.0,0.0,0.0,0.0,0.0,0.0,0.0,0.0,0.0,0.0,0.0,0.0,0.0,0.0,0.0,0.0,0.0,0.0,0.0,0.0,0.0,0.0,0.0,0.0,0.0,0.0,0.0,0.0,0.0,0.0,0.0,0.0,0.0,0.0,0.0,0.0,0.0,0.0,0.0,0.0,0.0,0.0,0.0,0.0,0.0,0.0,0.0,0.0,0.0,0.0,0.0,0.0,0.0,0.0,0.0,0.0,0.0,0.0,0.0,0.0,0.0,0.0,0.0,0.0,0.0,0.0,0.0,0.0,0.0,0.0,0.0,0.0,0.0,0.0,0.0,0.0,0.0,0.0,0.0,0.0,0.0,0.0,0.0,0.0,0.0,0.0,0.0,0.0,0.0,0.0,0.0,0.0,0.0,0.0,0.0,0.0,0.0,-1.6953,-1.8778,-2.2317,-2.3024,-2.3141,-2.2876,-2.1757,-1.9977,-1.7307,-1.5473,0.0,0.0,0.0,0.0,0.0,0.0,0.0,0.0,0.0,0.0,0.0,0.0,0.0,0.0,0.0,0.0,0.0,0.0,0.0,0.0,0.0,0.0,0.0,0.0,0.0,0.0,0.0,0.0,0.0,0.0,0.0,0.0,0.0,0.0,0.0,0.0,0.0,0.0,0.0,0.0,0.0,0.0,0.0,0.0,0.0,0.0,0.0,0.0,0.0,0.0,0.0,0.0,0.0,0.0,0.0,0.0,0.0,0.0,0.0,0.0,0.0,0.0,0.0,0.0,0.0,0.0,0.0,0.0,0.0,0.0,0.0,0.0,0.0,0.0,0.0,0.0,0.0,0.0,0.0,0.0,0.0,0.0,0.0,0.0,0.0,0.0,0.0,0.0,0.0,0.0,0.0,0.0,0.0,0.0,0.0,0.0,0.0,0.0,0.0,0.0,0.0,0.0,-1.9361,-2.0638,-2.2768,-2.299,-2.3077,-2.3224,-2.1642,-1.9678,-1.7363,-1.5036,0.0,0.0,0.0,0.0,0.0,0.0,0.0,0.0,0.0,0.0,0.0,0.0,0.0,0.0,0.0,0.0,0.0,0.0,0.0,0.0,0.0,0.0,0.0,0.0,0.0,0.0,0.0,0.0,0.0,0.0,0.0,0.0,0.0,0.0,0.0,0.0,0.0,0.0,0.0,0.0,0.0,0.0,0.0,0.0,0.0,0.0,0.0,0.0,0.0,0.0,0.0,0.0,0.0,0.0,0.0,0.0,0.0,0.0,0.0,0.0,0.0,0.0,0.0,0.0,0.0,0.0,0.0,0.0,0.0,0.0,0.0,0.0,0.0,0.0,0.0,0.0,0.0,0.0,0.0,0.0,0.0,0.0,0.0,0.0,0.0,0.0,0.0,0.0,0.0,0.0,0.0,0.0,0.0,0.0,0.0,0.0,0.0,0.0,0.0,0.0,0.0,0.0,-1.9602,-2.1687,-2.2639,-2.2708,-2.2721,-2.2747,-2.0707,-1.8468,-1.6264,-1.3983,0.0,0.0,0.0,0.0,0.0,0.0,0.0,0.0,0.0,0.0,0.0,0.0,0.0,0.0,0.0,0.0,0.0,0.0,0.0,0.0,0.0,0.0,0.0,0.0,0.0,0.0,0.0,0.0,0.0,0.0,0.0,0.0,0.0,0.0,0.0,0.0,0.0,0.0,0.0,0.0,0.0,0.0,0.0,0.0,0.0,0.0,0.0,0.0,0.0,0.0,0.0,0.0,0.0,0.0,0.0,0.0,0.0,0.0,0.0,0.0,0.0,0.0,0.0,0.0,0.0,0.0,0.0,0.0,0.0,0.0,0.0,0.0,0.0,0.0,0.0,0.0,0.0,0.0,0.0,0.0,0.0,0.0,0.0,0.0,0.0,0.0,0.0,0.0,0.0,0.0,0.0,0.0,0.0,0.0,0.0,0.0,0.0,0.0,0.0,0.0,0.0,0.0,-1.943,-2.1262,0.0,-2.2716,-2.2716,-2.2716,-2.1027,-1.8832,-1.6119,0.0,0.0,0.0,0.0,0.0,0.0,0.0,0.0,0.0,0.0,0.0,0.0,0.0,0.0,0.0,0.0,0.0,0.0,0.0,0.0,0.0,0.0,0.0,0.0,0.0,0.0,0.0,0.0,0.0,0.0,0.0,0.0,0.0,0.0,0.0,0.0,0.0,0.0,0.0,0.0,0.0,0.0,0.0,0.0,0.0,0.0,0.0,0.0,0.0,0.0,0.0,0.0,0.0,0.0,0.0,0.0,0.0,0.0,0.0,0.0,0.0,0.0,0.0,0.0,0.0,0.0,0.0,0.0,0.0,0.0,0.0,0.0,0.0,0.0,0.0,0.0,0.0,0.0,0.0,0.0,0.0,0.0,0.0,0.0,0.0,0.0,0.0,0.0,0.0,0.0,0.0,0.0,0.0,0.0,0.0,0.0,0.0,0.0,0.0,0.0,0.0,0.0,-1.7543,-1.9677,-2.1392,0.0,-2.2676,-2.2689,-2.2689,-2.1049,-1.8844,-1.6088,0.0,0.0,0.0,0.0,0.0,0.0,0.0,0.0,0.0,0.0,0.0,0.0,0.0,0.0,0.0,0.0,0.0,0.0,0.0,0.0,0.0,0.0,0.0,0.0,0.0,0.0,0.0,0.0,0.0,0.0,0.0,0.0,0.0,0.0,0.0,0.0,0.0,0.0,0.0,0.0,0.0,0.0,0.0,0.0,0.0,0.0,0.0,0.0,0.0,0.0,0.0,0.0,0.0,0.0,0.0,0.0,0.0,0.0,0.0,0.0,0.0,0.0,0.0,0.0,0.0,0.0,0.0,0.0,0.0,0.0,0.0,0.0,0.0,0.0,0.0,0.0,0.0,0.0,0.0,0.0,0.0,0.0,0.0,0.0,0.0,0.0,0.0,0.0,0.0,0.0,0.0,0.0,0.0,0.0,0.0,0.0,0.0,0.0,0.0,0.0,0.0,0.0,-1.74,-2.0399,-2.2419,-2.2501,-2.2569,-2.2609,-2.2609,-2.0565,-1.8327,0.0,0.0,0.0,0.0,0.0,0.0,0.0,0.0,0.0,0.0,0.0,0.0,0.0,0.0,0.0,0.0,0.0,0.0,0.0,0.0,0.0,0.0,0.0,0.0,0.0,0.0,0.0,0.0,0.0,0.0,0.0,0.0,0.0,0.0,0.0,0.0,0.0,0.0,0.0,0.0,0.0,0.0,0.0,0.0,0.0,0.0,0.0,0.0,0.0,0.0,0.0,0.0,0.0,0.0,0.0,0.0,0.0,0.0,0.0,0.0,0.0,0.0,0.0,0.0,0.0,0.0,0.0,0.0,0.0,0.0,0.0,0.0,0.0,0.0,0.0,0.0,0.0,0.0,0.0,0.0,0.0,0.0,0.0,0.0,0.0,0.0,0.0,0.0,0.0,0.0,0.0,0.0,0.0,0.0,0.0,0.0,0.0,0.0,0.0,0.0,0.0,0.0,0.0,-1.74,-2.0399,-2.2419,-2.2501,-2.2528,-2.2555,-2.2609,-2.1009,-1.8823,-1.6088,0.0,0.0,0.0,0.0,0.0,0.0,0.0,0.0,0.0,0.0,0.0,0.0,0.0,0.0,0.0,0.0,0.0,0.0,0.0,0.0,0.0,0.0,0.0,0.0,0.0,0.0,0.0,0.0,0.0,0.0,0.0,0.0,0.0,0.0,0.0,0.0,0.0,0.0,0.0,0.0,0.0,0.0,0.0,0.0,0.0,0.0,0.0,0.0,0.0,0.0,0.0,0.0,0.0,0.0,0.0,0.0,0.0,0.0,0.0,0.0,0.0,0.0,0.0,0.0,0.0,0.0,0.0,0.0,0.0,0.0,0.0,0.0,0.0,0.0,0.0,0.0,0.0,0.0,0.0,0.0,0.0,0.0,0.0,0.0,0.0,0.0,0.0,0.0,0.0,0.0,0.0,0.0,0.0,0.0,0.0,0.0,0.0,0.0,0.0,0.0,0.0,0.0,-1.7063,-1.9997,-2.1988,-2.2032,-2.2061,-2.2089,-2.2132,-2.1049,-1.9157,-1.6285,0.0,0.0,0.0,0.0,0.0,0.0,0.0,0.0,0.0,0.0,0.0,0.0,0.0,0.0,0.0,0.0,0.0,0.0,0.0,0.0,0.0,0.0,0.0,0.0,0.0,0.0,0.0,0.0,0.0,0.0,0.0,0.0,0.0,0.0,0.0,0.0,0.0,0.0,0.0,0.0,0.0,0.0,0.0,0.0,0.0,0.0,0.0,0.0,0.0,0.0,0.0,0.0,0.0,0.0,0.0,0.0,0.0,0.0,0.0,0.0,0.0,0.0,0.0,0.0,0.0,0.0,0.0,0.0,0.0,0.0,0.0,0.0,0.0,0.0,0.0,0.0,0.0,0.0,0.0,0.0,0.0,0.0,0.0,0.0,0.0,0.0,0.0,0.0,0.0,0.0,0.0,0.0,0.0,0.0,0.0,0.0,0.0,0.0,0.0,0.0,0.0,0.0,-1.6613,-1.9412,-2.1308,-2.1308,-2.1339,-2.137,-2.1385,-2.0839,-1.9352,-1.6664,0.0,0.0,0.0,0.0,0.0,0.0,0.0,0.0,0.0,0.0,0.0,0.0,0.0,0.0,0.0,0.0,0.0,0.0,0.0,0.0,0.0,0.0,0.0,0.0,0.0,0.0,0.0,0.0,0.0,0.0,0.0,0.0,0.0,0.0,0.0,0.0,0.0,0.0,0.0,0.0,0.0,0.0,0.0,0.0,0.0,0.0,0.0,0.0,0.0,0.0,0.0,0.0,0.0,0.0,0.0,0.0,0.0,0.0,0.0,0.0,-1.4737,0.0,0.0,0.0,0.0,0.0,0.0,0.0,0.0,0.0,0.0,0.0,0.0,0.0,0.0,0.0,0.0,0.0,0.0,0.0,0.0,0.0,0.0,0.0,0.0,0.0,0.0,0.0,0.0,0.0,0.0,0.0,0.0,0.0,0.0,0.0,0.0,0.0,0.0,0.0,0.0,0.0,-1.7255,-1.9719,-2.1308,-2.1308,-2.1308,-2.1339,-2.1385,-2.0794,-1.9528,-1.7466,-1.5855,0.0,0.0,0.0,0.0,0.0,0.0,0.0,0.0,0.0,0.0,0.0,0.0,0.0,0.0,0.0,0.0,0.0,0.0,0.0,0.0,0.0,0.0,0.0,0.0,0.0,0.0,0.0,0.0,0.0,0.0,0.0,0.0,0.0,0.0,0.0,0.0,0.0,0.0,0.0,0.0,0.0,0.0,0.0,0.0,0.0,0.0,0.0,0.0,0.0,0.0,0.0,0.0,0.0,0.0,0.0,0.0,0.0,0.0,0.0,0.0,-1.616,0.0,0.0,0.0,0.0,0.0,0.0,0.0,0.0,0.0,0.0,0.0,0.0,0.0,0.0,0.0,0.0,0.0,0.0,0.0,0.0,0.0,0.0,0.0,0.0,0.0,0.0,0.0,0.0,0.0,0.0,0.0,0.0,0.0,0.0,0.0,0.0,0.0,0.0,0.0,0.0,-1.7232,-1.9421,-2.0812,-2.0812,-2.0812,-2.0828,-2.0893,-2.0607,-1.9845,-1.8462,-1.7272,0.0,0.0,0.0,0.0,0.0,0.0,0.0,0.0,0.0,0.0,0.0,0.0,0.0,0.0,0.0,0.0,0.0,0.0,0.0,0.0,0.0,0.0,0.0,0.0,0.0,0.0,0.0,0.0,0.0,0.0,0.0,0.0,0.0,0.0,0.0,0.0,0.0,0.0,0.0,0.0,0.0,0.0,0.0,0.0,0.0,0.0,0.0,0.0,0.0,0.0,0.0,0.0,0.0,-2.1908,-2.2089,-2.3371,-2.2521,-2.2815,-2.3748,-2.0039,-1.9181,-2.0251,-1.8279,0.0,0.0,0.0,0.0,0.0,0.0,0.0,0.0,0.0,0.0,0.0,0.0,0.0,0.0,0.0,0.0,0.0,0.0,0.0,0.0,0.0,0.0,0.0,0.0,-1.9232,-1.8964,0.0,0.0,0.0,0.0,0.0,0.0,0.0,0.0,0.0,0.0,0.0,0.0,-1.7377,-1.9162,-2.032,-2.032,-2.032,-2.032,-2.032,-2.0409,-2.0161,-1.9366,-1.8694,-1.777,0.0,0.0,0.0,0.0,0.0,0.0,0.0,0.0,0.0,0.0,0.0,0.0,0.0,0.0,0.0,0.0,0.0,0.0,0.0,0.0,0.0,0.0,0.0,0.0,0.0,0.0,0.0,0.0,0.0,0.0,0.0,0.0,-1.5818,-1.7494,0.0,0.0,0.0,0.0,0.0,0.0,0.0,0.0,0.0,0.0,0.0,0.0,0.0,-2.303,-2.3558,-2.4642,-2.5426,-2.5862,-2.5857,-2.6091,-2.6499,-2.6161,-2.6082,-2.6218,-2.5642,0.0,-2.1907,-2.0987,0.0,0.0,0.0,0.0,0.0,0.0,0.0,0.0,0.0,0.0,0.0,0.0,0.0,0.0,0.0,0.0,0.0,0.0,0.0,0.0,0.0,0.0,-2.2104,-2.2476,-2.2637,-2.2443,0.0,-1.8765,-1.6368,-1.5758,-1.4645,0.0,0.0,0.0,0.0,0.0,0.0,0.0,-1.8778,-1.9765,-2.032,-2.032,-2.032,-2.032,-2.032,-2.0409,-2.03,-1.9825,-1.9243,-1.8757,-1.8424,-1.6301,0.0,0.0,0.0,0.0,0.0,0.0,0.0,0.0,0.0,0.0,0.0,0.0,0.0,0.0,0.0,0.0,0.0,0.0,0.0,0.0,0.0,0.0,0.0,0.0,0.0,0.0,0.0,0.0,0.0,-1.5421,-1.7527,-1.8698,-1.9176,-1.9117,0.0,0.0,0.0,0.0,0.0,0.0,0.0,0.0,0.0,-2.2915,-2.4401,-2.5614,-2.6432,-2.699,-2.7526,-2.8084,-2.8032,-2.8064,-2.8152,-2.8047,-2.7994,-2.7994,-2.7994,-2.6996,-2.5254,-2.3695,-2.2409,-2.1312,0.0,0.0,0.0,0.0,-2.0318,-2.0386,-2.0919,-2.0818,0.0,-1.9498,0.0,0.0,0.0,0.0,0.0,0.0,0.0,0.0,0.0,0.0,0.0,-2.3833,-2.3786,-2.3554,-2.3227,-2.1703,-1.9857,0.0,-1.7362,-1.6492,-1.4233,0.0,0.0,0.0,0.0,-1.8423,-1.9703,-2.0782,-2.1411,-2.1411,-2.1411,-2.1411,-2.1411,-2.1233,-2.1116,-2.107,-2.0589,-2.025,-2.0098,-1.8749,-1.7375,0.0,0.0,0.0,0.0,0.0,0.0,0.0,0.0,0.0,0.0,0.0,0.0,0.0,0.0,0.0,0.0,0.0,0.0,0.0,0.0,0.0,0.0,0.0,0.0,0.0,0.0,0.0,0.0,-1.7564,-1.9418,-2.0417,-2.107,-2.1135,0.0,0.0,0.0,0.0,0.0,0.0,-2.2117,-2.3981,-2.5296,-2.5878,-2.7161,-2.8353,-2.9368,-2.9487,-2.9828,-3.0411,-3.024,-3.0127,-3.0127,-3.0127,-3.0127,-3.0127,-2.9924,-2.9397,-2.85,-2.6251,-2.4914,-2.412,-2.3052,-2.2936,-2.3444,-2.3444,-2.3444,-2.3579,-2.4677,-2.4711,-2.4052,-2.2951,0.0,-2.0826,-1.9193,0.0,0.0,0.0,0.0,-2.25,-2.3844,-2.4273,-2.4538,-2.5196,-2.501,-2.4714,-2.4714,-2.4392,-2.3197,0.0,-2.0004,-1.9405,-1.6507,0.0,0.0,0.0,0.0,-2.0042,-2.0751,-2.1689,-2.2305,-2.2305,-2.2305,-2.2305,-2.2305,-2.2003,-2.1909,-2.2145,-2.1761,-2.151,-2.1519,-2.0739,-1.9503,-1.7904,0.0,0.0,0.0,0.0,0.0,0.0,0.0,0.0,0.0,0.0,0.0,0.0,0.0,0.0,0.0,0.0,0.0,0.0,0.0,0.0,0.0,0.0,0.0,0.0,0.0,0.0,0.0,0.0,0.0,-2.3749,-2.3969,0.0,0.0,0.0,0.0,-2.3411,-2.4937,-2.5886,-2.6008,-2.7739,-2.8848,-2.9042,-3.066,-3.1776,-3.229,-3.2863,-3.3173,-3.3207,-3.3186,-3.3186,-3.3186,-3.3186,-3.3186,-3.3152,-3.2462,-3.1718,-3.0852,-2.8568,-2.7199,-2.6522,-2.6454,-2.6471,-2.6488,-2.6488,-2.6488,-2.6488,-2.6556,-2.6573,-2.6522,-2.6471,-2.5455,-2.4237,-2.4135,-2.3809,0.0,0.0,-2.5172,-2.5826,-2.6243,-2.6667,-2.7108,-2.7539,-2.7279,-2.6947,-2.6947,-2.652,-2.5431,0.0,-2.2118,-2.1541,-2.1034,0.0,-2.0302,-2.0888,-2.1103,-2.1442,-2.212,-2.2274,-2.2305,-2.2305,-2.2305,-2.2305,-2.2305,-2.235,-2.2431,-2.2561,-2.231,-2.2329,-2.2696,-2.1639,-2.0786,-2.0257,-1.8017,0.0,0.0,0.0,0.0,0.0,0.0,0.0,0.0,0.0,0.0,0.0,0.0,0.0,0.0,0.0,0.0,0.0,0.0,0.0,0.0,0.0,0.0,0.0,0.0,0.0,0.0,0.0,0.0,-2.5511,-2.6209,0.0,-2.6135,-2.6366,-2.6549,-2.6509,-2.7406,-2.8073,-2.8361,-2.9932,-3.1046,-3.1416,-3.2408,-3.3011,-3.3079,-3.3309,-3.3423,-3.3423,-3.3423,-3.3423,-3.3423,-3.3423,-3.3423,-3.3389,-3.3119,-3.2848,-3.251,-3.1224,-2.9702,-2.8197,-2.8197,-2.8197,-2.8197,-2.8197,-2.8197,-2.8197,-2.8197,-2.8197,-2.8096,-2.7571,-2.6725,-2.5929,-2.5929,-2.6152,-2.6367,-2.6336,-2.6891,-2.7533,-2.7629,-2.7558,-2.7584,-2.8037,-2.7566,-2.702,-2.702,-2.6912,-2.6586,-2.5724,-2.4746,-2.3595,-2.22,-2.212,-2.2028,-2.1381,-2.2028,-2.2655,-2.2902,-2.3332,-2.3579,-2.3579,-2.3579,-2.3579,-2.3579,-2.3336,-2.2997,-2.263,-2.2408,-2.2216,-2.2165,-2.1922,-2.1602,-2.1199,-1.9878,-1.7811,0.0,0.0,0.0,0.0,0.0,0.0,0.0,0.0,0.0,0.0,0.0,0.0,0.0,0.0,0.0,0.0,0.0,0.0,0.0,0.0,0.0,0.0,0.0,0.0,0.0,0.0,-2.5217,-2.6796,-2.7855,-2.8456,-2.8456,-2.8851,-2.9203,-2.9479,-3.0121,-3.0622,-3.0971,-3.1991,-3.2831,-3.3345,-3.3796,-3.4066,-3.421,-3.421,-3.4189,-3.4146,-3.4146,-3.4146,-3.4146,-3.4146,-3.4146,-3.4112,-3.3897,-3.3761,-3.3728,-3.2983,-3.1819,-3.0465,-2.9958,-2.9754,-2.9754,-2.9754,-2.9754,-2.9754,-2.9754,-2.9585,-2.9262,-2.87,-2.7954,-2.7293,-2.7492,-2.7692,-2.7896,-2.7991,-2.8378,-2.8832,-2.8993,-2.8812,-2.867,-2.8953,-2.8359,-2.7737,-2.7911,-2.7715,-2.7583,-2.7737,-2.6763,-2.5466,-2.4169,-2.4163,-2.404,-2.3167,-2.3784,-2.4348,-2.4317,-2.4718,-2.4902,-2.4635,-2.4656,-2.4564,-2.4317,-2.3931,-2.3512,-2.3142,-2.2762,-2.2501,-2.2297,-2.2347,-2.2221,-2.1992,-2.0682,-1.8913,-1.6674,0.0,0.0,0.0,0.0,0.0,0.0,0.0,0.0,0.0,0.0,0.0,0.0,0.0,0.0,0.0,0.0,0.0,0.0,0.0,0.0,0.0,0.0,0.0,-2.3153,-2.5878,-2.786,-2.7934,-2.9028,-2.9804,-2.9827,-3.0177,-3.091,-3.2179,-3.2984,-3.3552,-3.3902,-3.3917,-3.4254,-3.4903,-3.4937,-3.5194,-3.5778,-3.5812,-3.5745,-3.56,-3.5633,-3.5633,-3.56,-3.56,-3.56,-3.5566,-3.4844,-3.4539,-3.4472,-3.3728,-3.3423,-3.3288,-3.1833,-3.1258,-3.1258,-3.1258,-3.1258,-3.1258,-3.1258,-3.0784,-3.0156,-3.0027,-2.9287,-2.851,-2.9123,-2.8769,-2.8373,-2.9532,-2.9858,-2.9968,-3.0438,-3.0543,-3.0522,-3.0522,-2.9858,-2.9298,-2.9748,-2.9146,-2.8635,-2.9091,-2.8098,-2.7169,-2.7116,-2.6736,-2.6411,-2.6402,-2.6402,0.0,-2.6296,-2.6349,-2.6134,-2.5404,-2.5312,-2.5066,-2.441,-2.4069,-2.3967,-2.4079,-2.3441,-2.313,-2.3283,-2.2884,-2.2716,-2.2716,-2.0475,-1.8959,-1.8235,0.0,0.0,0.0,0.0,0.0,0.0,0.0,0.0,0.0,0.0,0.0,0.0,0.0,0.0,0.0,0.0,0.0,0.0,0.0,0.0,0.0,0.0,-2.6465,-2.6465,-2.775,-2.9246,-3.0724,-3.1211,-3.1794,-3.2742,-3.2658,-3.2932,-3.3861,-3.3824,-3.4056,-3.4638,-3.4644,-3.4916,-3.5538,-3.5572,-3.5574,-3.5644,-3.6243,-3.6265,-3.5768,-3.6243,-3.6209,-3.5734,-3.5644,-3.56,-3.56,-3.5363,-3.5295,-3.525,-3.4506,-3.4201,-3.41,-3.3152,-3.2814,-3.2814,-3.2814,-3.2814,-3.2814,-3.2814,-3.2307,-3.1765,-3.2266,-3.1587,-3.0745,-3.145,-3.1528,-3.1338,-3.1352,-3.1316,-3.1362,-3.1476,-3.1246,-3.1021,-3.0942,-3.106,-3.1139,-3.0879,-3.0879,-3.0838,-3.0454,-2.9795,-2.8856,-2.7518,-2.7211,-2.6965,-2.6472,-2.6402,0.0,-2.638,-2.638,-2.6287,-2.605,-2.6019,-2.5742,-2.5066,-2.4657,-2.4092,-2.3347,-2.3047,-2.2778,-2.2502,-2.2637,-2.2716,-2.2716,-2.0992,-1.974,0.0,0.0,0.0,0.0,0.0,0.0,0.0,0.0,0.0,0.0,0.0,0.0,0.0,0.0,0.0,0.0,0.0,0.0,0.0,0.0,0.0,0.0,-2.688,-2.8622,-2.9466,-2.9989,-3.0873,-3.2401,-3.2619,-3.3084,-3.4163,-3.4177,-3.4337,-3.4824,-3.4881,-3.5077,-3.5483,-3.5496,-3.5617,-3.5888,-3.5954,-3.6046,-3.613,-3.6718,-3.6911,-3.6695,-3.7136,-3.6932,-3.622,-3.6118,-3.5926,0.0,-3.56,-3.56,-3.5566,-3.5148,-3.4979,0.0,0.0,0.0,0.0,0.0,-3.3423,-3.3423,-3.3423,-3.3119,-3.2814,-3.3225,-3.2746,-3.2078,-3.2464,-3.2484,-3.2315,-3.2269,-3.2085,-3.1992,-3.2406,-3.1851,-3.1209,-3.1373,-3.1405,-3.1307,-3.1184,-3.1373,-3.1533,-3.1348,-3.1098,0.0,-2.9209,-2.8332,-2.7703,-2.7303,-2.7242,-2.7242,-2.7242,-2.7242,-2.7119,-2.6788,-2.6757,-2.648,-2.5826,-2.534,0.0,0.0,0.0,-2.2975,-2.244,-2.2602,0.0,0.0,0.0,0.0,0.0,0.0,0.0,0.0,-1.9268,-1.8884,0.0,0.0,0.0,0.0,0.0,0.0,0.0,0.0,0.0,0.0,0.0,0.0,0.0,0.0,0.0,0.0,-2.8778,-3.0002,-3.1905,-3.2213,-3.2501,-3.3244,-3.3415,-3.3792,-3.4576,-3.5,-3.5214,-3.5318,-3.5939,-3.6276,-3.6182,0.0,0.0,0.0,0.0,-3.6697,-3.7047,-3.7353,-3.7684,-3.7936,-3.8133,-3.7759,-3.692,-3.6829,-3.64,-3.5735,-3.5633,-3.56,-3.56,-3.56,-3.56,-3.5464,-3.4146,-3.366,-3.366,-3.366,-3.366,-3.366,-3.366,0.0,0.0,-3.3532,-3.3227,-3.2785,-3.2704,-3.2485,-3.2322,-3.2737,-3.2498,-3.2336,-3.3304,-3.2508,-3.1554,-3.2006,-3.1505,-3.1015,-3.1431,-3.1554,-3.1669,-3.1957,-3.2028,-3.1838,-3.1216,-2.9793,-2.8669,-2.8535,-2.8504,-2.8504,-2.8411,-2.8411,-2.8165,-2.758,0.0,0.0,-2.6624,-2.6158,-2.5901,-2.5895,-2.4747,-2.3715,-2.2992,-2.2957,-2.3302,-2.406,-2.406,-2.4439,-2.5247,-2.5247,-2.5626,-2.6247,-2.1352,-2.0569,0.0,0.0,0.0,0.0,0.0,0.0,0.0,0.0,0.0,0.0,0.0,0.0,0.0,0.0,0.0,-2.8606,-3.0305,-3.1756,-3.2404,-3.288,-3.3211,-3.3371,-3.3667,-3.42,-3.5015,-3.5152,-3.5456,-3.6042,-3.6215,-3.6233,-3.6041,-3.6797,-3.7153,-3.682,-3.7591,-3.8014,-3.8036,-3.8547,-3.8591,-3.8138,0.0,0.0,-3.7725,-3.7113,-3.6728,-3.6535,-3.5893,-3.56,-3.56,-3.56,-3.56,-3.5566,-3.5295,-3.516,-3.516,-3.516,-3.516,-3.516,-3.516,-3.481,-3.437,-3.4969,-3.441,-3.3532,-3.3673,-3.3664,0.0,-3.3713,-3.3664,-3.3738,-3.4372,-3.3981,-3.3466,-3.3565,-3.3762,-3.3957,-3.4053,-3.4077,-3.3842,-3.2942,-3.2456,-3.1823,-3.0763,-3.0598,-3.0322,-2.9354,-2.9187,-2.9027,-2.8473,-2.8411,-2.835,-2.8227,-2.8227,-2.8085,-2.7794,-2.7285,-2.7055,-2.716,-2.6211,-2.5301,-2.4591,-2.4557,-2.4887,-2.5646,-2.5646,-2.6059,-2.6868,-2.6868,-2.7213,-2.7902,-2.5626,-2.5241,0.0,0.0,0.0,0.0,0.0,0.0,0.0,0.0,0.0,0.0,0.0,-2.4552,-2.5363,0.0,-2.9425,-3.0613,-3.166,-3.257,-3.3197,-3.3685,-3.4034,-3.4235,-3.4445,-3.4885,-3.5669,-3.5732,-3.5904,-3.6284,-3.6284,-3.6276,-3.617,-3.6999,-3.7425,-3.7249,-3.8047,-3.8608,-3.8869,-3.9187,-3.9286,-3.9166,-3.9466,-3.9238,-3.8492,-3.8106,-3.7506,-3.6795,-3.6366,-3.5994,-3.56,-3.56,-3.56,-3.56,-3.56,-3.56,-3.56,-3.56,-3.56,-3.56,-3.56,-3.5363,-3.5115,-3.5464,-3.5172,-3.4653,-3.4764,-3.4793,-3.4745,-3.448,-3.421,-3.4136,-3.4649,-3.4178,-3.3726,-3.4284,-3.4407,-3.4407,-3.4407,-3.4601,-3.4622,-3.4021,-3.3907,-3.3535,-3.2419,-3.2624,-3.2296,-3.0196,-2.9894,-2.9771,-2.9433,-2.9402,-2.9496,-2.9762,-2.945,-2.9313,-2.9528,-2.8925,-2.8381,-2.798,-2.7515,-2.6937,-2.6178,-2.6143,-2.6488,-2.7247,-2.7247,-2.7627,-2.8385,-2.8385,-2.8972,-3.0075,-2.9317,-2.8781,0.0,0.0,0.0,0.0,0.0,0.0,0.0,0.0,-2.2955,-2.307,-2.5374,-2.7601,-2.8242,-2.9621,-3.1127,-3.2583,-3.2857,-3.3204,-3.4191,-3.4533,-3.4806,-3.5172,-3.5257,-3.5572,-3.6215,-3.6284,-3.6284,-3.6284,-3.6284,-3.6353,-3.6504,-3.7284,-3.7767,-3.7883,-3.8629,-3.9261,-3.9645,-3.9682,-3.9846,-4.0138,-4.0213,-3.9908,-3.9208,-3.9073,-3.8261,-3.6998,-3.6694,-3.6197,-3.56,-3.56,-3.56,-3.56,-3.56,-3.56,-3.56,-3.56,-3.56,-3.56,-3.56,-3.56,-3.56,-3.56,-3.56,-3.5577,-3.5487,-3.543,-3.5339,-3.4911,-3.448,-3.4284,-3.4816,-3.4227,-3.3751,-3.4721,-3.4553,-3.4185,-3.4284,-3.4649,-3.4911,-3.4816,-3.5155,-3.5155,-3.4185,-3.4358,-3.3705,-3.1016,-3.0779,-3.0819,-3.0567,-3.067,-3.0867,-3.1307,-3.0823,-3.0733,-3.134,-3.079,-3.0002,-2.9127,-2.8937,-2.8523,-2.7764,-2.773,-2.8144,-2.9041,-2.9075,-2.9489,-3.0386,-3.0386,-3.1041,-3.2248,-3.2248,-3.1593,-2.1701,-2.0625,-2.0394,-2.197,-2.2117,-2.2456,0.0,0.0,-2.644,-2.718,-2.8676,-2.9925,-3.0023,-3.1299,-3.2619,-3.3513,-3.3777,-3.4223,-3.5347,-3.5295,-3.5238,-3.5598,-3.563,-3.5819,-3.6256,-3.6284,-3.6284,-3.6284,-3.6284,-3.6551,-3.7153,-3.7998,-3.8744,-3.9342,-4.0192,-4.0617,-4.0552,-4.0422,-4.0334,-4.0263,-4.0163,-4.0045,-3.9943,-3.93,-3.8531,-3.7719,-3.6332,-3.5667,-3.56,-3.56,-3.56,-3.56,-3.56,-3.56,-3.56,-3.56,-3.56,-3.56,-3.56,-3.56,-3.56,-3.56,-3.56,-3.5532,-3.5038,-3.4864,-3.4864,-3.4816,-3.4745,-3.4816,-3.5362,-3.5085,-3.4769,-3.5362,-3.5108,-3.484,-3.5316,-3.5487,-3.5362,-3.4887,-3.484,-3.4697,-3.4111,-3.4061,-3.3444,-3.1553,-3.2102,-3.2328,-3.1255,-3.1526,-3.1828,-3.1898,-3.1834,-3.2047,-3.2705,-3.2598,-3.2166,-3.1455,-3.08,-3.0075,-2.9282,-2.9248,-2.9937,-3.1386,-3.142,-3.211,-3.3613,-3.3613,-3.3662,-3.3835,-3.3835,-3.3751,-2.3932,-2.378,0.0,0.0,-2.5315,-2.6155,-2.714,-2.8174,-2.9032,-2.9322,-3.0609,-3.1679,-3.1642,-3.2926,-3.4124,0.0,-3.4773,-3.5319,-3.6258,-3.5509,-3.5076,-3.5703,-3.5545,-3.5639,-3.6236,-3.6284,-3.6284,-3.6284,-3.6732,-3.7146,-3.7413,-3.8572,-3.9388,-3.9652,-4.0397,-4.0762,-4.0714,-4.0485,-4.0337,-4.0288,-4.0163,-4.0113,-4.0079,-3.9774,-3.9005,-3.7855,-3.6772,-3.6299,-3.6332,-3.6772,-3.6918,-3.6918,-3.6918,-3.6918,-3.6817,-3.5938,-3.56,-3.56,-3.56,-3.56,-3.56,-3.56,-3.56,-3.5577,-3.5316,-3.527,-3.5201,-3.4864,-3.4793,-3.4939,-3.5642,-3.5314,-3.5067,-3.6049,-3.5767,-3.5316,-3.5554,-3.56,-3.5532,-3.5293,-3.527,-3.5108,-3.4553,-3.4721,-3.4478,-3.3112,-3.3283,-3.3411,-3.2898,-3.3039,-3.3169,-3.312,-3.3484,-3.3688,-3.3556,-3.3548,-3.3451,-3.3145,-3.2854,-3.2543,-3.2179,-3.2179,-3.2455,-3.313,-3.3145,-3.3475,-3.4096,-3.4096,-3.4337,-3.4731,-3.4731,-3.4973,-2.562,0.0,0.0,-2.6918,-2.804,-2.9135,-2.9017,-3.0097,-3.112,-3.1062,-3.2097,-3.2978,-3.2926,-3.3867,-3.4821,-3.5261,-3.5457,-3.5945,-3.7071,-3.5812,-3.5028,-3.5706,-3.5288,-3.518,-3.5939,-3.618,-3.6284,-3.6284,-3.7064,-3.7581,-3.7789,-3.9008,-3.9778,-3.9962,-4.0476,-4.068,-4.0583,-4.0412,-4.0313,-4.0238,-4.0163,-4.0113,-4.0079,-3.991,-3.9208,-3.8159,-3.7415,-3.71,-3.7144,-3.7686,-3.7922,-3.7922,-3.7922,-3.7922,-3.7753,-3.6648,-3.6242,-3.6242,-3.6242,-3.6242,-3.6208,-3.5994,-3.5926,-3.5893,-3.5667,-3.56,-3.5566,-3.5389,-3.5361,-3.5495,-3.6052,-3.5928,-3.579,-3.6365,-3.6197,-3.587,-3.5633,-3.56,-3.56,-3.56,-3.5769,-3.5745,-3.5142,-3.5541,-3.5574,-3.4586,-3.4431,-3.4382,-3.4235,-3.4382,-3.4499,-3.4477,-3.4993,-3.5118,-3.4569,-3.443,-3.4387,-3.4387,-3.4234,-3.4096,-3.4096,-3.4096,-3.4199,-3.4407,-3.4387,-3.449,-3.4717,-3.4717,-3.4973,-3.549,-3.5732,-3.6111,0.0,0.0,-2.7487,-2.8335,-2.9542,-3.0533,-3.0522,-3.1672,-3.2724,-3.2724,-3.3274,-3.377,-3.377,-3.3807,-3.4357,-3.6009,-3.5632,-3.5824,-3.7798,-3.6388,-3.5327,-3.5757,-3.4801,-3.4421,0.0,-3.587,-3.6284,-3.6284,-3.7064,-3.7823,-3.8525,-3.9284,-3.9996,-4.0645,-4.0823,-4.0704,-4.0313,-4.0436,-4.0362,-4.0113,-4.0113,-4.0113,-4.0079,-3.9343,-3.9005,-3.8937,-3.8193,-3.7889,-3.7889,-3.7889,-3.7922,-3.7922,-3.7922,-3.7922,-3.7889,-3.7855,-3.7855,-3.7855,-3.7855,-3.7855,-3.7719,-3.6998,-3.6761,-3.6626,-3.5836,-3.56,-3.5769,-3.6535,-3.6738,-3.6738,-3.6772,-3.729,-3.7459,-3.5971,-3.6197,-3.6558,-3.5769,-3.56,-3.56,-3.56,-3.6231,-3.6502,-3.5712,-3.6231,-3.6502,-3.5678,-3.5554,-3.5362,-3.484,-3.5339,-3.58,-3.592,-3.6049,-3.6135,-3.6135,-3.5552,-3.5145,-3.5145,-3.449,-3.4096,-3.4096,-3.4096,-3.4441,-3.5145,-3.5145,-3.5525,-3.6215,-3.6215,-3.6249,-3.6284,-3.7064,-3.7443,0.0,0.0,-2.9511,-3.0097,-3.1429,-3.251,-3.2251,-3.2968,-3.3673,-3.3623,-3.3313,-3.3051,-3.2999,-3.344,-3.4174,-3.5261,-3.5929,-3.6722,-3.794,-3.6646,-3.5563,-3.5403,-3.506,0.0,0.0,0.0,0.0,-3.6249,-3.7064,-3.7823,-3.856,-3.9284,-4.0054,-4.0823,-4.0704,-4.0607,-4.0593,-4.0337,-4.0238,-4.0238,-4.0138,-4.0113,-4.0079,-3.9334,-3.9005,-3.8971,-3.8734,-3.8633,-3.8667,-3.914,-3.9343,-3.9343,-3.9343,-3.9343,-3.9343,-3.9343,-3.9343,-3.9208,-3.8261,-3.7922,-3.7855,-3.7618,-3.7202,-3.6761,-3.6468,-3.64,-3.6434,-3.6728,-3.7168,-3.7652,-3.8125,-3.8091,-3.7889,-3.7855,-3.7686,-3.7449,-3.7178,-3.7144,-3.6975,-3.6502,-3.6626,-3.6728,-3.6434,-3.6626,-3.6897,-3.711,-3.6242,-3.5577,-3.5487,-3.5734,-3.5975,-3.614,-3.6212,-3.6276,-3.6276,-3.6056,-3.5939,-3.5939,-3.5697,-3.5559,-3.5559,-3.5559,-3.5663,-3.5904,-3.5939,-3.6318,-3.7098,-3.7098,-3.7353,-3.7836,-3.8077,-3.8237,-2.8467,-2.9928,-3.1209,-3.1834,-3.2921,-3.3757,-3.3469,-3.3759,-3.3994,-3.3623,-3.2896,-3.2231,-3.2168,-3.2375,-3.2963,-3.4344,-3.5402,-3.6419,-3.7522,-3.6702,-3.5935,-3.5668,-3.5287,-3.5033,0.0,0.0,0.0,-3.6249,-3.7284,-3.8099,-3.856,-3.956,-4.033,-4.0823,-4.0655,-4.0583,-4.0607,-4.0313,-4.0188,-4.0213,-4.0138,-4.0113,-4.0079,-3.9605,-3.9402,-3.9402,-3.9402,-3.9402,-3.9436,-3.991,-4.0113,-4.0113,-4.0113,-4.0113,-4.0113,-4.0113,-4.0113,-3.9977,-3.9005,-3.87,-3.8633,-3.8396,-3.7787,-3.7178,-3.7178,-3.7032,-3.6897,-3.7438,-3.7922,-3.8396,-3.887,-3.8836,-3.8667,-3.8633,-3.8464,-3.8227,-3.7956,-3.7922,-3.7753,-3.728,-3.7405,-3.7506,-3.7235,-3.7178,-3.7347,-3.7821,-3.71,-3.6548,-3.6661,-3.6761,-3.6894,-3.7038,-3.7103,-3.7111,-3.7111,-3.7111,-3.7008,-3.6732,-3.6973,-3.7008,-3.6732,-3.6973,-3.7111,-3.7111,-3.7111,-3.7387,-3.7892,-3.7892,-3.8134,-3.8617,-3.887,-3.8974,-3.0059,-3.1416,-3.2578,-3.3431,-3.3923,-3.424,-3.4191,-3.413,-3.3809,-3.2921,-3.2023,-3.1335,0.0,0.0,-3.098,-3.3366,-3.4237,-3.5152,-3.6725,-3.6676,-3.6452,0.0,0.0,0.0,0.0,0.0,0.0,-3.6318,0.0,-3.856,-3.8629,-4.0032,-4.0789,-4.068,-4.0714,-4.0631,-4.0485,-4.0362,-4.0213,-4.0113,-4.0113,-4.0113,-4.0113,-4.0113,-4.0113,-4.0113,-4.0113,-4.0113,-4.0113,-4.0113,-4.0113,-4.0113,-4.0113,-4.0113,-4.0113,-4.0113,-4.0113,-4.0113,-4.0113,-4.0113,-3.9977,-3.9276,-3.8565,-3.7956,-3.7956,-3.7449,-3.7202,-3.8599,-3.9005,-3.9039,-3.9039,-3.9571,-3.9774,-3.8362,-3.8531,-3.887,-3.8159,-3.8024,-3.8024,-3.7956,-3.8531,-3.8768,-3.8091,-3.799,-3.8024,-3.8024,-3.8109,-3.8216,-3.8207,-3.8311,-3.8447,-3.8594,-3.8594,-3.8594,-3.8594,-3.8594,-3.8284,-3.7616,-3.8215,-3.8306,-3.7581,-3.8237,-3.8594,-3.8594,-3.8594,-3.8594,-3.8663,-3.8663,-3.8663,-3.8732,-3.9422,-3.9767,-3.144,-3.2635,-3.3638,-3.4212,-3.4433,-3.445,-3.4264,-3.3721,-3.3017,-3.2095,-3.0766,-2.9576,0.0,0.0,0.0,-3.2619,-3.4582,0.0,-3.7627,-3.7708,0.0,-3.6435,0.0,-3.6197,-3.5773,-3.5888,0.0,0.0,-3.7581,-3.8272,-3.9353,-3.9767,-4.0238,-4.068,-4.0714,-4.0583,-4.0337,-4.0213,-4.0138,-4.0113,-4.0113,-4.0113,-4.0113,-4.0113,-4.0113,-4.0113,-4.0113,-4.0113,-4.0113,-4.0113,-4.0113,-4.0113,-4.0113,-4.0113,-4.0113,-4.0113,-4.0113,-4.0113,-4.0113,-4.0113,-4.0079,-3.9876,-3.9334,-3.8734,-3.8734,-3.8565,-3.8522,-3.887,-3.9377,-3.9842,-3.9842,-3.9977,-4.0011,-3.9639,-3.9673,-3.9774,-3.9605,-3.9537,-3.9377,-3.8836,-3.887,-3.8937,-3.8734,-3.9174,-3.9537,-3.9537,-3.9734,-3.9471,-3.8367,-3.8311,-3.8447,-3.8594,-3.8594,-3.8594,-3.8594,-3.8594,-3.8525,-3.8341,-3.8513,-3.8513,-3.8341,-3.8491,-3.8594,-3.8594,-3.8594,-3.887,-3.9422,-3.9422,-3.9733,-4.0342,-4.0515,-4.0584,-3.2711,-3.3577,-3.4283,-3.4534,-3.4506,-3.4206,-3.3322,-3.2816,-3.2001,-3.0368,-2.9004,0.0,0.0,0.0,0.0,0.0,0.0,0.0,-3.6902,-3.7798,-3.799,0.0,-3.7165,0.0,-3.6794,-3.7141,-3.7658,0.0,-3.8168,-3.8491,-3.9629,-4.0008,-4.0399,-4.0776,-4.0738,-4.0593,-4.0288,-4.0213,-4.0163,-4.0113,-4.0113,-4.0113,-4.0113,-4.0113,-4.0113,-4.0113,0.0,-4.0113,-4.0113,-4.0113,-4.0113,-4.0113,-4.0113,-4.0113,-4.0113,-4.0113,-4.0113,-4.0113,-4.0113,-4.0113,-4.0113,-4.0113,-3.9605,-3.9039,-3.9377,-3.9242,-3.9073,-3.9402,-3.9774,-4.0113,-4.0113,-4.0113,-4.0113,-4.0113,-4.0113,-4.0113,-4.0113,-4.0113,-3.9977,-3.9571,-3.9503,-3.9503,-3.9503,-3.9842,-4.0138,-4.0188,-4.0362,-4.0202,-3.9395,-3.9433,-3.9549,-3.9595,-3.9618,-3.9618,-3.9618,-3.9618,-3.9479,-3.9112,-3.9388,-3.9422,-3.9077,-3.9445,-3.9618,-3.9618,-3.9618,-3.9802,-4.0239,-4.0239,-4.048,-4.0894,-4.0894,-4.1012,-3.3759,-3.4302,-3.4583,-3.455,-3.4307,-3.3658,-3.2147,-3.1626,-3.0776,-2.8334,0.0,-2.6563,-2.634,-2.7016,-2.8191,-2.9916,0.0,-3.4979,-3.5841,-3.7442,-3.8291,-3.7596,-3.7899,-3.8115,-3.8023,-3.8408,-3.8979,-3.9663,-3.9112,-3.9077,-3.9802,-4.0515,-4.0871,-4.0871,-4.0738,-4.0544,-4.0288,-4.0263,-4.0213,-4.0113,-4.0113,-4.0113,-4.0113,-4.0113,-4.0113,-4.0113,0.0,0.0,-4.0113,-4.0113,-4.0113,-4.0113,-4.0113,-4.0113,-4.0113,-4.0113,-4.0113,-4.0113,-4.0113,-4.0113,-4.0113,-4.0113,-3.9673,-3.9266,-3.991,-3.9673,-3.9276,-3.991,-4.0113,-4.0113,-4.0113,-4.0113,-4.0113,-4.0113,-4.0113,-4.0113,-4.0113,-4.0113,-4.0113,-4.0113,-4.0113,-4.0113,-4.0113,-4.0113,-4.0163,-4.0263,-4.0436,-4.0558,-4.0714,-4.0834,-4.0894,-4.0894,-4.0894,-4.0894,-4.0894,-4.0894,-4.0618,-3.9905,-4.0515,-4.0584,-3.9871,-4.0549,-4.0894,-4.0894,-4.0894,-4.0894,-4.0894,-4.0894,-4.0894,-4.0894,-4.0894,-4.1071,-3.4338,-3.4534,-3.4539,-3.4335,-3.3731,-3.2953,-3.2035,-3.0772,0.0,0.0,0.0,-2.5493,-2.476,-2.5805,0.0,-2.9843,0.0,0.0,0.0,0.0,-3.7671,0.0,0.0,0.0,0.0,0.0,0.0,0.0,0.0,-3.9836,-4.0653,-4.0825,-4.0847,-4.0762,-4.0485,-4.0337,-4.0288,-4.0188,-4.0138,-4.0113,-4.0113,-4.0113,-4.0113,-4.0113,-4.0113,-4.0113,-4.0113,0.0,-4.0113,-4.0113,-4.0113,-4.0113,-4.0113,-4.0113,-4.0113,-4.0113,-4.0113,-4.0113,-4.0113,-4.0113,-4.0113,-4.0113,-4.0011,-3.9943,-4.0079,-4.0011,-3.9943,-4.0079,-4.0113,-4.0113,-4.0113,-4.0113,-4.0113,-4.0113,-4.0113,-4.0113,-4.0113,-4.0113,-4.0113,-4.0113,-4.0113,-4.0113,-4.0113,-4.0188,-4.0263,-4.0288,-4.0485,-4.0655,-4.0714,-4.0834,-4.0894,-4.0894,-4.0894,-4.0894,-4.0894,-4.0894,-4.086,-4.0722,-4.0825,-4.086,-4.0722,-4.0825,-4.0894,-4.0894,-4.0894,-4.0894,-4.0894,-4.0894,-4.0894,-4.0894,-4.0894,-4.0942,-3.4566,-3.4495,-3.437,-3.4215,-3.3584,-3.2593,-3.092,0.0,0.0,0.0,-2.5189,-2.4745,-2.4282,0.0,0.0,0.0,0.0,0.0,0.0,0.0,0.0,0.0,0.0,0.0,0.0,0.0,0.0,0.0,0.0,-4.07,-4.0894,-4.0894,-4.0965,-4.1117,-4.0728,-4.0461,-4.0412,-4.0263,-4.0163,-4.0113,-4.0113,-4.0113,-4.0113,-4.0113,-4.0113,-4.0113,-4.0113,0.0,-4.0113,-4.0113,-4.0113,-4.0113,-4.0113,-4.0113,-4.0113,-4.0113,-4.0113,-4.0113,-4.0113,-4.0113,-4.0113,-4.0113,-4.0113,-4.0113,-4.0113,-4.0113,-4.0113,-4.0113,-4.0113,-4.0113,-4.0113,-4.0113,-4.0113,-4.0113,-4.0113,-4.0113,-4.0113,-4.0113,-4.0113,-4.0113,-4.0113,-4.0113,-4.0113,-4.0213,-4.0313,-4.0387,-4.0558,-4.0738,-4.081,-4.0847,-4.0894,-4.0894,-4.0894,-4.0894,-4.0894,-4.0894,-4.0894,-4.0894,-4.0894,-4.0894,-4.0894,-4.0894,-4.0894,-4.0894,-4.0894,-4.0894,-4.0894,-4.0894,-4.0894,-4.0894,-4.0894,-4.1012,-3.4609,-3.4416,-3.4179,-3.4179,-3.3336,-3.1961,-2.988,-2.8457,0.0,0.0,-2.4284,-2.4257,-2.4209,0.0,0.0,0.0,0.0,0.0,0.0,0.0,0.0,0.0,0.0,0.0,0.0,0.0,0.0,0.0,0.0,0.0,-4.0918,-4.0989,-4.1117,-4.1311,-4.0942,-4.0607,-4.0461,-4.0337,-4.0238,-4.0113,-4.0113,-4.0113,-4.0113,-4.0113,-4.0113,-4.0113,-4.0113,0.0,0.0,-4.0113,-4.0113,-4.0113,-4.0113,-4.0113,-4.0113,-4.0113,-4.0113,-4.0113,-4.0113,-4.0113,-4.0113,-4.0113,-4.0113,-4.0113,-4.0113,-4.0113,-4.0113,-4.0113,-4.0113,-4.0113,-4.0113,-4.0113,-4.0113,-4.0113,-4.0113,-4.0113,-4.0113,-4.0113,-4.0113,-4.0113,-4.0113,-4.0113,-4.0113,-4.0238,-4.0387,-4.0485,-4.0631,-4.0776,-4.0871,-4.0894,-4.0894,-4.0894,-4.0894,-4.0894,-4.0894,-4.0894,-4.0894,-4.0894,-4.0894,-4.0894,-4.0894,-4.0894,-4.0894,-4.0894,-4.0894,-4.0894,-4.0894,-4.0894,-4.0894,-4.0894,-4.0894,-4.1047,-3.4459,-3.4416,-3.4179,-3.4179,-3.2518,-3.0586,-2.9619,0.0,0.0,-2.4524,-2.4257,-2.421,-2.4199,-2.43,0.0,0.0,0.0,0.0,0.0,0.0,0.0,0.0,0.0,0.0,0.0,0.0,0.0,0.0,0.0,0.0,-4.0894,-4.1255,-4.122,-4.0776,-4.0738,-4.0558,-4.0313,-4.0288,-4.0238,-4.0113,-4.0113,-4.0113,-4.0113,-4.0113,-4.0113,-4.0113,-4.0113,0.0,0.0,-4.0113,-4.0113,-4.0113,-4.0113,-4.0113,-4.0113,-4.0113,-4.0113,-4.0113,-4.0113,-4.0113,-4.0113,-4.0113,-4.0113,-4.0113,-4.0113,-4.0113,-4.0113,-4.0113,-4.0113,-4.0113,-4.0113,-4.0113,-4.0113,-4.0113,-4.0113,-4.0113,-4.0113,-4.0113,-4.0113,-4.0113,-4.0113,-4.0113,-4.0113,-4.0313,-4.0485,-4.051,-4.0728,-4.0871,-4.0894,-4.0894,-4.0894,-4.0894,-4.0894,-4.0894,-4.0894,-4.0894,-4.0894,-4.0894,-4.0894,-4.0894,-4.0894,-4.0894,-4.0894,-4.0894,-4.0894,-4.0894,-4.0894,-4.0894,-4.0894,-4.0894,-4.0894,-4.0918,-3.3499,-3.3927,-3.4179,-3.4179,-3.2407,-3.04,-2.9582,0.0,-2.5347,-2.4487,-2.4257,-2.421,-2.4199,-2.419,-2.441,0.0,0.0,0.0,0.0,0.0,0.0,0.0,0.0,0.0,0.0,0.0,0.0,0.0,0.0,0.0,-4.0918,-4.1059,-4.1163,-4.1186,-4.0871,-4.0607,-4.0412,-4.0337,-4.0238,-4.0113,-4.0113,-4.0113,-4.0113,-4.0113,-4.0113,-4.0113,-4.0113,0.0,0.0,-4.0113,-4.0113,-4.0113,-4.0113,-4.0113,-4.0113,-4.0113,-4.0113,-4.0113,-4.0113,-4.0113,-4.0113,-4.0113,-4.0113,-4.0113,-4.0113,-4.0113,-4.0113,-4.0113,-4.0113,-4.0113,-4.0113,-4.0113,-4.0113,-4.0113,-4.0113,-4.0113,-4.0113,-4.0113,-4.0113,-4.0113,-4.0113,-4.0138,-4.0213,-4.0387,-4.0534,-4.0607,-4.0776,-4.0894,-4.0894,-4.0894,-4.0894,-4.0894,-4.0894,-4.0894,-4.0894,-4.0894,-4.0894,-4.0894,-4.0894,-4.0894,-4.0894,-4.0894,-4.0894,-4.0894,-4.0894,-4.0894,-4.0894,-4.0894,-4.0894,-4.0894,-4.114,-4.1277,-3.2818,-3.3584,-3.4141,-3.3881,-3.2035,-3.0028,0.0,-2.7034,-2.5042,-2.445,-2.4247,-2.4191,-2.4199,-2.419,-2.419,0.0,0.0,0.0,0.0,0.0,0.0,0.0,0.0,0.0,0.0,0.0,0.0,0.0,0.0,0.0,0.0,-4.0965,-4.1035,-4.1311,-4.0918,-4.0631,-4.051,-4.0362,-4.0238,-4.0113,-4.0113,-4.0113,-4.0113,-4.0113,-4.0113,-4.0113,0.0,0.0,0.0,-4.0113,-4.0113,-4.0113,-4.0113,-4.0113,-4.0113,-4.0113,-4.0113,-4.0113,-4.0113,-4.0113,-4.0113,-4.0113,-4.0113,-4.0113,-4.0113,-4.0113,-4.0113,-4.0113,-4.0113,-4.0113,-4.0113,-4.0113,-4.0113,-4.0113,-4.0113,-4.0113,-4.0113,-4.0113,-4.0113,-4.0113,-4.0113,-4.0138,-4.0263,-4.0412,-4.0558,-4.069,-4.0799,-4.0894,-4.0894,-4.0894,-4.0894,-4.0894,-4.0894,-4.0894,-4.0894,-4.0894,-4.0894,-4.0894,-4.0894,-4.0894,-4.0894,-4.0894,-4.0894,-4.0894,-4.0894,-4.0894,-4.0894,-4.0894,-4.0894,-4.0894,-4.1288,-4.1666,-3.2657,-3.3584,-3.3993,-3.3224,-3.1218,-2.9174,0.0,-2.6153,-2.4294,-2.4294,-2.4256,-2.419,-2.419,-2.419,-2.419,-2.419,0.0,0.0,0.0,0.0,0.0,0.0,0.0,0.0,0.0,0.0,0.0,0.0,0.0,0.0,0.0,-4.1117,-4.0894,-4.0894,-4.0752,-4.0631,-4.051,-4.0362,-4.0238,-4.0113,-4.0113,-4.0113,-4.0113,-4.0113,-4.0113,0.0,0.0,0.0,0.0,-4.0113,-4.0113,-4.0113,-4.0113,-4.0113,-4.0113,-4.0113,-4.0113,-4.0113,-4.0113,-4.0113,-4.0113,-4.0113,-4.0113,-4.0113,-4.0113,-4.0113,-4.0113,-4.0113,-4.0113,-4.0113,-4.0113,-4.0113,-4.0113,-4.0113,-4.0113,-4.0113,-4.0113,-4.0113,-4.0113,-4.0113,-4.0113,-4.0138,-4.0263,-4.0412,-4.0558,-4.069,-4.0799,-4.0894,-4.0894,-4.0894,-4.0894,-4.0894,-4.0894,-4.0894,-4.0894,-4.0894,-4.0894,-4.0894,-4.0894,-4.0894,-4.0894,-4.0894,-4.0894,-4.0894,-4.0894,-4.0894,-4.0894,-4.0894,-4.0894,-4.0894,-4.1288,-4.2008,-2.9461,-3.0288,-3.0846,-3.0586,-2.9099,-2.7603,-2.7294,-2.5717,-2.4284,-2.4247,-2.4201,-2.419,-2.419,-2.419,-2.4557,-2.5658,-2.6062,0.0,0.0,0.0,0.0,0.0,0.0,0.0,0.0,0.0,0.0,0.0,0.0,0.0,0.0,-4.1117,-4.0847,-4.0786,-4.0738,-4.0583,-4.0362,-4.0313,-4.0238,-4.0113,-4.0113,-4.0113,-4.0113,-4.0113,0.0,0.0,0.0,0.0,0.0,-4.0113,-4.0113,-4.0113,-4.0113,-4.0113,-4.0113,-4.0113,-4.0113,-4.0113,-4.0113,-4.0113,-4.0113,-4.0113,-4.0113,-4.0113,-4.0113,-4.0113,-4.0113,-4.0113,-4.0113,-4.0113,-4.0113,-4.0113,-4.0113,-4.0113,-4.0113,-4.0113,-4.0113,-4.0113,-4.0138,-4.0213,-4.0238,-4.0313,-4.051,-4.0607,-4.068,-4.0799,-4.0871,-4.0894,-4.0894,-4.0894,-4.0894,-4.0894,-4.0894,-4.0894,-4.0894,-4.0894,-4.0894,-4.0894,-4.0894,-4.0894,-4.0894,-4.0894,-4.0894,-4.0894,-4.0894,-4.0894,-4.0894,-4.0894,-4.1209,-4.1796,-4.1924,-4.2478,0.0,-2.8728,-2.9322,-2.8988,-2.789,-2.6784,-2.6412,-2.5272,-2.4257,-2.4229,-2.4182,-2.419,-2.419,-2.419,-2.452,-2.5548,-2.5952,0.0,0.0,0.0,0.0,0.0,0.0,0.0,0.0,0.0,0.0,0.0,0.0,0.0,0.0,-4.1117,-4.0823,-4.068,-4.0714,-4.0617,-4.0362,-4.0313,-4.0238,-4.0113,-4.0113,-4.0113,-4.0113,-4.0113,0.0,0.0,0.0,0.0,0.0,-4.0113,-4.0113,-4.0113,-4.0113,-4.0113,-4.0113,-4.0113,-4.0113,-4.0113,-4.0113,-4.0113,-4.0113,-4.0113,-4.0113,-4.0113,-4.0113,-4.0113,-4.0113,-4.0113,-4.0113,-4.0113,-4.0113,-4.0113,-4.0113,-4.0113,-4.0113,-4.0113,-4.0163,-4.0188,-4.0213,-4.0337,-4.0362,-4.0436,-4.0655,-4.0714,-4.0762,-4.0871,-4.0894,-4.0894,-4.0894,-4.0894,-4.0894,-4.0894,-4.0894,-4.0894,-4.0894,-4.0894,-4.0894,-4.0894,-4.0894,-4.0894,-4.0894,-4.0894,-4.0894,-4.0894,-4.0894,-4.0894,-4.0894,-4.0894,-4.1368,-4.2216,-4.2216,-4.2693,0.0,-2.8244,-2.869,-2.7947,-2.7155,-2.6366,-2.5653,-2.4847,0.0,-2.4219,-2.4182,-2.4226,-2.4263,-2.4226,-2.4263,-2.441,-2.5081,0.0,0.0,0.0,0.0,0.0,0.0,0.0,0.0,0.0,0.0,0.0,0.0,0.0,0.0,-4.114,-4.0847,-4.0752,-4.0738,-4.0607,-4.0485,-4.0362,-4.0238,-4.0113,-4.0113,-4.0113,-4.0113,-4.0113,0.0,0.0,0.0,0.0,0.0,-4.0113,-4.0113,-4.0113,-4.0113,-4.0113,-4.0113,-4.0113,-4.0113,-4.0113,-4.0113,-4.0113,-4.0113,-4.0113,-4.0113,-4.0113,-4.0113,-4.0113,-4.0113,-4.0113,-4.0113,-4.0113,-4.0113,-4.0113,-4.0113,-4.0113,-4.0113,-4.0163,-4.0263,-4.0288,-4.0337,-4.0485,-4.051,-4.0558,-4.0714,-4.0704,-4.0762,-4.0871,-4.0894,-4.0894,-4.0894,-4.0894,-4.0894,-4.0894,-4.0894,-4.0894,-4.0894,-4.0894,-4.0894,-4.0894,-4.0894,-4.0894,-4.0894,-4.0894,-4.0894,-4.0894,-4.0894,-4.0894,-4.0894,-4.0894,-4.1368,-4.2216,-4.2216,-4.2713,-2.2996,0.0,-2.3842,-2.4271,-2.4198,-2.4135,0.0,-2.4413,-2.421,-2.4218,0.0,-2.4373,-2.5007,-2.4603,-2.4814,-2.6649,-2.71,0.0,0.0,0.0,0.0,0.0,0.0,0.0,0.0,0.0,0.0,0.0,0.0,0.0,0.0,-4.1323,-4.1035,-4.1288,-4.0918,-4.0593,-4.0337,-4.0412,-4.0337,-4.0113,-4.0113,-4.0113,-4.0113,-4.0113,0.0,0.0,0.0,0.0,-4.0113,-4.0113,-4.0113,-4.0113,-4.0113,-4.0113,-4.0113,-4.0113,-4.0113,-4.0113,-4.0113,-4.0113,-4.0113,-4.0113,-4.0113,-4.0113,-4.0113,-4.0113,-4.0113,-4.0113,-4.0113,-4.0113,-4.0113,-4.0113,-4.0113,-4.0113,-4.0188,-4.0263,-4.0288,-4.0387,-4.0485,-4.0607,-4.0631,-4.068,-4.0823,-4.0847,-4.0847,-4.0894,-4.0894,-4.0894,-4.0894,-4.0894,-4.0894,-4.0894,-4.0894,-4.0894,-4.0894,-4.0894,-4.0894,-4.0894,-4.0894,-4.0894,-4.0894,-4.0894,-4.0894,-4.0894,-4.0894,-4.0894,-4.0894,-4.0894,-4.1368,-4.2216,-4.2216,-4.2693,-2.0707,-2.1686,-2.2667,-2.3075,-2.344,-2.3803,-2.4229,0.0,0.0,0.0,0.0,-2.4337,-2.4787,-2.4787,0.0,-2.6476,-2.764,0.0,0.0,0.0,0.0,0.0,0.0,0.0,0.0,0.0,0.0,0.0,0.0,0.0,0.0,-4.1644,-4.149,-4.1512,-4.1151,-4.0789,-4.0387,-4.0412,-4.0313,-4.0113,-4.0113,-4.0113,-4.0113,-4.0113,-4.0113,0.0,0.0,0.0,-4.0113,-4.0113,-4.0113,-4.0113,-4.0113,-4.0113,-4.0113,-4.0113,-4.0113,-4.0113,-4.0113,-4.0113,-4.0113,-4.0113,-4.0113,-4.0113,-4.0113,-4.0113,-4.0113,-4.0113,-4.0113,-4.0113,-4.0113,-4.0163,-4.0188,-4.0188,-4.0288,-4.0412,-4.0461,-4.0534,-4.0631,-4.0752,-4.0776,-4.0799,-4.0871,-4.0894,-4.0894,-4.0894,-4.1205,-4.1412,-4.1412,-4.1723,-4.1826,-4.1447,-4.1757,-4.1654,-4.0963,-4.1205,-4.1274,-4.0929,-4.0894,-4.0894,-4.0894,-4.0894,-4.0989,-4.1163,-4.1413,-4.1413,-4.1186,-4.1378,-4.1731,-4.2216,-4.2418,-4.2902,-1.9804,-2.1491,-2.3161,-2.3029,-2.3571,-2.4137,-2.4248,0.0,0.0,0.0,0.0,0.0,0.0,0.0,0.0,0.0,0.0,0.0,0.0,0.0,0.0,0.0,0.0,0.0,0.0,0.0,0.0,0.0,0.0,0.0,0.0,-4.1973,-4.2029,-4.1644,-4.141,-4.1024,-4.051,-4.0362,-4.0238,-4.0113,-4.0113,-4.0113,-4.0113,-4.0113,-4.0113,0.0,0.0,0.0,-4.0113,-4.0113,-4.0113,-4.0113,-4.0113,-4.0113,-4.0113,-4.0113,-4.0113,-4.0113,-4.0113,-4.0113,-4.0113,-4.0113,-4.0113,-4.0113,-4.0113,-4.0113,-4.0113,-4.0113,-4.0113,-4.0113,-4.0138,-4.0213,-4.0288,-4.0313,-4.0539,-4.0695,-4.069,-4.0807,-4.0924,-4.0905,-4.0998,-4.1067,-4.1067,-4.117,-4.124,-4.124,-4.1792,-4.2206,-4.2206,-4.2792,-4.293,-4.2275,-4.2792,-4.2654,-4.1378,-4.1723,-4.1747,-4.1196,-4.1011,-4.0918,-4.0989,-4.0989,-4.1186,-4.1622,-4.2008,-4.1994,-4.1622,-4.2029,-4.2257,-4.2338,-4.2713,-4.3214,-2.1155,-2.23,-2.2945,-2.2259,-2.2652,-2.3382,-2.4045,0.0,0.0,0.0,0.0,0.0,0.0,0.0,0.0,0.0,0.0,0.0,0.0,0.0,0.0,0.0,0.0,0.0,0.0,0.0,0.0,0.0,0.0,0.0,0.0,-4.2175,-4.2175,-4.2113,-4.1587,-4.1024,-4.051,-4.0362,-4.0238,-4.0113,-4.0113,-4.0113,-4.0113,-4.0113,-4.0113,0.0,0.0,-4.0113,-4.0113,-4.0113,-4.0113,-4.0113,-4.0113,-4.0113,-4.0113,-4.0113,-4.0113,-4.0113,-4.0113,-4.0113,-4.0113,-4.0113,-4.0113,-4.0113,-4.0113,-4.0113,-4.0113,-4.0113,-4.0113,-4.0138,-4.0238,-4.0263,-4.0313,-4.0436,-4.1038,-4.1445,-4.0851,-4.1292,-4.1605,-4.1032,-4.1412,-4.1826,-4.1826,-4.2413,-4.2861,-4.2861,-4.293,-4.3034,-4.3034,-4.3103,-4.3138,-4.3034,-4.3138,-4.3103,-4.2861,-4.2344,-4.2133,-4.2392,-4.1452,-4.1047,-4.1401,-4.1401,-4.1622,-4.2056,-4.2175,-4.2175,-4.2113,-4.2175,-4.2422,-4.2884,-4.2958,-4.3286,-2.0341,-2.1439,-2.2425,-2.2487,-2.3428,-2.4339,-2.4219,0.0,0.0,0.0,0.0,0.0,0.0,0.0,0.0,0.0,0.0,0.0,0.0,0.0,0.0,0.0,0.0,0.0,0.0,0.0,0.0,0.0,0.0,0.0,0.0,0.0,-4.2789,-4.2577,-4.2015,-4.1455,-4.0943,-4.05,-4.0238,-4.0113,-4.0113,-4.0113,-4.0113,-4.0113,-4.0113,-4.0113,0.0,-4.0113,-4.0113,-4.0113,-4.0113,-4.0113,-4.0113,-4.0113,-4.0113,-4.0113,-4.0113,-4.0113,-4.0113,-4.0113,-4.0113,-4.0113,-4.0113,-4.0113,-4.0113,-4.0113,-4.0113,-4.0188,-4.0213,-4.0315,-4.0764,-4.1,-4.1252,-4.1738,-4.2215,-4.2452,-4.2108,-4.2364,-4.2551,-4.2206,-4.2413,-4.2654,-4.2654,-4.2965,-4.3207,-4.3207,-4.3552,-4.3793,-4.3793,-4.4147,-4.4251,-4.3828,-4.4416,-4.4485,-4.3648,-4.384,-4.3349,-4.1835,-4.1633,-4.1578,-4.1512,-4.2008,-4.2358,-4.2557,-4.2789,-4.2789,-4.2577,-4.2789,-4.294,-4.3014,-4.3213,-4.3512,-1.9868,-2.0993,-2.2271,-2.3088,-2.4247,-2.5176,-2.5056,0.0,0.0,0.0,0.0,0.0,0.0,0.0,0.0,0.0,0.0,0.0,0.0,0.0,0.0,0.0,0.0,0.0,0.0,0.0,0.0,0.0,0.0,0.0,0.0,0.0,-4.334,-4.2901,-4.2342,-4.1789,-4.1276,-4.0669,-4.0263,-4.0163,-4.0113,-4.0113,-4.0113,-4.0113,-4.0113,-4.0113,-4.0113,-4.0113,-4.0113,-4.0113,-4.0113,-4.0113,-4.0113,-4.0113,-4.0113,-4.0113,-4.0113,-4.0113,-4.0113,-4.0113,-4.0113,-4.0113,-4.0113,-4.0146,-4.0341,-4.04,-4.0493,-4.0789,-4.0907,-4.1034,-4.1409,-4.18,-4.2249,-4.2893,-4.3269,-4.3414,-4.3241,-4.3345,-4.3414,-4.3241,-4.3345,-4.3448,-4.3448,-4.3586,-4.3724,-4.3724,-4.4207,-4.4587,-4.4587,-4.5148,-4.5364,-4.4801,-4.5695,-4.5799,-4.4447,-4.5267,-4.4703,-4.194,-4.2391,-4.2647,-4.2412,-4.3093,-4.3519,-4.3577,-4.3906,-4.3797,-4.3322,-4.3614,-4.3557,-4.3178,-4.3495,-4.3751,-2.1233,-2.2279,-2.3097,-2.3906,-2.4199,0.0,-2.7027,-2.6943,0.0,0.0,0.0,0.0,0.0,0.0,0.0,0.0,0.0,0.0,0.0,0.0,0.0,0.0,0.0,0.0,0.0,0.0,0.0,0.0,0.0,0.0,0.0,0.0,0.0,-4.2901,-4.2438,-4.1846,-4.1139,-4.0717,-4.0412,-4.0263,-4.0163,-4.0113,-4.0113,-4.0113,-4.0113,-4.0113,-4.0113,-4.0113,-4.0113,-4.0113,-4.0113,-4.0113,-4.0113,-4.0113,-4.0113,-4.0113,-4.0113,-4.0113,-4.0113,-4.0113,-4.0113,-4.0113,-4.0113,-4.0239,-4.1053,-4.1308,-4.1503,-4.2347,-4.2706,-4.2671,-4.1959,-4.2362,-4.2962,-4.3122,-4.3724,-4.4035,-4.3345,-4.3724,-4.4035,-4.331,-4.3759,-4.4207,-4.4207,-4.4803,-4.5225,-4.5225,-4.5294,-4.5328,-4.5328,-4.5794,-4.6119,-4.6049,-4.6543,-4.6488,-4.5633,-4.6046,-4.575,-4.4428,-4.4378,-4.4626,-4.5012,-4.5091,-4.5307,-4.57,-4.5718,-4.5351,-4.4582,-4.4618,-4.4301,-4.3754,-4.3771,-4.3849,-2.0094,-2.1592,-2.3061,-2.3382,0.0,0.0,0.0,0.0,0.0,0.0,0.0,0.0,0.0,0.0,0.0,0.0,0.0,0.0,0.0,0.0,0.0,0.0,0.0,0.0,0.0,0.0,0.0,0.0,0.0,0.0,0.0,0.0,0.0,-4.3268,-4.2882,-4.2378,-4.1803,-4.1185,-4.0707,-4.0412,-4.0213,-4.0113,-4.0113,-4.0113,-4.0113,-4.0113,-4.0113,-4.0113,-4.0113,-4.0113,-4.0113,-4.0113,-4.0113,-4.0113,-4.0113,-4.0188,-4.0213,-4.0238,-4.0337,-4.0669,-4.1043,-4.1043,-4.1384,-4.1827,-4.2185,-4.2253,-4.2373,-4.2809,-4.3297,-4.3623,-4.3289,-4.3503,-4.3924,-4.4458,-4.4768,-4.4906,-4.463,-4.4803,-4.4906,-4.463,-4.4803,-4.4975,-4.4975,-4.5225,-4.5397,-4.5397,-4.5397,-4.5397,-4.5397,-4.5879,-4.6228,-4.6228,-4.6868,-4.7355,-4.73,-4.7461,-4.7392,-4.6924,-4.5959,-4.5375,-4.5312,-4.5547,-4.5736,-4.5883,-4.5406,-4.5002,-4.4691,-4.4195,-4.3894,-4.3804,-4.3804,-4.3865,-1.9675,-2.1281,-2.3043,0.0,0.0,0.0,0.0,0.0,0.0,0.0,0.0,0.0,0.0,0.0,0.0,0.0,0.0,0.0,0.0,0.0,0.0,0.0,0.0,0.0,0.0,0.0,0.0,0.0,0.0,0.0,0.0,0.0,0.0,0.0,-4.3105,-4.2635,-4.2139,-4.1442,-4.0896,-4.0436,-4.0213,-4.0113,-4.0113,-4.0113,-4.0113,-4.0113,-4.0113,-4.0113,-4.0113,-4.0113,-4.0113,-4.0113,-4.0113,-4.0138,-4.0163,-4.0263,-4.0313,-4.0396,-4.0734,-4.1193,-4.1638,-4.1911,-4.2356,-4.2868,-4.3125,-4.3194,-4.3288,-4.3658,-4.4122,-4.45,-4.45,-4.4552,-4.4768,-4.5259,-4.5397,-4.5397,-4.5397,-4.5397,-4.5397,-4.5397,-4.5397,-4.5397,-4.5397,-4.5397,-4.5397,-4.5397,-4.5554,-4.5649,-4.5649,-4.6242,-4.6683,-4.6845,-4.7442,-4.7955,-4.8267,-4.8306,-4.8306,-4.8306,-4.7278,-4.6542,-4.6273,-4.6523,-4.6654,-4.6654,-4.614,-4.5718,-4.5461,-4.4965,-4.4518,-4.4173,-4.419,-4.414,-2.0503,-2.1722,-2.3189,0.0,0.0,0.0,0.0,0.0,0.0,0.0,0.0,0.0,0.0,0.0,0.0,0.0,0.0,0.0,0.0,0.0,0.0,0.0,0.0,0.0,0.0,0.0,0.0,0.0,0.0,0.0,0.0,0.0,0.0,0.0,-4.3105,-4.2616,-4.2,-4.1397,-4.0849,-4.0288,-4.0163,-4.0113,-4.0113,-4.0113,-4.0113,-4.0113,-4.0113,-4.0113,-4.0113,-4.0113,-4.0113,-4.0113,-4.0113,-4.0188,-4.0288,-4.0288,-4.0387,-4.0612,-4.1364,-4.1604,-4.174,-4.2561,-4.2834,-4.2997,-4.3846,-4.4104,-4.4302,-4.5164,-4.5397,-4.5397,-4.5397,-4.5397,-4.5397,-4.5397,-4.5397,-4.5397,-4.5397,-4.5397,-4.5397,-4.5397,-4.5397,-4.5397,-4.5397,-4.5397,-4.5397,-4.5397,-4.5854,-4.6228,-4.6193,-4.7026,-4.7777,-4.8267,-4.8306,-4.8306,-4.8306,-4.8306,-4.8306,-4.8306,-4.8306,-4.8306,-4.8306,-4.8306,-4.8306,-4.8306,-4.8306,-4.7902,-4.7113,-4.7243,-4.6486,-4.5023,-4.507,-4.4724,-2.0503,-2.1722,0.0,0.0,0.0,0.0,0.0,0.0,0.0,0.0,0.0,0.0,0.0,0.0,0.0,0.0,0.0,0.0,0.0,0.0,0.0,0.0,0.0,0.0,0.0,0.0,0.0,0.0,0.0,0.0,0.0,0.0,0.0,0.0,-4.3356,-4.294,-4.2139,-4.1768,-4.1208,-4.0436,-4.0213,-4.0113,-4.0113,-4.0113,-4.0113,-4.0113,-4.0113,-4.0113,-4.0113,-4.0113,-4.0113,-4.0113,-4.0213,-4.0263,-4.0313,-4.0485,-4.0925,-4.1454,-4.1783,-4.2599,-4.3528,-4.3769,-4.4216,-4.4672,-4.4931,-4.5,-4.5095,-4.5328,-4.5397,-4.5397,-4.5397,-4.5397,-4.5397,-4.5397,-4.5397,-4.5397,-4.5397,-4.5397,-4.5397,-4.5397,-4.5397,-4.5397,-4.5397,-4.5701,-4.598,-4.598,-4.6387,-4.6799,-4.716,-4.7442,-4.7777,-4.8267,-4.8306,-4.8306,-4.8306,-4.8306,-4.8306,-4.8306,-4.8306,-4.8306,-4.8306,-4.8306,-4.8306,-4.8306,-4.7736,-4.737,-4.7243,-4.6727,-4.6263,-4.5901,-4.5918,-4.5576,-2.1318,0.0,0.0,0.0,0.0,0.0,0.0,0.0,0.0,0.0,0.0,0.0,0.0,0.0,0.0,0.0,0.0,0.0,0.0,0.0,0.0,0.0,0.0,0.0,0.0,0.0,0.0,0.0,0.0,0.0,0.0,0.0,0.0,0.0,-4.3515,-4.3069,-4.2216,-4.2015,-4.1455,-4.0583,-4.0313,-4.0188,-4.0188,-4.0138,-4.0113,-4.0113,-4.0113,-4.0113,-4.0113,-4.0113,-4.0113,-4.0146,-4.0578,-4.078,-4.0889,-4.1429,-4.1931,-4.2393,-4.2777,-4.3517,-4.4345,-4.463,-4.5044,-4.5397,-4.5397,-4.5397,-4.5397,-4.5397,-4.5397,-4.5397,-4.5397,-4.5397,-4.5397,-4.5397,-4.5397,-4.5397,-4.5397,-4.5397,-4.5397,-4.5397,-4.5546,-4.5701,-4.5701,-4.6119,-4.6483,-4.6483,-4.6868,-4.7356,-4.7834,-4.7895,-4.7995,-4.8267,-4.8306,-4.8306,-4.8306,-4.8306,-4.8306,-4.8306,-4.8306,-4.8306,-4.8306,-4.8306,-4.8306,-4.8306,-4.781,-4.7646,-4.7758,-4.7334,-4.7017,-4.6823,-4.682,-4.6463,0.0,0.0,0.0,0.0,0.0,0.0,0.0,0.0,0.0,0.0,0.0,0.0,0.0,0.0,0.0,0.0,0.0,0.0,0.0,0.0,0.0,0.0,0.0,0.0,0.0,0.0,0.0,0.0,0.0,0.0,0.0,0.0,0.0,-4.3515,-4.3515,-4.3069,-4.2216,-4.2077,-4.1565,0.0,-4.0412,-4.0288,-4.0288,-4.0163,-4.0113,-4.0113,-4.0113,-4.0113,-4.0113,-4.0113,-4.0146,-4.0307,-4.1078,-4.1537,-4.1834,-4.2705,-4.3141,-4.3414,-4.4069,-4.4345,-4.4518,-4.5156,-4.5397,-4.5397,-4.5397,-4.5397,-4.5397,-4.5397,-4.5397,-4.5397,-4.5397,-4.5397,-4.5397,-4.5397,-4.5397,-4.5397,-4.5397,-4.5397,-4.5423,-4.5476,-4.5879,-4.6193,-4.6242,-4.6672,-4.6959,-4.7004,-4.7399,-4.7797,-4.8248,-4.8306,-4.8306,-4.8306,-4.8306,-4.8306,-4.8306,-4.8306,-4.8306,-4.8306,-4.8306,-4.8306,-4.8306,-4.8306,-4.8306,-4.8306,-4.8306,-4.8363,-4.8494,-4.8569,-4.8308,-4.773,-4.7779,-4.7367,0.0,0.0,0.0,0.0,0.0,0.0,0.0,0.0,0.0,0.0,0.0,0.0,0.0,0.0,0.0,0.0,0.0,0.0,0.0,0.0,0.0,0.0,0.0,0.0,0.0,0.0,0.0,0.0,0.0,0.0,0.0,0.0,0.0,-4.3515,-4.3515,-4.3069,-4.2216,-4.2077,-4.1565,0.0,-4.0412,-4.0288,-4.0288,-4.0163,-4.0113,-4.0113,-4.0113,-4.0113,-4.0113,-4.0113,-4.0502,-4.1146,-4.1435,-4.2005,-4.2739,-4.3037,-4.3526,-4.4104,-4.4242,-4.4665,-4.519,-4.5363,-4.5397,-4.5397,-4.5397,-4.5397,-4.5397,-4.5397,-4.5397,-4.5397,-4.5397,-4.5397,-4.5397,-4.5397,-4.5397,-4.5397,-4.5397,-4.5397,-4.5528,-4.5955,-4.613,-4.6315,-4.6695,-4.7138,-4.7569,-4.7935,-4.8075,-4.8209,-4.8287,-4.8306,-4.8306,-4.8306,-4.8306,-4.8306,-4.8306,-4.8306,-4.8306,-4.8306,-4.8306,-4.8306,-4.8306,-4.8306,-4.8306,-4.8306,-4.8419,-4.8513,-4.8587,-4.8678,-4.8693,-4.8633,-4.865,-4.8221,0.0,0.0,0.0,0.0,0.0,0.0,0.0,0.0,0.0,0.0,0.0,0.0,0.0,0.0,0.0,0.0,0.0,0.0,0.0,0.0,0.0,0.0,0.0,0.0,0.0,0.0,0.0,0.0,0.0,0.0,0.0,-4.3515,-4.3515,-4.3515,-4.3515,-4.3069,-4.2216,-4.2118,-4.1652,-4.0776,-4.051,-4.0337,-4.0188,-4.0138,-4.0113,-4.0113,-4.0113,-4.0113,-4.0146,-4.0485,-4.0934,-4.1503,-4.2373,-4.3049,-4.3589,-4.4062,-4.4492,-4.4837,-4.4837,-4.5079,-4.5397,-4.5397,-4.5397,-4.5397,-4.5397,-4.5397,-4.5397,-4.5397,-4.5397,-4.5397,-4.5397,-4.5607,-4.5778,-4.5778,-4.5607,-4.5476,-4.5727,-4.5572,-4.5624,-4.6387,-4.6554,-4.666,-4.716,-4.7611,-4.8015,-4.8267,-4.8306,-4.8306,-4.8306,-4.8306,-4.8306,-4.8306,-4.8306,-4.8306,-4.8306,-4.8306,-4.8306,-4.8306,-4.8306,-4.8306,-4.8306,-4.8306,-4.8325,-4.84,-4.8457,-4.8569,-4.8678,-4.8769,-4.884,-4.889,-4.889,-4.8667,0.0,0.0,0.0,0.0,0.0,0.0,0.0,0.0,0.0,0.0,0.0,0.0,0.0,0.0,0.0,0.0,0.0,0.0,0.0,0.0,0.0,0.0,0.0,0.0,0.0,0.0,0.0,0.0,0.0,0.0,-4.3515,-4.3515,-4.3515,-4.3515,-4.3515,-4.3069,-4.2216,-4.2216,-4.1753,-4.0894,-4.0631,-4.0362,-4.0113,-4.0248,-4.0214,-4.0113,-4.0383,-4.0417,-4.035,-4.1094,-4.1604,-4.1971,-4.3389,-4.4102,-4.4405,-4.5129,-4.5397,-4.5397,-4.5397,-4.5397,-4.5397,-4.5397,-4.5397,-4.5397,-4.5397,-4.5397,-4.5397,-4.5397,-4.5476,-4.5554,-4.5554,-4.593,-4.6315,-4.6315,-4.597,-4.5778,-4.6217,-4.5905,-4.5854,-4.6822,-4.7071,-4.727,-4.7653,-4.8035,-4.8306,-4.8306,-4.8306,-4.8306,-4.8306,-4.8306,-4.8306,-4.8306,-4.8306,-4.8306,-4.8306,-4.8306,-4.8306,-4.8306,-4.8306,-4.8306,-4.8306,-4.8306,-4.8363,-4.8513,-4.8513,-4.8606,-4.8787,-4.8804,-4.8857,-4.889,-4.889,-4.8816,0.0,0.0,0.0,0.0,0.0,0.0,0.0,0.0,0.0,0.0,0.0,0.0,0.0,0.0,0.0,0.0,0.0,0.0,0.0,0.0,0.0,0.0,0.0,0.0,0.0,0.0,0.0,0.0,0.0,0.0,-4.3515,-4.3515,-4.3515,-4.3515,-4.3515,-4.3069,-4.2216,-4.2216,-4.1753,-4.0894,-4.0631,-4.0362,-4.0113,-4.0764,-4.0696,-4.018,-4.1467,-4.1644,-4.1102,-4.1944,-4.2815,-4.3594,-4.3957,-4.4543,-4.5233,-4.5363,-4.5397,-4.5397,-4.5397,-4.5397,-4.5397,-4.5397,-4.5397,-4.5397,-4.5397,-4.5397,-4.5397,-4.5397,-4.5727,-4.6105,-4.6105,-4.6459,-4.6835,-4.6835,-4.673,-4.6707,-4.6812,-4.6435,-4.6387,-4.7335,-4.7854,-4.8114,-4.8209,-4.8267,-4.8306,-4.8306,-4.8306,-4.8306,-4.8306,-4.8306,-4.8306,-4.8306,-4.8306,-4.8306,-4.8306,-4.8306,-4.8306,-4.8306,-4.8306,-4.8306,-4.8306,-4.8306,-4.8401,-4.8587,-4.8587,-4.8642,-4.8787,-4.8875,-4.8873,-4.889,-4.889,-4.8519,0.0,0.0,0.0,0.0,0.0,0.0,0.0,0.0,0.0,0.0,0.0,0.0,0.0,0.0,0.0,0.0,0.0,0.0,0.0,0.0,0.0,0.0,0.0,0.0,0.0,0.0,0.0,0.0,0.0,-4.3515,-4.3515,-4.3515,-4.3515,-4.3515,-4.3515,-4.3069,-4.2216,-4.2216,-4.1709,-4.068,-4.0558,-4.0362,-4.0146,-4.0942,-4.1078,-4.0764,-4.1847,-4.217,-4.1978,-4.2838,-4.3481,-4.4068,-4.4524,-4.4981,-4.5397,-4.5397,-4.5397,-4.5397,-4.5397,-4.5397,-4.5397,-4.5397,-4.5397,-4.5397,-4.5397,-4.5397,-4.5476,-4.5752,-4.603,-4.6242,-4.6531,-4.6936,-4.7291,-4.7291,-4.7291,-4.7356,-4.7611,-4.7093,-4.6776,-4.7485,-4.7975,-4.8306,-4.8306,-4.8306,-4.8306,-4.8306,-4.8306,-4.8306,-4.8306,-4.8306,-4.8306,-4.8306,-4.8306,-4.8306,-4.8306,-4.8306,-4.8306,-4.8306,-4.8306,-4.8306,-4.8306,-4.8344,-4.8458,-4.8605,-4.8624,-4.8696,-4.8875,-4.891,-4.889,-4.889,-4.889,-4.8704,0.0,0.0,0.0,0.0,0.0,0.0,0.0,0.0,0.0,0.0,0.0,0.0,0.0,0.0,0.0,0.0,0.0,0.0,0.0,0.0,0.0,0.0,0.0,0.0,0.0,0.0,0.0,0.0,0.0,-4.3515,-4.3515,-4.3515,-4.3515,-4.3515,-4.3515,-4.3069,-4.2216,-4.1987,-4.1423,-4.0558,-4.051,-4.0412,-4.0213,-4.101,-4.1486,-4.1612,-4.2359,-4.2777,-4.2917,-4.3727,-4.4202,-4.4448,-4.5024,-4.5318,-4.5397,-4.5397,-4.5397,-4.5397,-4.5397,-4.5397,-4.5397,-4.5397,-4.5397,-4.5423,-4.5581,-4.5572,-4.5701,-4.6217,-4.6483,-4.6649,-4.6981,-4.7421,-4.7777,-4.7777,-4.7777,-4.7818,-4.8075,-4.7689,-4.7356,-4.7695,-4.8055,-4.8306,-4.8306,-4.8306,-4.8306,-4.8306,-4.8306,-4.8306,-4.8306,-4.8306,-4.8306,-4.8306,-4.8306,-4.8306,-4.8306,-4.8306,-4.8306,-4.8306,-4.8306,-4.8306,-4.8306,-4.8438,-4.8532,-4.8605,-4.8642,-4.8732,-4.889,-4.889,-4.889,-4.889,-4.889,-4.8779,0.0,0.0,0.0,0.0,0.0,0.0,0.0,0.0,0.0,0.0,0.0,0.0,0.0,0.0,0.0,0.0,0.0,0.0,0.0,0.0,0.0,0.0,0.0,0.0,0.0,0.0,0.0,0.0,0.0,-4.3515,-4.3515,-4.3515,-4.3515,-4.3515,-4.3515,-4.3069,-4.2216,-4.1391,-4.0871,-4.0714,-4.0558,-4.051,-4.0519,-4.1146,-4.1861,-4.268,-4.3465,-4.3833,-4.3868,-4.478,-4.5108,-4.5169,-4.531,-4.5397,-4.5397,-4.5397,-4.5397,-4.5397,-4.5397,-4.5397,-4.5397,-4.5397,-4.5397,-4.5502,-4.6005,-4.6179,-4.6242,-4.6742,-4.7182,-4.7527,-4.7569,-4.7915,-4.8267,-4.8267,-4.8267,-4.817,-4.7715,-4.7955,-4.8248,-4.8267,-4.8287,-4.8306,-4.8306,-4.8306,-4.8306,-4.8306,-4.8306,-4.8306,-4.8306,-4.8306,-4.8306,-4.8306,-4.8306,-4.8306,-4.8306,-4.8306,-4.8306,-4.8306,-4.8306,-4.8306,-4.8306,-4.8438,-4.8532,-4.8605,-4.8696,-4.884,-4.889,-4.889,-4.889,-4.889,-4.889,-4.8481,0.0,0.0,0.0,0.0,0.0,0.0,0.0,0.0,0.0,0.0,0.0,0.0,0.0,0.0,0.0,0.0,0.0,0.0,0.0,0.0,0.0,0.0,0.0,0.0,0.0,0.0,0.0,0.0,0.0,0.0,-4.3515,-4.3515,-4.3515,-4.3515,-4.3515,-4.3069,-4.2216,-4.1346,-4.0823,-4.0714,-4.0631,-4.0583,-4.051,-4.0808,-4.138,-4.2149,-4.2524,-4.3452,-4.4746,-4.5074,-4.523,-4.5344,-4.5371,-4.5397,-4.5397,-4.5397,-4.5397,-4.5397,-4.5397,-4.5397,-4.5397,-4.5397,-4.5624,-4.5955,-4.6119,-4.6411,-4.6765,-4.7226,-4.7485,-4.7674,-4.7975,-4.8153,-4.8306,-4.8306,-4.8306,-4.8267,-4.8075,-4.819,-4.8306,-4.8306,-4.8306,-4.8306,-4.8306,-4.8306,-4.8306,-4.8306,-4.8306,-4.8306,-4.8306,-4.8306,-4.8306,-4.8306,-4.8306,-4.8306,-4.8306,-4.8306,-4.8306,-4.8306,-4.8306,-4.8325,-4.8438,-4.8495,-4.8605,-4.8751,-4.884,-4.8892,-4.889,-4.889,-4.889,-4.889,-4.837,-4.7999,-1.7142,0.0,0.0,0.0,0.0,0.0,0.0,0.0,0.0,0.0,0.0,0.0,0.0,0.0,0.0,0.0,0.0,0.0,0.0,0.0,0.0,0.0,0.0,0.0,0.0,0.0,0.0,0.0,0.0,0.0,-4.3515,-4.3515,-4.3515,-4.3515,-4.3393,-4.2921,-4.2216,-4.1468,-4.1012,-4.0786,-4.0738,-4.0655,-4.0631,-4.0655,-4.1116,-4.1886,-4.195,-4.3097,-4.4878,-4.4878,-4.5103,-4.5397,-4.5397,-4.5397,-4.5397,-4.5397,-4.5397,-4.5397,-4.5397,-4.5397,-4.5397,-4.5397,-4.5752,-4.6217,-4.6387,-4.6753,-4.7226,-4.7695,-4.7818,-4.7915,-4.8229,-4.8306,-4.8306,-4.8306,-4.8306,-4.8306,-4.8306,-4.8306,-4.8306,-4.8306,-4.8306,-4.8306,-4.8306,-4.8306,-4.8306,-4.8306,-4.8306,-4.8306,-4.8306,-4.8306,-4.8306,-4.8306,-4.8306,-4.8306,-4.8306,-4.8306,-4.8306,-4.8306,-4.8306,-4.8344,-4.8476,-4.855,-4.866,-4.8787,-4.8875,-4.889,-4.889,-4.889,-4.8779,-4.8481,-4.7961,-4.7404,0.0,0.0,0.0,0.0,0.0,0.0,0.0,0.0,0.0,0.0,0.0,0.0,0.0,0.0,0.0,0.0,0.0,0.0,0.0,0.0,0.0,0.0,0.0,0.0,0.0,0.0,0.0,0.0,0.0,-4.3478,-4.3515,-4.3515,-4.3515,-4.3515,-4.3105,-4.2655,-4.2216,-4.1717,-4.1288,-4.0894,-4.0752,-4.0752,-4.0894,-4.0786,-4.1164,-4.1964,-4.1964,-4.2827,-4.4242,-4.4276,-4.4734,-4.5363,-4.5397,-4.5397,-4.5397,-4.5397,-4.5397,-4.5397,-4.5397,-4.5397,-4.5397,-4.5423,-4.5778,-4.6291,-4.6788,-4.7248,-4.7715,-4.8153,-4.8306,-4.8306,-4.8306,-4.8306,-4.8306,-4.8306,-4.8306,-4.8306,-4.8306,-4.8306,-4.8306,-4.8306,-4.8306,-4.8306,-4.8306,-4.8306,-4.8306,-4.8306,-4.8306,-4.8306,-4.8306,-4.8306,-4.8306,-4.8306,-4.8306,-4.8306,-4.8306,-4.8306,-4.8306,-4.8306,-4.8306,-4.8381,-4.8494,-4.8569,-4.866,-4.8804,-4.8875,-4.889,-4.8853,-4.8853,-4.8444,-4.7701,-4.7664,-4.6773,-1.6578,0.0,0.0,0.0,0.0,0.0,0.0,0.0,0.0,0.0,0.0,0.0,0.0,0.0,0.0,0.0,0.0,0.0,0.0,0.0,0.0,0.0,0.0,0.0,0.0,0.0,0.0,0.0,-4.2506,-4.2873,-4.3478,-4.3515,-4.3515,-4.3515,-4.3105,-4.2655,-4.2216,-4.1717,-4.1288,-4.0894,-4.0847,-4.0847,-4.0894,-4.0847,-4.0985,-4.1205,-4.1205,-4.1757,-4.2723,-4.3828,-4.4414,-4.4665,-4.519,-4.5397,-4.5397,-4.5397,-4.5397,-4.5397,-4.5397,-4.5397,-4.5476,-4.5854,-4.6315,-4.6776,-4.727,-4.7715,-4.8114,-4.8267,-4.8306,-4.8306,-4.8306,-4.8306,-4.8306,-4.8306,-4.8306,-4.8306,-4.8306,-4.8306,-4.8306,-4.8306,-4.8306,-4.8306,-4.8306,-4.8306,-4.8306,-4.8306,-4.8306,-4.8306,-4.8306,-4.8306,-4.8306,-4.8306,-4.8306,-4.8306,-4.8306,-4.8306,-4.8306,-4.8306,-4.84,-4.8494,-4.8569,-4.866,-4.8767,-4.8892,-4.8873,-4.863,-4.8036,-4.8036,-4.7924,-4.7664,-4.6513,-4.5398,-1.7568,0.0,0.0,0.0,0.0,0.0,0.0,0.0,0.0,0.0,0.0,0.0,0.0,0.0,0.0,0.0,0.0,0.0,0.0,0.0,0.0,0.0,0.0,0.0,0.0,0.0,0.0,-4.1222,-4.1625,-4.2139,-4.2947,-4.3331,-4.3515,-4.3515,-4.3105,-4.2655,-4.2216,-4.1717,-4.1288,-4.0894,-4.0894,-4.0894,-4.0894,-4.0894,-4.0894,-4.0894,-4.0894,-4.1136,-4.1654,-4.2861,-4.3724,-4.4345,-4.4768,-4.5121,-4.5397,-4.5397,-4.5397,-4.5397,-4.5397,-4.5397,-4.5502,-4.603,-4.6531,-4.6981,-4.7464,-4.7935,-4.8306,-4.8306,-4.8306,-4.8306,-4.8306,-4.8306,-4.8306,-4.8306,-4.8306,-4.8306,-4.8306,-4.8306,-4.8306,-4.8306,-4.8306,-4.8306,-4.8306,-4.8306,-4.8306,-4.8306,-4.8306,-4.8306,-4.8306,-4.8306,-4.8306,-4.8306,-4.8306,-4.8306,-4.8306,-4.8306,-4.8306,-4.8306,-4.8438,-4.8532,-4.8605,-4.8751,-4.884,-4.889,-4.8556,-4.785,-4.6698,-4.7367,-4.7367,-4.6661,-4.5361,-4.4506,-1.8904,-1.9483,0.0,0.0,0.0,0.0,-2.3015,-2.3162,0.0,0.0,0.0,0.0,0.0,0.0,0.0,0.0,0.0,0.0,0.0,0.0,0.0,0.0,0.0,0.0,0.0,-3.8814,-3.9717,-3.9879,-4.0744,-4.1535,-4.2249,-4.3057,-4.3515,-4.3515,-4.3142,-4.2693,-4.2216,-4.1796,-4.1333,-4.0894,-4.0894,-4.0894,-4.0894,-4.0894,-4.0894,-4.0894,-4.0894,-4.0894,-4.0963,-4.1619,-4.2723,-4.4069,-4.4242,-4.4699,-4.5294,-4.5363,-4.5397,-4.5397,-4.5397,-4.545,-4.5607,-4.613,-4.6602,-4.7049,-4.7527,-4.7975,-4.8306,-4.8306,-4.8306,-4.8306,-4.8306,-4.8306,-4.8306,-4.8306,-4.8306,-4.8306,-4.8306,-4.8306,-4.8306,-4.8306,-4.8306,-4.8306,-4.8306,-4.8306,-4.8306,-4.8306,-4.8306,-4.8306,-4.8306,-4.8306,-4.8306,-4.8306,-4.8306,-4.8306,-4.8306,-4.8306,-4.8306,-4.8306,-4.8457,-4.855,-4.8624,-4.8714,-4.8803,-4.8779,-4.7887,-4.6735,-4.5287,-4.6735,-4.6661,-4.5138,-4.4389,-4.4048,-2.1151,-2.0813,0.0,0.0,0.0,0.0,0.0,-2.0629,0.0,0.0,0.0,0.0,0.0,0.0,0.0,0.0,0.0,0.0,0.0,0.0,0.0,0.0,0.0,0.0,0.0,-3.7786,-3.8521,-3.9806,-4.1258,-4.2139,-4.2286,-4.3057,-4.3515,-4.3515,-4.3445,-4.2995,-4.2216,-4.2133,-4.1666,-4.0894,-4.0894,-4.0894,-4.0894,-4.0894,-4.0894,-4.0894,-4.0894,-4.0894,-4.0929,-4.1067,-4.1654,-4.2585,-4.3828,-4.4414,-4.4561,-4.5156,-4.5397,-4.5397,-4.5397,-4.5675,-4.6119,-4.6625,-4.7071,-4.7548,-4.8015,-4.8229,-4.8306,-4.8306,-4.8306,-4.8306,-4.8306,-4.8306,-4.8306,-4.8306,-4.8306,-4.8306,-4.8306,-4.8306,-4.8306,-4.8306,-4.8306,-4.8306,-4.8306,-4.8306,-4.8306,-4.8306,-4.8306,-4.8306,-4.8306,-4.8306,-4.8306,-4.8306,-4.8306,-4.8306,-4.8306,-4.8306,-4.8325,-4.8457,-4.8532,-4.8624,-4.8769,-4.8857,-4.8576,-4.7961,-4.6513,-4.5621,-4.5287,-4.5621,-4.5249,-4.4246,-4.4296,-4.4299,-2.2721,-2.2354,0.0,-2.1363,0.0,0.0,0.0,0.0,0.0,0.0,0.0,0.0,0.0,0.0,0.0,0.0,0.0,0.0,0.0,0.0,0.0,0.0,0.0,0.0,0.0,-3.7015,-3.8006,-3.9203,-4.0414,-4.1295,-4.1699,-4.247,-4.3094,-4.3515,-4.3069,-4.2655,-4.2216,-4.1774,-4.1346,-4.0894,-4.0894,-4.0894,-4.0894,-4.0894,-4.0894,-4.0894,-4.0894,-4.0894,-4.0894,-4.0894,-4.1136,-4.1619,-4.3138,-4.3966,-4.4414,-4.5121,-4.5397,-4.545,-4.5701,-4.598,-4.6315,-4.7026,-4.7399,-4.7674,-4.817,-4.8306,-4.8306,-4.8306,-4.8306,-4.8306,-4.8306,-4.8306,-4.8306,-4.8306,-4.8306,-4.8306,-4.8306,-4.8306,-4.8306,-4.8306,-4.8306,-4.8306,-4.8306,-4.8306,-4.8306,-4.8306,-4.8344,-4.8419,-4.8419,-4.842,-4.8439,-4.8419,-4.8419,-4.8419,-4.8419,-4.8419,-4.8457,-4.8532,-4.8624,-4.8751,-4.8787,-4.8838,-4.8333,-4.7144,-4.5918,-4.5158,-4.4864,-4.4864,-4.464,-4.4192,-4.4365,-4.4465,0.0,0.0,0.0,0.0,0.0,-2.229,0.0,0.0,0.0,0.0,0.0,0.0,0.0,0.0,0.0,0.0,0.0,0.0,0.0,0.0,0.0,0.0,0.0,0.0,0.0,-3.5899,-3.7272,-3.8395,-3.8909,-3.9753,-4.1022,-4.1882,-4.2653,-4.3478,-4.2751,-4.2297,-4.2216,-4.1401,-4.0989,-4.0894,-4.0894,-4.0894,-4.0894,-4.0894,-4.0894,-4.0894,-4.0894,-4.0894,-4.0894,-4.0894,-4.0894,-4.1067,-4.2585,-4.3552,-4.4207,-4.5183,-4.552,-4.5624,-4.6144,-4.6387,-4.659,-4.7356,-4.7653,-4.7834,-4.8209,-4.8306,-4.8306,-4.8306,-4.8306,-4.8306,-4.8306,-4.8306,-4.8306,-4.8306,-4.8306,-4.8306,-4.8306,-4.8306,-4.8306,-4.8306,-4.8306,-4.8306,-4.8306,-4.8306,-4.8306,-4.8325,-4.8438,-4.8494,-4.8513,-4.8569,-4.8569,-4.8494,-4.8513,-4.8513,-4.8494,-4.8513,-4.8569,-4.8642,-4.8751,-4.8804,-4.8822,-4.8558,-4.7738,-4.629,-4.5499,-4.4886,-4.4397,-4.4452,-4.4479,-4.4479,-4.4533,-4.4676,0.0,0.0,0.0,0.0,-2.4006,0.0,0.0,0.0,0.0,0.0,0.0,0.0,0.0,0.0,0.0,0.0,0.0,0.0,0.0,0.0,0.0,0.0,0.0,0.0,0.0,0.0,-3.5165,-3.7456,-3.7052,-3.7991,-4.0948,-4.1882,-4.2653,-4.3478,-4.305,-4.2596,-4.2216,-4.1709,-4.1255,-4.0894,-4.0894,-4.0894,-4.0894,-4.0894,-4.0894,-4.0894,-4.0894,-4.0894,-4.0894,-4.0894,-4.0894,-4.1067,-4.2585,-4.3241,-4.3533,-4.5431,-4.613,-4.6204,-4.6672,-4.7093,-4.7464,-4.7569,-4.7895,-4.8248,-4.8287,-4.8306,-4.8306,-4.8306,-4.8306,-4.8306,-4.8306,-4.8306,-4.8306,-4.8306,-4.8306,-4.8306,-4.8306,-4.8306,-4.8306,-4.8306,-4.8306,-4.8306,-4.8306,-4.8306,-4.8325,-4.8457,-4.8476,-4.8532,-4.8587,-4.8605,-4.8569,-4.8494,-4.8532,-4.855,-4.8494,-4.8532,-4.8642,-4.8769,-4.8787,-4.884,-4.891,-4.7553,-4.6364,-4.5435,-4.4834,-4.4468,-4.4397,-4.4637,-4.4751,-4.4751,-4.4988,-4.5137,0.0,0.0,0.0,0.0,0.0,0.0,-2.0739,0.0,-1.9858,0.0,0.0,0.0,0.0,0.0,0.0,0.0,0.0,0.0,0.0,0.0,0.0,0.0,0.0,0.0,0.0,0.0,0.0,0.0,0.0,-3.6765,-3.957,-4.0912,-4.1992,-4.2763,-4.261,-4.2518,-4.2596,-4.1644,-4.1186,-4.1255,-4.1012,-4.0894,-4.0894,-4.0894,-4.0894,-4.0894,-4.0894,-4.0894,-4.0894,-4.0894,-4.1059,-4.1359,-4.2474,-4.3195,-4.3766,-4.5032,-4.5975,-4.666,-4.7138,-4.7442,-4.7632,-4.7935,-4.8114,-4.8306,-4.8306,-4.8306,-4.8306,-4.8306,-4.8306,-4.8306,-4.8306,-4.8306,-4.8306,-4.8306,-4.8306,-4.8306,-4.8306,-4.8306,-4.8325,-4.8419,-4.8419,-4.8438,-4.8476,-4.8439,-4.8457,-4.8532,-4.8624,-4.8679,-4.8696,-4.875,-4.8732,-4.8679,-4.8715,-4.8678,-4.8679,-4.8715,-4.8769,-4.8857,-4.843,-4.8187,-4.8184,-4.6765,-4.5828,-4.5455,-4.4931,-4.4714,-4.4861,-4.4966,-4.5126,-4.5253,-4.5222,-4.5273,-2.8033,0.0,0.0,0.0,0.0,0.0,0.0,0.0,0.0,0.0,0.0,0.0,0.0,0.0,0.0,0.0,0.0,0.0,0.0,0.0,0.0,0.0,0.0,0.0,0.0,0.0,0.0,0.0,0.0,0.0,-3.8175,-3.9496,-4.0781,-4.2249,-4.2006,-4.2203,-4.2882,-4.1591,-4.1094,-4.1512,-4.1071,-4.0894,-4.0894,-4.0894,-4.0965,-4.1047,-4.1047,-4.114,-4.1255,-4.1255,-4.1423,-4.1744,-4.2344,-4.3138,-4.4072,-4.5042,-4.6122,-4.716,-4.7632,-4.7777,-4.7875,-4.8209,-4.8306,-4.8306,-4.8306,-4.8306,-4.8306,-4.8306,-4.8306,-4.8306,-4.8306,-4.8306,-4.8306,-4.8306,-4.8325,-4.8344,-4.8344,-4.8363,-4.8401,-4.8513,-4.8532,-4.8569,-4.8642,-4.8569,-4.8569,-4.8642,-4.8751,-4.8804,-4.8822,-4.8892,-4.8855,-4.8804,-4.8822,-4.8822,-4.8804,-4.8822,-4.8746,-4.8593,-4.8036,-4.7529,-4.7127,-4.6128,-4.5538,-4.5396,-4.5066,-4.4988,-4.5201,-4.5263,-4.541,-4.5586,-4.541,-4.5419,0.0,0.0,0.0,-2.5401,0.0,0.0,0.0,0.0,-2.1482,0.0,0.0,0.0,0.0,0.0,0.0,0.0,0.0,0.0,0.0,0.0,0.0,0.0,0.0,0.0,0.0,0.0,0.0,0.0,0.0,0.0,-3.7235,-3.7603,-3.9071,-4.2213,-4.1501,-4.1629,-4.2882,-4.1591,-4.1094,-4.1512,-4.1071,-4.0894,-4.0894,-4.0894,-4.1117,-4.149,-4.149,-4.1753,-4.2175,-4.2175,-4.2175,-4.2195,-4.2231,-4.2996,-4.4292,-4.5791,-4.6861,-4.7632,-4.8094,-4.8287,-4.8287,-4.8287,-4.8306,-4.8306,-4.8306,-4.8306,-4.8306,-4.8306,-4.8306,-4.8306,-4.8306,-4.8306,-4.8306,-4.8306,-4.8419,-4.8476,-4.8476,-4.8532,-4.8605,-4.8605,-4.8605,-4.8642,-4.8769,-4.8678,-4.8642,-4.8769,-4.8787,-4.8822,-4.891,-4.889,-4.8855,-4.8804,-4.8875,-4.8892,-4.8804,-4.8875,-4.8593,-4.7776,-4.7701,-4.7106,-4.5744,-4.5608,-4.5372,-4.4852,-4.5071,-4.5191,-4.5201,-4.5448,-4.5586,-4.5594,-4.5586,-4.5586,0.0,0.0,-3.2729,-2.8436,0.0,0.0,0.0,0.0,0.0,0.0,0.0,0.0,0.0,0.0,0.0,0.0,0.0,0.0,0.0,0.0,0.0,0.0,0.0,0.0,0.0,0.0,0.0,0.0,0.0,0.0,0.0,-3.711,-3.9019,-4.0671,-4.1162,-4.1994,-4.3286,-4.1952,-4.1512,-4.1931,-4.1232,-4.0894,-4.0894,-4.0894,-4.1117,-4.1512,-4.1512,-4.1774,-4.2216,-4.2216,-4.2378,-4.2635,-4.2635,-4.341,-4.4583,-4.5391,-4.6359,-4.738,-4.8065,-4.8306,-4.8306,-4.8306,-4.8306,-4.8306,-4.8306,-4.8306,-4.8306,-4.8306,-4.8306,-4.8306,-4.8306,-4.8306,-4.8306,-4.8419,-4.8457,-4.8513,-4.855,-4.8587,-4.8642,-4.8733,-4.8751,-4.8769,-4.8857,-4.882,-4.8803,-4.8875,-4.8875,-4.8855,-4.889,-4.889,-4.8873,-4.8875,-4.891,-4.8873,-4.8875,-4.839,-4.7999,-4.7738,-4.6834,-4.6106,-4.5608,-4.542,-4.5258,-4.5082,-4.5351,-4.5457,-4.5457,-4.5559,-4.5594,-4.5594,-4.5594,-4.5594,-3.4321,-3.4601,0.0,-3.0711,-2.9647,0.0,-2.4704,0.0,0.0,0.0,0.0,0.0,0.0,0.0,0.0,0.0,0.0,0.0,0.0,0.0,0.0,0.0,0.0,0.0,0.0,0.0,-2.4704,-2.72,0.0,0.0,0.0,0.0,-3.7845,-3.9827,-4.0741,-4.1941,-4.3461,-4.2322,-4.1888,-4.2195,-4.1622,-4.1186,-4.0894,-4.1059,-4.1368,-4.1774,-4.1774,-4.2098,-4.2674,-4.2674,-4.2827,-4.3105,-4.3105,-4.3579,-4.438,-4.5203,-4.6374,-4.759,-4.8122,-4.8306,-4.8306,-4.8306,-4.8306,-4.8306,-4.8306,-4.8306,-4.8306,-4.8306,-4.8306,-4.8306,-4.8306,-4.8325,-4.84,-4.8476,-4.855,-4.8624,-4.866,-4.8696,-4.8732,-4.8822,-4.884,-4.8857,-4.8873,-4.889,-4.889,-4.889,-4.889,-4.889,-4.889,-4.889,-4.889,-4.889,-4.889,-4.8779,-4.8519,-4.7999,-4.7491,-4.6973,-4.6106,-4.5556,-4.5457,-4.5304,-4.5243,-4.5361,-4.5532,-4.5594,-4.5594,-4.5594,-4.5594,-4.5594,-4.5594,-4.5594]},{"header":{"parameterUnit":"m.s-1","parameterCategory":1,"la1":30.6,"la2":29.2853,"lo1":-89.7004,"lo2":-87.6739,"dy":0.0162,"dx":0.0183,"nx":112,"ny":82,"refTime":"2024-11-22T18:00:00:Z","depth":0,"parameterNumber":3,"parameterNumberName":"V-component_of_WINDS"},"data":[0.0,0.0,0.0,0.0,0.0,0.0,0.0,0.0,0.0,0.0,0.0,0.0,0.0,0.0,0.0,0.0,0.0,0.0,0.0,0.0,0.0,0.0,0.0,0.0,0.0,0.0,0.0,0.0,0.0,0.0,0.0,0.0,0.0,0.0,0.0,0.0,0.0,0.0,0.0,0.0,0.0,0.0,0.0,0.0,0.0,0.0,0.0,0.0,0.0,0.0,0.0,0.0,0.0,0.0,0.0,0.0,0.0,0.0,0.0,0.0,0.0,0.0,0.0,0.0,0.0,0.0,0.0,0.0,0.0,0.0,0.0,0.0,0.0,0.0,0.0,0.0,0.0,0.0,0.0,0.0,0.0,0.0,0.0,0.0,0.0,0.0,0.0,0.0,0.0,0.0,0.0,-0.8646,-0.902,-0.9016,-0.8525,-0.7476,-0.6563,-0.5857,0.0,0.0,0.0,0.0,0.0,0.0,0.0,0.0,0.0,0.0,0.0,0.0,0.0,0.0,0.0,0.0,0.0,0.0,0.0,0.0,0.0,0.0,0.0,0.0,0.0,0.0,0.0,0.0,0.0,0.0,0.0,0.0,0.0,0.0,0.0,0.0,0.0,0.0,0.0,0.0,0.0,0.0,0.0,0.0,0.0,0.0,0.0,0.0,0.0,0.0,0.0,0.0,0.0,0.0,0.0,0.0,0.0,0.0,0.0,0.0,0.0,0.0,0.0,0.0,0.0,0.0,0.0,0.0,0.0,0.0,0.0,0.0,0.0,0.0,0.0,0.0,0.0,0.0,0.0,0.0,0.0,0.0,0.0,0.0,0.0,0.0,0.0,0.0,0.0,0.0,0.0,0.0,0.0,0.0,0.0,0.0,0.0,0.0,0.0,0.0,0.0,0.0,0.0,0.0,-0.7725,-0.9585,-1.0024,-1.0066,-0.9759,-0.9252,-0.8308,-0.6786,0.0,0.0,0.0,0.0,0.0,0.0,0.0,0.0,0.0,0.0,0.0,0.0,0.0,0.0,0.0,0.0,0.0,0.0,0.0,0.0,0.0,0.0,0.0,0.0,0.0,0.0,0.0,0.0,0.0,0.0,0.0,0.0,0.0,0.0,0.0,0.0,0.0,0.0,0.0,0.0,0.0,0.0,0.0,0.0,0.0,0.0,0.0,0.0,0.0,0.0,0.0,0.0,0.0,0.0,0.0,0.0,0.0,0.0,0.0,0.0,0.0,0.0,0.0,0.0,0.0,0.0,0.0,0.0,0.0,0.0,0.0,0.0,0.0,0.0,0.0,0.0,0.0,0.0,0.0,0.0,0.0,0.0,0.0,0.0,0.0,0.0,0.0,0.0,0.0,0.0,0.0,0.0,0.0,0.0,0.0,0.0,0.0,0.0,0.0,0.0,0.0,0.0,0.0,-0.8545,-0.926,-1.0555,-1.0797,-1.073,-1.0275,-0.9715,-0.8816,-0.7413,-0.6017,0.0,0.0,0.0,0.0,0.0,0.0,0.0,0.0,0.0,0.0,0.0,0.0,0.0,0.0,0.0,0.0,0.0,0.0,0.0,0.0,0.0,0.0,0.0,0.0,0.0,0.0,0.0,0.0,0.0,0.0,0.0,0.0,0.0,0.0,0.0,0.0,0.0,0.0,0.0,0.0,0.0,0.0,0.0,0.0,0.0,0.0,0.0,0.0,0.0,0.0,0.0,0.0,0.0,0.0,0.0,0.0,0.0,0.0,0.0,0.0,0.0,0.0,0.0,0.0,0.0,0.0,0.0,0.0,0.0,0.0,0.0,0.0,0.0,0.0,0.0,0.0,0.0,0.0,0.0,0.0,0.0,0.0,0.0,0.0,0.0,0.0,0.0,0.0,0.0,0.0,0.0,0.0,0.0,0.0,0.0,0.0,0.0,0.0,0.0,0.0,0.0,0.0,-1.043,-1.0858,-1.1414,-1.1494,-1.1318,-1.083,-1.0063,-0.9098,-0.7867,-0.6852,0.0,0.0,0.0,0.0,0.0,0.0,0.0,0.0,0.0,0.0,0.0,0.0,0.0,0.0,0.0,0.0,0.0,0.0,0.0,0.0,0.0,0.0,0.0,0.0,0.0,0.0,0.0,0.0,0.0,0.0,0.0,0.0,0.0,0.0,0.0,0.0,0.0,0.0,0.0,0.0,0.0,0.0,0.0,0.0,0.0,0.0,0.0,0.0,0.0,0.0,0.0,0.0,0.0,0.0,0.0,0.0,0.0,0.0,0.0,0.0,0.0,0.0,0.0,0.0,0.0,0.0,0.0,0.0,0.0,0.0,0.0,0.0,0.0,0.0,0.0,0.0,0.0,0.0,0.0,0.0,0.0,0.0,0.0,0.0,0.0,0.0,0.0,0.0,0.0,0.0,0.0,0.0,0.0,0.0,0.0,0.0,0.0,0.0,0.0,0.0,0.0,0.0,-1.0643,-1.1714,-1.2005,-1.2042,-1.2017,-1.1968,-1.0895,-0.9614,-0.8175,-0.6972,0.0,0.0,0.0,0.0,0.0,0.0,0.0,0.0,0.0,0.0,0.0,0.0,0.0,0.0,0.0,0.0,0.0,0.0,0.0,0.0,0.0,0.0,0.0,0.0,0.0,0.0,0.0,0.0,0.0,0.0,0.0,0.0,0.0,0.0,0.0,0.0,0.0,0.0,0.0,0.0,0.0,0.0,0.0,0.0,0.0,0.0,0.0,0.0,0.0,0.0,0.0,0.0,0.0,0.0,0.0,0.0,0.0,0.0,0.0,0.0,0.0,0.0,0.0,0.0,0.0,0.0,0.0,0.0,0.0,0.0,0.0,0.0,0.0,0.0,0.0,0.0,0.0,0.0,0.0,0.0,0.0,0.0,0.0,0.0,0.0,0.0,0.0,0.0,0.0,0.0,0.0,0.0,0.0,0.0,0.0,0.0,0.0,0.0,0.0,0.0,0.0,0.0,-1.0632,-1.1514,0.0,-1.211,-1.211,-1.211,-1.121,-1.0013,-0.8458,0.0,0.0,0.0,0.0,0.0,0.0,0.0,0.0,0.0,0.0,0.0,0.0,0.0,0.0,0.0,0.0,0.0,0.0,0.0,0.0,0.0,0.0,0.0,0.0,0.0,0.0,0.0,0.0,0.0,0.0,0.0,0.0,0.0,0.0,0.0,0.0,0.0,0.0,0.0,0.0,0.0,0.0,0.0,0.0,0.0,0.0,0.0,0.0,0.0,0.0,0.0,0.0,0.0,0.0,0.0,0.0,0.0,0.0,0.0,0.0,0.0,0.0,0.0,0.0,0.0,0.0,0.0,0.0,0.0,0.0,0.0,0.0,0.0,0.0,0.0,0.0,0.0,0.0,0.0,0.0,0.0,0.0,0.0,0.0,0.0,0.0,0.0,0.0,0.0,0.0,0.0,0.0,0.0,0.0,0.0,0.0,0.0,0.0,0.0,0.0,0.0,0.0,-0.9925,-1.0992,-1.1766,0.0,-1.2184,-1.216,-1.216,-1.1251,-1.0072,-0.8599,0.0,0.0,0.0,0.0,0.0,0.0,0.0,0.0,0.0,0.0,0.0,0.0,0.0,0.0,0.0,0.0,0.0,0.0,0.0,0.0,0.0,0.0,0.0,0.0,0.0,0.0,0.0,0.0,0.0,0.0,0.0,0.0,0.0,0.0,0.0,0.0,0.0,0.0,0.0,0.0,0.0,0.0,0.0,0.0,0.0,0.0,0.0,0.0,0.0,0.0,0.0,0.0,0.0,0.0,0.0,0.0,0.0,0.0,0.0,0.0,0.0,0.0,0.0,0.0,0.0,0.0,0.0,0.0,0.0,0.0,0.0,0.0,0.0,0.0,0.0,0.0,0.0,0.0,0.0,0.0,0.0,0.0,0.0,0.0,0.0,0.0,0.0,0.0,0.0,0.0,0.0,0.0,0.0,0.0,0.0,0.0,0.0,0.0,0.0,0.0,0.0,0.0,-1.0404,-1.1777,-1.2652,-1.2505,-1.2382,-1.2308,-1.2308,-1.1079,-0.9796,0.0,0.0,0.0,0.0,0.0,0.0,0.0,0.0,0.0,0.0,0.0,0.0,0.0,0.0,0.0,0.0,0.0,0.0,0.0,0.0,0.0,0.0,0.0,0.0,0.0,0.0,0.0,0.0,0.0,0.0,0.0,0.0,0.0,0.0,0.0,0.0,0.0,0.0,0.0,0.0,0.0,0.0,0.0,0.0,0.0,0.0,0.0,0.0,0.0,0.0,0.0,0.0,0.0,0.0,0.0,0.0,0.0,0.0,0.0,0.0,0.0,0.0,0.0,0.0,0.0,0.0,0.0,0.0,0.0,0.0,0.0,0.0,0.0,0.0,0.0,0.0,0.0,0.0,0.0,0.0,0.0,0.0,0.0,0.0,0.0,0.0,0.0,0.0,0.0,0.0,0.0,0.0,0.0,0.0,0.0,0.0,0.0,0.0,0.0,0.0,0.0,0.0,0.0,-1.0404,-1.1777,-1.2652,-1.2505,-1.2455,-1.2406,-1.2308,-1.1407,-1.0194,-0.8599,0.0,0.0,0.0,0.0,0.0,0.0,0.0,0.0,0.0,0.0,0.0,0.0,0.0,0.0,0.0,0.0,0.0,0.0,0.0,0.0,0.0,0.0,0.0,0.0,0.0,0.0,0.0,0.0,0.0,0.0,0.0,0.0,0.0,0.0,0.0,0.0,0.0,0.0,0.0,0.0,0.0,0.0,0.0,0.0,0.0,0.0,0.0,0.0,0.0,0.0,0.0,0.0,0.0,0.0,0.0,0.0,0.0,0.0,0.0,0.0,0.0,0.0,0.0,0.0,0.0,0.0,0.0,0.0,0.0,0.0,0.0,0.0,0.0,0.0,0.0,0.0,0.0,0.0,0.0,0.0,0.0,0.0,0.0,0.0,0.0,0.0,0.0,0.0,0.0,0.0,0.0,0.0,0.0,0.0,0.0,0.0,0.0,0.0,0.0,0.0,0.0,0.0,-1.0949,-1.2374,-1.331,-1.3238,-1.319,-1.3142,-1.3069,-1.2368,-1.1116,-0.9214,0.0,0.0,0.0,0.0,0.0,0.0,0.0,0.0,0.0,0.0,0.0,0.0,0.0,0.0,0.0,0.0,0.0,0.0,0.0,0.0,0.0,0.0,0.0,0.0,0.0,0.0,0.0,0.0,0.0,0.0,0.0,0.0,0.0,0.0,0.0,0.0,0.0,0.0,0.0,0.0,0.0,0.0,0.0,0.0,0.0,0.0,0.0,0.0,0.0,0.0,0.0,0.0,0.0,0.0,0.0,0.0,0.0,0.0,0.0,0.0,0.0,0.0,0.0,0.0,0.0,0.0,0.0,0.0,0.0,0.0,0.0,0.0,0.0,0.0,0.0,0.0,0.0,0.0,0.0,0.0,0.0,0.0,0.0,0.0,0.0,0.0,0.0,0.0,0.0,0.0,0.0,0.0,0.0,0.0,0.0,0.0,0.0,0.0,0.0,0.0,0.0,0.0,-1.1823,-1.3341,-1.4305,-1.4305,-1.4258,-1.4212,-1.4188,-1.3598,-1.2299,-1.0187,0.0,0.0,0.0,0.0,0.0,0.0,0.0,0.0,0.0,0.0,0.0,0.0,0.0,0.0,0.0,0.0,0.0,0.0,0.0,0.0,0.0,0.0,0.0,0.0,0.0,0.0,0.0,0.0,0.0,0.0,0.0,0.0,0.0,0.0,0.0,0.0,0.0,0.0,0.0,0.0,0.0,0.0,0.0,0.0,0.0,0.0,0.0,0.0,0.0,0.0,0.0,0.0,0.0,0.0,0.0,0.0,0.0,0.0,0.0,0.0,-0.838,0.0,0.0,0.0,0.0,0.0,0.0,0.0,0.0,0.0,0.0,0.0,0.0,0.0,0.0,0.0,0.0,0.0,0.0,0.0,0.0,0.0,0.0,0.0,0.0,0.0,0.0,0.0,0.0,0.0,0.0,0.0,0.0,0.0,0.0,0.0,0.0,0.0,0.0,0.0,0.0,0.0,-1.2336,-1.3584,-1.4305,-1.4305,-1.4305,-1.4258,-1.4188,-1.3666,-1.2531,-1.0598,-0.9788,0.0,0.0,0.0,0.0,0.0,0.0,0.0,0.0,0.0,0.0,0.0,0.0,0.0,0.0,0.0,0.0,0.0,0.0,0.0,0.0,0.0,0.0,0.0,0.0,0.0,0.0,0.0,0.0,0.0,0.0,0.0,0.0,0.0,0.0,0.0,0.0,0.0,0.0,0.0,0.0,0.0,0.0,0.0,0.0,0.0,0.0,0.0,0.0,0.0,0.0,0.0,0.0,0.0,0.0,0.0,0.0,0.0,0.0,0.0,0.0,-0.9354,0.0,0.0,0.0,0.0,0.0,0.0,0.0,0.0,0.0,0.0,0.0,0.0,0.0,0.0,0.0,0.0,0.0,0.0,0.0,0.0,0.0,0.0,0.0,0.0,0.0,0.0,0.0,0.0,0.0,0.0,0.0,0.0,0.0,0.0,0.0,0.0,0.0,0.0,0.0,0.0,-1.2897,-1.4207,-1.5017,-1.5017,-1.5017,-1.4994,-1.4971,-1.4631,-1.3607,-1.1733,-1.1057,0.0,0.0,0.0,0.0,0.0,0.0,0.0,0.0,0.0,0.0,0.0,0.0,0.0,0.0,0.0,0.0,0.0,0.0,0.0,0.0,0.0,0.0,0.0,0.0,0.0,0.0,0.0,0.0,0.0,0.0,0.0,0.0,0.0,0.0,0.0,0.0,0.0,0.0,0.0,0.0,0.0,0.0,0.0,0.0,0.0,0.0,0.0,0.0,0.0,0.0,0.0,0.0,0.0,-1.1465,-1.2119,-1.2624,-1.2709,-1.3139,-1.3711,-1.1541,-1.1074,-1.1721,-1.0527,0.0,0.0,0.0,0.0,0.0,0.0,0.0,0.0,0.0,0.0,0.0,0.0,0.0,0.0,0.0,0.0,0.0,0.0,0.0,0.0,0.0,0.0,0.0,0.0,-1.1527,-1.1366,0.0,0.0,0.0,0.0,0.0,0.0,0.0,0.0,0.0,0.0,0.0,0.0,-1.3607,-1.4938,-1.5804,-1.5804,-1.5804,-1.5804,-1.5804,-1.5625,-1.4783,-1.3062,-1.2521,-1.1293,0.0,0.0,0.0,0.0,0.0,0.0,0.0,0.0,0.0,0.0,0.0,0.0,0.0,0.0,0.0,0.0,0.0,0.0,0.0,0.0,0.0,0.0,0.0,0.0,0.0,0.0,0.0,0.0,0.0,0.0,0.0,0.0,-0.5293,-0.6066,0.0,0.0,0.0,0.0,0.0,0.0,0.0,0.0,0.0,0.0,0.0,0.0,0.0,-1.0314,-1.149,-1.2726,-1.3166,-1.2824,-1.4185,-1.4649,-1.4313,-1.4763,-1.5059,-1.5137,-1.4805,0.0,-1.268,-1.2086,0.0,0.0,0.0,0.0,0.0,0.0,0.0,0.0,0.0,0.0,0.0,0.0,0.0,0.0,0.0,0.0,0.0,0.0,0.0,0.0,0.0,0.0,-1.4014,-1.4947,-1.5197,-1.5067,0.0,-1.184,-0.9617,-0.9943,-0.9579,0.0,0.0,0.0,0.0,0.0,0.0,0.0,-1.4605,-1.5372,-1.5804,-1.5804,-1.5804,-1.5804,-1.5804,-1.5625,-1.5055,-1.3979,-1.338,-1.2356,-1.0745,-0.9578,0.0,0.0,0.0,0.0,0.0,0.0,0.0,0.0,0.0,0.0,0.0,0.0,0.0,0.0,0.0,0.0,0.0,0.0,0.0,0.0,0.0,0.0,0.0,0.0,0.0,0.0,0.0,0.0,0.0,-0.5123,-0.6207,-0.6644,-0.6932,-0.6981,0.0,0.0,0.0,0.0,0.0,0.0,0.0,0.0,0.0,-1.2152,-1.1901,-1.2355,-1.3687,-1.4389,-1.4713,-1.4659,-1.5659,-1.5999,-1.5766,-1.603,-1.6122,-1.6122,-1.6122,-1.5586,-1.4617,-1.3646,-1.2905,-1.2305,0.0,0.0,0.0,0.0,-1.176,-1.18,-1.2047,-1.1989,0.0,-1.1229,0.0,0.0,0.0,0.0,0.0,0.0,0.0,0.0,0.0,0.0,0.0,-1.4712,-1.5153,-1.5369,-1.5156,-1.406,-1.2957,0.0,-1.2185,-1.1791,-1.0774,0.0,0.0,0.0,0.0,-1.4361,-1.5325,-1.6164,-1.6691,-1.6691,-1.6691,-1.6691,-1.6691,-1.6219,-1.566,-1.4925,-1.425,-1.3213,-1.175,-1.0962,-0.9905,0.0,0.0,0.0,0.0,0.0,0.0,0.0,0.0,0.0,0.0,0.0,0.0,0.0,0.0,0.0,0.0,0.0,0.0,0.0,0.0,0.0,0.0,0.0,0.0,0.0,0.0,0.0,0.0,-0.622,-0.7068,-0.7406,-0.7669,-0.7718,0.0,0.0,0.0,0.0,0.0,0.0,-1.1057,-1.096,-1.1931,-1.4308,-1.4064,-1.4564,-1.5904,-1.6177,-1.6449,-1.6684,-1.7152,-1.735,-1.735,-1.735,-1.735,-1.735,-1.7233,-1.6973,-1.6496,-1.5156,-1.4348,-1.3926,-1.3276,-1.3242,-1.3535,-1.3535,-1.3535,-1.3613,-1.4211,-1.4231,-1.3887,-1.3217,0.0,-1.2054,-1.1053,0.0,0.0,0.0,0.0,-1.3822,-1.4469,-1.4513,-1.4526,-1.5102,-1.5704,-1.6165,-1.6165,-1.6647,-1.6584,0.0,-1.4601,-1.4228,-1.2752,0.0,0.0,0.0,0.0,-1.5588,-1.614,-1.6907,-1.7387,-1.7387,-1.7387,-1.7387,-1.7387,-1.6884,-1.636,-1.5906,-1.5096,-1.4069,-1.2802,-1.2125,-1.1062,-0.9595,0.0,0.0,0.0,0.0,0.0,0.0,0.0,0.0,0.0,0.0,0.0,0.0,0.0,0.0,0.0,0.0,0.0,0.0,0.0,0.0,0.0,0.0,0.0,0.0,0.0,0.0,0.0,0.0,0.0,-0.8644,-0.8724,0.0,0.0,0.0,0.0,-0.9727,-1.0329,-1.139,-1.3144,-1.3342,-1.4187,-1.5933,-1.6388,-1.7119,-1.8129,-1.8783,-1.9104,-1.9124,-1.916,-1.916,-1.916,-1.916,-1.916,-1.9141,-1.8695,-1.8266,-1.7812,-1.6535,-1.5703,-1.5312,-1.5273,-1.5245,-1.5293,-1.5293,-1.5293,-1.5293,-1.5332,-1.5303,-1.5312,-1.5245,-1.466,-1.3958,-1.3899,-1.4376,0.0,0.0,-1.5959,-1.6532,-1.7535,-1.7318,-1.7063,-1.8055,-1.8792,-1.9265,-1.9265,-1.9848,-1.9602,0.0,-1.6143,-1.5939,-1.6286,0.0,-1.5826,-1.6283,-1.6451,-1.6715,-1.7243,-1.7363,-1.7387,-1.7387,-1.7387,-1.7387,-1.7387,-1.7266,-1.7096,-1.6924,-1.5877,-1.4955,-1.432,-1.2906,-1.173,-1.0827,-0.963,0.0,0.0,0.0,0.0,0.0,0.0,0.0,0.0,0.0,0.0,0.0,0.0,0.0,0.0,0.0,0.0,0.0,0.0,0.0,0.0,0.0,0.0,0.0,0.0,0.0,0.0,0.0,0.0,-0.9285,-0.9539,0.0,-0.9512,-1.0121,-1.0828,-1.1526,-1.2202,-1.3278,-1.4803,-1.5251,-1.6075,-1.737,-1.7918,-1.844,-1.8954,-1.9182,-1.9297,-1.9297,-1.9297,-1.9297,-1.9297,-1.9297,-1.9297,-1.9277,-1.9121,-1.8965,-1.8769,-1.8027,-1.7148,-1.6239,-1.6239,-1.6239,-1.6239,-1.6239,-1.6239,-1.6239,-1.6239,-1.6239,-1.618,-1.5918,-1.543,-1.4933,-1.4933,-1.5328,-1.5882,-1.6456,-1.6967,-1.7414,-1.7772,-1.8025,-1.8128,-1.8077,-1.8857,-1.9631,-1.9631,-1.9778,-1.9628,-1.869,-1.8437,-1.8146,-1.7267,-1.7243,-1.7171,-1.6667,-1.7171,-1.77,-1.7893,-1.8229,-1.8422,-1.8422,-1.8422,-1.8422,-1.8422,-1.7906,-1.7448,-1.7092,-1.5873,-1.4774,-1.3917,-1.3042,-1.2191,-1.1301,-1.0625,-0.952,0.0,0.0,0.0,0.0,0.0,0.0,0.0,0.0,0.0,0.0,0.0,0.0,0.0,0.0,0.0,0.0,0.0,0.0,0.0,0.0,0.0,0.0,0.0,0.0,0.0,0.0,-0.9178,-0.9753,-1.038,-1.0781,-1.0781,-1.1803,-1.2774,-1.359,-1.4246,-1.5184,-1.6554,-1.6965,-1.7548,-1.8483,-1.8878,-1.9274,-1.9652,-1.9652,-1.9689,-1.9764,-1.9764,-1.9764,-1.9764,-1.9764,-1.9764,-1.9744,-1.957,-1.9492,-1.9473,-1.9043,-1.8325,-1.7545,-1.7252,-1.7135,-1.7135,-1.7135,-1.7135,-1.7135,-1.7135,-1.7038,-1.6894,-1.6696,-1.6425,-1.6238,-1.6437,-1.7011,-1.7644,-1.8004,-1.8341,-1.8501,-1.8249,-1.8533,-1.8752,-1.8312,-1.9219,-2.0106,-1.9863,-2.0136,-2.0317,-2.0106,-1.9849,-1.9365,-1.8295,-1.8625,-1.8782,-1.806,-1.854,-1.9023,-1.8999,-1.9312,-1.9456,-1.929,-1.9263,-1.9191,-1.8999,-1.8156,-1.7478,-1.7124,-1.5571,-1.4335,-1.363,-1.2935,-1.2285,-1.1724,-1.1026,-1.0109,-0.8912,0.0,0.0,0.0,0.0,0.0,0.0,0.0,0.0,0.0,0.0,0.0,0.0,0.0,0.0,0.0,0.0,0.0,0.0,0.0,0.0,0.0,0.0,0.0,-0.8456,-0.9419,-1.014,-1.0167,-1.1361,-1.2155,-1.2203,-1.3278,-1.4496,-1.5825,-1.6311,-1.7096,-1.836,-1.8415,-1.8695,-1.9297,-1.9316,-1.9659,-2.0294,-2.0313,-2.043,-2.0605,-2.0625,-2.0625,-2.0605,-2.0605,-2.0605,-2.0586,-2.0117,-1.9941,-1.9902,-1.9473,-1.9297,-1.9219,-1.8379,-1.8047,-1.8047,-1.8047,-1.8047,-1.8047,-1.8047,-1.7773,-1.7455,-1.7599,-1.7772,-1.7989,-1.8554,-1.9588,-2.0426,-2.0202,-2.014,-1.9976,-1.9252,-1.9085,-1.9119,-1.9119,-2.014,-2.0946,-2.0302,-2.1224,-2.1972,-2.1233,-2.0274,-1.9559,-1.9565,-2.0147,-2.0634,-2.0581,-2.0581,0.0,-2.0591,-2.0586,-2.0418,-1.9892,-1.982,-1.9627,-1.9071,-1.7973,-1.7254,-1.7096,-1.5041,-1.3761,-1.3578,-1.262,-1.211,-1.211,-1.0916,-1.0107,-0.9721,0.0,0.0,0.0,0.0,0.0,0.0,0.0,0.0,0.0,0.0,0.0,0.0,0.0,0.0,0.0,0.0,0.0,0.0,0.0,0.0,0.0,0.0,-0.9633,-0.9633,-1.01,-1.0898,-1.2064,-1.2531,-1.317,-1.4237,-1.5185,-1.5973,-1.6653,-1.7421,-1.8156,-1.8807,-1.8957,-1.9354,-2.0004,-2.0023,-2.0178,-2.0527,-2.0819,-2.078,-2.0391,-2.0819,-2.08,-2.0372,-2.0527,-2.0605,-2.0605,-2.0468,-2.0429,-2.0352,-1.9922,-1.9746,-1.9687,-1.9141,-1.8945,-1.8945,-1.8945,-1.8945,-1.8945,-1.8945,-1.8652,-1.834,-1.8723,-1.9026,-1.9352,-1.9844,-2.0231,-2.0595,-2.0998,-2.1123,-2.1054,-2.0883,-2.1225,-2.1621,-2.1666,-2.1497,-2.1451,-2.1823,-2.1823,-2.1543,-2.093,-2.1057,-2.1158,-2.0925,-2.1069,-2.1067,-2.0682,-2.0581,0.0,-2.061,-2.061,-2.0538,-2.0398,-2.0374,-2.0157,-1.9627,-1.875,-1.7746,-1.6576,-1.5074,-1.389,-1.3057,-1.2419,-1.211,-1.211,-1.1191,-1.0551,0.0,0.0,0.0,0.0,0.0,0.0,0.0,0.0,0.0,0.0,0.0,0.0,0.0,0.0,0.0,0.0,0.0,0.0,0.0,0.0,0.0,0.0,-0.975,-1.0559,-1.1201,-1.1474,-1.2006,-1.3132,-1.393,-1.4816,-1.584,-1.6808,-1.7448,-1.7696,-1.8352,-1.8897,-1.9215,-1.9273,-1.954,-2.0098,-1.9981,-2.0135,-2.0702,-2.0774,-2.083,-2.0973,-2.1225,-2.1109,-2.0701,-2.08,-2.0742,0.0,-2.0605,-2.0605,-2.0586,-2.0293,-2.0195,0.0,0.0,0.0,0.0,0.0,-1.9297,-1.9297,-1.9297,-1.9121,-1.8945,-1.9328,-1.9676,-2.0093,-2.0434,-2.0694,-2.0885,-2.0956,-2.1237,-2.1376,-2.0744,-2.1585,-2.2571,-2.2275,-2.2298,-2.2434,-2.2605,-2.2275,-2.1774,-2.1144,-2.1373,0.0,-2.1861,-2.1789,-2.1644,-2.1332,-2.1284,-2.1284,-2.1284,-2.1284,-2.1187,-2.0976,-2.0952,-2.0735,-2.0177,-1.8751,0.0,0.0,0.0,-1.3331,-1.2535,-1.224,0.0,0.0,0.0,0.0,0.0,0.0,0.0,0.0,-1.0191,-0.983,0.0,0.0,0.0,0.0,0.0,0.0,0.0,0.0,0.0,0.0,0.0,0.0,0.0,0.0,0.0,0.0,-1.0474,-1.1329,-1.2689,-1.3179,-1.3504,-1.3855,-1.5316,-1.6527,-1.7145,-1.8123,-1.8724,-1.8779,-1.9109,-1.939,-1.9645,0.0,0.0,0.0,0.0,-1.9925,-2.0907,-2.0599,-2.0888,-2.1792,-2.1684,-2.1472,-2.1209,-2.121,-2.1016,-2.0683,-2.0625,-2.0605,-2.0605,-2.0605,-2.0605,-2.0527,-1.9764,-1.9434,-1.9434,-1.9434,-1.9434,-1.9434,-1.9434,0.0,0.0,-1.9653,-2.0014,-2.0436,-2.0785,-2.1197,-2.1444,-2.0806,-2.1105,-2.1352,-1.9962,-2.1161,-2.2559,-2.1844,-2.2628,-2.3425,-2.2731,-2.2559,-2.233,-2.1708,-2.1603,-2.1882,-2.2628,-2.245,-2.2248,-2.2294,-2.227,-2.227,-2.2197,-2.2197,-2.2005,-2.1548,0.0,0.0,-2.0614,-1.8487,-1.7062,-1.6857,-1.4324,-1.2643,-1.2257,-1.2239,-1.2422,-1.2827,-1.2827,-1.3029,-1.3424,-1.3424,-1.3626,-1.3956,-1.1263,-1.0822,0.0,0.0,0.0,0.0,0.0,0.0,0.0,0.0,0.0,0.0,0.0,0.0,0.0,0.0,0.0,-1.0376,-1.1633,-1.2429,-1.2156,-1.4212,-1.5752,-1.5872,-1.561,-1.6221,-1.8179,-1.8592,-1.8852,-1.9164,-1.9256,-1.9469,-1.9824,-1.9823,-2.0068,-2.0673,-2.057,-2.0693,-2.1138,-2.1587,-2.1667,-2.1358,0.0,0.0,-2.1453,-2.1265,-2.1151,-2.1094,-2.0723,-2.0605,-2.0605,-2.0605,-2.0605,-2.0586,-2.0429,-2.0351,-2.0351,-2.0351,-2.0351,-2.0351,-2.0351,-2.0098,-1.9844,-2.0291,-2.0624,-2.1157,-2.2235,-2.26,0.0,-2.2527,-2.26,-2.249,-2.1582,-2.212,-2.2893,-2.2747,-2.2453,-2.2157,-2.2009,-2.1972,-2.1977,-2.2063,-2.2568,-2.3121,-2.3499,-2.3005,-2.2591,-2.2831,-2.2855,-2.2678,-2.2246,-2.2197,-2.2149,-2.2053,-2.2053,-2.1599,-2.0426,-1.9328,-1.8078,-1.6684,-1.4754,-1.3488,-1.3075,-1.3057,-1.3268,-1.3672,-1.3672,-1.3892,-1.4286,-1.4286,-1.4469,-1.4836,-1.3626,-1.3351,0.0,0.0,0.0,0.0,0.0,0.0,0.0,0.0,0.0,0.0,0.0,-0.8484,-0.8888,0.0,-1.0637,-1.1142,-1.1916,-1.2707,-1.3455,-1.4516,-1.5465,-1.6055,-1.6614,-1.7488,-1.8866,-1.8999,-1.9091,-1.9292,-1.9292,-1.939,-1.9587,-1.9777,-2.0057,-2.0383,-2.055,-2.0908,-2.149,-2.1722,-2.1945,-2.2159,-2.25,-2.2427,-2.2,-2.189,-2.16,-2.119,-2.0996,-2.0781,-2.0605,-2.0605,-2.0605,-2.0605,-2.0605,-2.0605,-2.0605,-2.0605,-2.0605,-2.0605,-2.0605,-2.0468,-2.0273,-2.0527,-2.0718,-2.0977,-2.1618,-2.1794,-2.1869,-2.2285,-2.2697,-2.2809,-2.2021,-2.2675,-2.3342,-2.2585,-2.2397,-2.2397,-2.2397,-2.2096,-2.1845,-2.1988,-2.202,-2.2302,-2.3231,-2.2737,-2.2457,-2.3275,-2.3408,-2.3312,-2.3047,-2.3023,-2.2839,-2.2427,-2.2192,-2.1591,-2.0484,-1.9145,-1.7606,-1.5911,-1.4978,-1.4323,-1.3919,-1.3901,-1.4084,-1.4488,-1.4488,-1.4689,-1.5093,-1.5093,-1.5404,-1.5991,-1.5588,-1.5263,0.0,0.0,0.0,0.0,0.0,0.0,0.0,0.0,-0.7597,-0.7747,-0.8737,-0.9706,-1.0001,-1.0671,-1.1329,-1.1899,-1.2285,-1.3121,-1.4822,-1.5015,-1.527,-1.6075,-1.7531,-1.8715,-1.9256,-1.9292,-1.9292,-1.9292,-1.9292,-1.9329,-1.9461,-1.9824,-2.0081,-2.0196,-2.0539,-2.1096,-2.1863,-2.1714,-2.2144,-2.3057,-2.2925,-2.2751,-2.2637,-2.2559,-2.209,-2.1307,-2.1132,-2.0898,-2.0605,-2.0605,-2.0605,-2.0605,-2.0605,-2.0605,-2.0605,-2.0605,-2.0605,-2.0605,-2.0605,-2.0605,-2.0605,-2.0605,-2.0605,-2.0644,-2.0799,-2.0818,-2.0972,-2.1603,-2.2285,-2.2585,-2.1756,-2.2601,-2.3305,-2.1907,-2.2172,-2.2734,-2.2585,-2.2021,-2.1603,-2.1756,-2.128,-2.128,-2.2734,-2.2472,-2.2468,-2.3746,-2.3671,-2.3489,-2.3561,-2.3427,-2.3102,-2.2434,-2.2037,-2.142,-2.045,-1.8684,-1.7017,-1.5528,-1.5386,-1.5166,-1.4763,-1.4744,-1.4964,-1.5441,-1.546,-1.568,-1.6156,-1.6156,-1.6505,-1.7147,-1.7147,-1.6798,-0.3802,-0.4032,-0.4381,-0.467,-0.5591,-0.6572,0.0,0.0,-0.8879,-0.9127,-0.9944,-1.0634,-1.0706,-1.1315,-1.1913,-1.2198,-1.3689,-1.4748,-1.4596,-1.6646,-1.8003,-1.7458,-1.7571,-1.8152,-1.9177,-1.9292,-1.9292,-1.9292,-1.9292,-1.9537,-2.0068,-2.0311,-2.0655,-2.1194,-2.1427,-2.171,-2.2076,-2.2233,-2.2473,-2.2838,-2.3013,-2.3062,-2.3003,-2.2633,-2.2246,-2.1777,-2.0977,-2.0644,-2.0605,-2.0605,-2.0605,-2.0605,-2.0605,-2.0605,-2.0605,-2.0605,-2.0605,-2.0605,-2.0605,-2.0605,-2.0605,-2.0605,-2.0605,-2.0722,-2.1471,-2.168,-2.168,-2.1756,-2.1869,-2.1756,-2.0934,-2.1395,-2.1832,-2.0934,-2.1357,-2.1718,-2.1011,-2.0799,-2.0934,-2.1642,-2.1718,-2.1945,-2.2846,-2.292,-2.3201,-2.4266,-2.327,-2.2479,-2.2708,-2.2126,-2.162,-2.1516,-2.1472,-2.1011,-1.9895,-1.8537,-1.7465,-1.6725,-1.6376,-1.5991,-1.557,-1.5551,-1.5918,-1.6688,-1.6707,-1.7073,-1.7825,-1.7825,-1.7899,-1.799,-1.799,-1.7898,-0.4193,-0.438,0.0,0.0,-0.6165,-0.7131,-0.7814,-0.8849,-0.9749,-0.9989,-1.0689,-1.1296,-1.14,-1.1984,-1.2462,0.0,-1.3829,-1.4765,-1.4741,-1.6464,-1.7632,-1.751,-1.7916,-1.8503,-1.9216,-1.9292,-1.9292,-1.9292,-1.9531,-1.9751,-1.9997,-2.0563,-2.0943,-2.1194,-2.1706,-2.2017,-2.2106,-2.2441,-2.2706,-2.2794,-2.3013,-2.3101,-2.3081,-2.2906,-2.2519,-2.1855,-2.123,-2.0957,-2.0977,-2.123,-2.1368,-2.1368,-2.1368,-2.1368,-2.131,-2.0801,-2.0605,-2.0605,-2.0605,-2.0605,-2.0605,-2.0605,-2.0605,-2.0644,-2.1011,-2.1088,-2.1203,-2.168,-2.1794,-2.178,-2.1681,-2.1694,-2.1647,-2.1076,-2.1016,-2.1011,-2.0683,-2.0605,-2.0722,-2.1049,-2.1088,-2.1357,-2.2172,-2.1907,-2.2071,-2.3401,-2.3089,-2.2696,-2.2822,-2.2548,-2.2006,-2.115,-2.0419,-1.9696,-1.8985,-1.8357,-1.788,-1.7623,-1.7423,-1.7258,-1.711,-1.711,-1.7257,-1.7569,-1.7623,-1.7752,-1.8081,-1.8081,-1.821,-1.8467,-1.8467,-1.8595,-0.4518,0.0,0.0,-0.5998,-0.7024,-0.808,-0.863,-0.9634,-1.0526,-1.0695,-1.1287,-1.184,-1.1984,-1.2368,-1.2717,-1.2878,-1.4012,-1.4889,-1.5025,-1.6462,-1.7464,-1.7415,-1.8077,-1.8705,-1.9109,-1.9237,-1.9292,-1.9292,-1.9655,-1.993,-2.004,-2.0741,-2.1206,-2.136,-2.1806,-2.2087,-2.2264,-2.2574,-2.275,-2.2882,-2.3013,-2.3101,-2.3081,-2.2984,-2.2637,-2.2031,-2.1602,-2.1366,-2.1445,-2.1758,-2.1894,-2.1894,-2.1894,-2.1894,-2.1797,-2.1212,-2.0977,-2.0977,-2.0977,-2.0977,-2.0957,-2.0781,-2.0742,-2.0723,-2.0644,-2.0605,-2.0741,-2.1422,-2.1617,-2.1698,-2.1985,-2.1963,-2.1664,-2.1154,-2.0898,-2.0762,-2.0625,-2.0605,-2.0605,-2.0605,-2.0703,-2.0898,-2.1377,-2.1092,-2.1112,-2.2193,-2.236,-2.2435,-2.266,-2.2435,-2.182,-2.0664,-1.9698,-1.9068,-1.8769,-1.8451,-1.8284,-1.8284,-1.8155,-1.8081,-1.8081,-1.8081,-1.8136,-1.8246,-1.8284,-1.8339,-1.8411,-1.8411,-1.8595,-1.8871,-1.8999,-1.9201,0.0,0.0,-0.6981,-0.713,-0.8506,-0.981,-0.9844,-1.0597,-1.1268,-1.1268,-1.1824,-1.2291,-1.2291,-1.2305,-1.2505,-1.3106,-1.4623,-1.567,-1.5415,-1.7259,-1.8341,-1.7488,-1.7828,-1.8302,0.0,-1.9072,-1.9292,-1.9292,-1.9655,-2.0058,-2.0484,-2.0888,-2.1379,-2.2069,-2.182,-2.2043,-2.275,-2.253,-2.2662,-2.3101,-2.3101,-2.3101,-2.3081,-2.2715,-2.2519,-2.248,-2.2051,-2.1875,-2.1875,-2.1875,-2.1894,-2.1894,-2.1894,-2.1894,-2.1875,-2.1855,-2.1855,-2.1855,-2.1855,-2.1855,-2.1777,-2.1307,-2.1171,-2.1093,-2.0742,-2.0605,-2.0703,-2.1094,-2.1211,-2.1211,-2.123,-2.1584,-2.1681,-2.082,-2.0898,-2.1054,-2.0703,-2.0605,-2.0605,-2.0605,-2.0918,-2.1074,-2.0722,-2.0918,-2.1074,-2.0703,-2.0683,-2.0934,-2.1718,-2.0972,-2.0255,-1.9962,-1.9726,-1.9569,-1.9569,-1.9003,-1.8687,-1.8687,-1.8339,-1.8081,-1.8081,-1.8081,-1.8264,-1.8687,-1.8687,-1.8889,-1.9256,-1.9256,-1.9274,-1.9292,-1.9655,-1.9857,0.0,0.0,-0.6205,-0.733,-0.8275,-0.9207,-1.0207,-1.0911,-1.1389,-1.1536,-1.1715,-1.1867,-1.2011,-1.2171,-1.2438,-1.2878,-1.4198,-1.5258,-1.5377,-1.6797,-1.7441,-1.6415,-1.7576,0.0,0.0,0.0,0.0,-1.9274,-1.9655,-2.0058,-2.0503,-2.0888,-2.1353,-2.182,-2.2043,-2.222,-2.2328,-2.2706,-2.2882,-2.2882,-2.3057,-2.3101,-2.3081,-2.2652,-2.2519,-2.25,-2.2363,-2.2305,-2.2324,-2.2598,-2.2715,-2.2715,-2.2715,-2.2715,-2.2715,-2.2715,-2.2715,-2.2637,-2.209,-2.1894,-2.1855,-2.1719,-2.1424,-2.1171,-2.1055,-2.1016,-2.1035,-2.1151,-2.1405,-2.1738,-2.2012,-2.1992,-2.1875,-2.1855,-2.1758,-2.1621,-2.1465,-2.1445,-2.1348,-2.1074,-2.1093,-2.1151,-2.1035,-2.1093,-2.1249,-2.1426,-2.0977,-2.0644,-2.0799,-2.0372,-1.9942,-1.9724,-1.9508,-1.939,-1.939,-1.9222,-1.9109,-1.9109,-1.8981,-1.8907,-1.8907,-1.8907,-1.8962,-1.9091,-1.9109,-1.9311,-1.9674,-1.9674,-1.9861,-2.0118,-2.0246,-2.0278,-0.502,-0.5716,-0.6669,-0.779,-0.8744,-0.968,-1.0633,-1.1132,-1.1415,-1.1536,-1.1488,-1.1493,-1.1668,-1.1784,-1.1997,-1.2543,-1.3723,-1.4761,-1.516,-1.6197,-1.6661,-1.5927,-1.7115,-1.7802,0.0,0.0,0.0,-1.9274,-1.9824,-2.0204,-2.0503,-2.1034,-2.15,-2.182,-2.2132,-2.2264,-2.222,-2.275,-2.2969,-2.2925,-2.3057,-2.3101,-2.3081,-2.2808,-2.2691,-2.2691,-2.2691,-2.2691,-2.2711,-2.2984,-2.3101,-2.3101,-2.3101,-2.3101,-2.3101,-2.3101,-2.3101,-2.3023,-2.2519,-2.2344,-2.2305,-2.2168,-2.1816,-2.1465,-2.1465,-2.1327,-2.1249,-2.1561,-2.1894,-2.2168,-2.2441,-2.2422,-2.2324,-2.2305,-2.2207,-2.207,-2.1914,-2.1894,-2.1797,-2.1523,-2.1541,-2.16,-2.1444,-2.1465,-2.1562,-2.1836,-2.1366,-2.0836,-2.0636,-2.0377,-2.0136,-1.9953,-1.9832,-1.9732,-1.9732,-1.9732,-1.9677,-1.9531,-1.9659,-1.9677,-1.9531,-1.9659,-1.9732,-1.9732,-1.9732,-1.9879,-2.0095,-2.0095,-2.0223,-2.0479,-2.0668,-2.0723,-0.5436,-0.6821,-0.8198,-0.849,-0.9807,-1.1043,-1.1068,-1.1254,-1.1353,-1.1295,-1.1144,-1.1096,0.0,0.0,-1.1276,-1.2144,-1.3271,-1.4247,-1.4838,-1.5568,-1.6087,0.0,0.0,0.0,0.0,0.0,0.0,-1.9311,0.0,-2.0503,-2.0539,-2.1229,-2.1802,-2.2087,-2.2106,-2.2176,-2.2441,-2.2662,-2.2925,-2.3101,-2.3101,-2.3101,-2.3101,-2.3101,-2.3101,-2.3101,-2.3101,-2.3101,-2.3101,-2.3101,-2.3101,-2.3101,-2.3101,-2.3101,-2.3101,-2.3101,-2.3101,-2.3101,-2.3101,-2.3101,-2.3023,-2.2676,-2.2266,-2.1914,-2.1914,-2.1621,-2.1424,-2.2285,-2.2519,-2.2539,-2.2539,-2.2789,-2.2906,-2.2148,-2.2246,-2.2441,-2.2031,-2.1953,-2.1953,-2.1914,-2.2246,-2.2383,-2.1992,-2.1934,-2.1953,-2.1953,-2.1726,-2.1457,-2.1233,-2.0964,-2.0713,-2.0521,-2.0521,-2.0521,-2.0521,-2.0521,-2.0356,-1.9948,-2.0319,-2.0314,-1.993,-2.0278,-2.0521,-2.0521,-2.0521,-2.0521,-2.0558,-2.0558,-2.0558,-2.0594,-2.0961,-2.1145,-0.7078,-0.7459,-0.7805,-0.9207,-0.9873,-1.0368,-1.0968,-1.0997,-1.0887,-1.0934,-1.0594,-1.0329,0.0,0.0,0.0,-1.1913,-1.2801,0.0,-1.5107,-1.5427,0.0,-1.6222,0.0,-1.7655,-1.7544,-1.8533,0.0,0.0,-1.993,-2.0296,-2.0924,-2.1145,-2.1507,-2.2087,-2.2106,-2.2264,-2.2706,-2.2925,-2.3057,-2.3101,-2.3101,-2.3101,-2.3101,-2.3101,-2.3101,-2.3101,-2.3101,-2.3101,-2.3101,-2.3101,-2.3101,-2.3101,-2.3101,-2.3101,-2.3101,-2.3101,-2.3101,-2.3101,-2.3101,-2.3101,-2.3081,-2.2964,-2.2652,-2.2363,-2.2363,-2.2266,-2.2185,-2.2441,-2.2734,-2.2945,-2.2945,-2.3023,-2.3042,-2.2828,-2.2847,-2.2906,-2.2808,-2.2769,-2.2734,-2.2422,-2.2441,-2.248,-2.2363,-2.2617,-2.2769,-2.2769,-2.2423,-2.1935,-2.1267,-2.0964,-2.0713,-2.0521,-2.0521,-2.0521,-2.0521,-2.0521,-2.0484,-2.0332,-2.0424,-2.0424,-2.0332,-2.0466,-2.0521,-2.0521,-2.0521,-2.0668,-2.0961,-2.0961,-2.1126,-2.1394,-2.1485,-2.1522,-0.7477,-0.8061,-0.8627,-0.9658,-1.018,-1.0499,-1.0707,-1.0623,-1.0475,-1.0309,-0.9952,0.0,0.0,0.0,0.0,0.0,0.0,0.0,-1.4816,-1.4889,-1.5253,0.0,-1.6693,0.0,-1.7946,-1.8215,-1.893,0.0,-2.0241,-2.0466,-2.1071,-2.1273,-2.1537,-2.1909,-2.2061,-2.2328,-2.2794,-2.2925,-2.3013,-2.3101,-2.3101,-2.3101,-2.3101,-2.3101,-2.3101,-2.3101,0.0,-2.3101,-2.3101,-2.3101,-2.3101,-2.3101,-2.3101,-2.3101,-2.3101,-2.3101,-2.3101,-2.3101,-2.3101,-2.3101,-2.3101,-2.3101,-2.2808,-2.2539,-2.2734,-2.2656,-2.2559,-2.2691,-2.2906,-2.3101,-2.3101,-2.3101,-2.3101,-2.3101,-2.3101,-2.3101,-2.3101,-2.3101,-2.3023,-2.2789,-2.275,-2.275,-2.275,-2.2945,-2.3057,-2.2969,-2.2662,-2.2227,-2.1669,-2.1355,-2.1139,-2.1053,-2.101,-2.101,-2.101,-2.101,-2.0936,-2.0796,-2.0943,-2.0961,-2.0778,-2.0918,-2.101,-2.101,-2.101,-2.1163,-2.1339,-2.1339,-2.1467,-2.1687,-2.1687,-2.1463,-0.7446,-0.8711,-0.9916,-1.003,-1.0571,-1.0936,-1.0406,-1.0238,-1.0074,-0.9618,0.0,-0.9244,-0.9522,-0.9833,-1.0261,-1.0889,0.0,-1.3078,-1.4209,-1.4185,-1.4699,-1.6494,-1.6087,-1.6474,-1.8545,-1.8012,-1.854,-2.0923,-2.0796,-2.0778,-2.1163,-2.1485,-2.1731,-2.1731,-2.2061,-2.2416,-2.2794,-2.2838,-2.2925,-2.3101,-2.3101,-2.3101,-2.3101,-2.3101,-2.3101,-2.3101,0.0,0.0,-2.3101,-2.3101,-2.3101,-2.3101,-2.3101,-2.3101,-2.3101,-2.3101,-2.3101,-2.3101,-2.3101,-2.3101,-2.3101,-2.3101,-2.2847,-2.2613,-2.2984,-2.2847,-2.2676,-2.2984,-2.3101,-2.3101,-2.3101,-2.3101,-2.3101,-2.3101,-2.3101,-2.3101,-2.3101,-2.3101,-2.3101,-2.3101,-2.3101,-2.3101,-2.3101,-2.3101,-2.3013,-2.2838,-2.253,-2.2309,-2.2106,-2.1883,-2.1687,-2.1687,-2.1687,-2.1687,-2.1687,-2.1687,-2.154,-2.1218,-2.1485,-2.1522,-2.12,-2.1504,-2.1687,-2.1687,-2.1687,-2.1687,-2.1687,-2.1687,-2.1687,-2.1687,-2.1687,-2.1266,-0.904,-0.9658,-1.0067,-1.0743,-1.0838,-1.0707,-1.037,-0.9961,0.0,0.0,0.0,-0.8871,-0.8951,-0.9392,0.0,-1.0862,0.0,0.0,0.0,0.0,-1.4461,0.0,0.0,0.0,0.0,0.0,0.0,0.0,0.0,-2.1181,-2.1559,-2.165,-2.1776,-2.2017,-2.2441,-2.2706,-2.2794,-2.2969,-2.3057,-2.3101,-2.3101,-2.3101,-2.3101,-2.3101,-2.3101,-2.3101,-2.3101,0.0,-2.3101,-2.3101,-2.3101,-2.3101,-2.3101,-2.3101,-2.3101,-2.3101,-2.3101,-2.3101,-2.3101,-2.3101,-2.3101,-2.3101,-2.3042,-2.3003,-2.3081,-2.3042,-2.3003,-2.3081,-2.3101,-2.3101,-2.3101,-2.3101,-2.3101,-2.3101,-2.3101,-2.3101,-2.3101,-2.3101,-2.3101,-2.3101,-2.3101,-2.3101,-2.3101,-2.2969,-2.2838,-2.2794,-2.2441,-2.2132,-2.2106,-2.1883,-2.1687,-2.1687,-2.1687,-2.1687,-2.1687,-2.1687,-2.1668,-2.1595,-2.165,-2.1668,-2.1595,-2.165,-2.1687,-2.1687,-2.1687,-2.1687,-2.1687,-2.1687,-2.1687,-2.1687,-2.1687,-2.1597,-0.9545,-1.0218,-1.0631,-1.0993,-1.0912,-1.0551,-1.0009,0.0,0.0,0.0,-0.8673,-0.8641,-0.8778,0.0,0.0,0.0,0.0,0.0,0.0,0.0,0.0,0.0,0.0,0.0,0.0,0.0,0.0,0.0,0.0,-2.0962,-2.1687,-2.1687,-2.1553,-2.1177,-2.1998,-2.2485,-2.2574,-2.2838,-2.3013,-2.3101,-2.3101,-2.3101,-2.3101,-2.3101,-2.3101,-2.3101,-2.3101,0.0,-2.3101,-2.3101,-2.3101,-2.3101,-2.3101,-2.3101,-2.3101,-2.3101,-2.3101,-2.3101,-2.3101,-2.3101,-2.3101,-2.3101,-2.3101,-2.3101,-2.3101,-2.3101,-2.3101,-2.3101,-2.3101,-2.3101,-2.3101,-2.3101,-2.3101,-2.3101,-2.3101,-2.3101,-2.3101,-2.3101,-2.3101,-2.3101,-2.3101,-2.3101,-2.3101,-2.2925,-2.275,-2.2618,-2.2309,-2.2061,-2.1928,-2.1776,-2.1687,-2.1687,-2.1687,-2.1687,-2.1687,-2.1687,-2.1687,-2.1687,-2.1687,-2.1687,-2.1687,-2.1687,-2.1687,-2.1687,-2.1687,-2.1687,-2.1687,-2.1687,-2.1687,-2.1687,-2.1687,-2.1463,-0.9679,-1.0481,-1.1105,-1.1105,-1.0791,-1.0346,-0.9672,-0.9246,0.0,0.0,-0.8421,-0.8501,-0.8752,0.0,0.0,0.0,0.0,0.0,0.0,0.0,0.0,0.0,0.0,0.0,0.0,0.0,0.0,0.0,0.0,0.0,-2.1642,-2.1508,-2.1177,-2.0709,-2.1597,-2.222,-2.2485,-2.2706,-2.2882,-2.3101,-2.3101,-2.3101,-2.3101,-2.3101,-2.3101,-2.3101,-2.3101,0.0,0.0,-2.3101,-2.3101,-2.3101,-2.3101,-2.3101,-2.3101,-2.3101,-2.3101,-2.3101,-2.3101,-2.3101,-2.3101,-2.3101,-2.3101,-2.3101,-2.3101,-2.3101,-2.3101,-2.3101,-2.3101,-2.3101,-2.3101,-2.3101,-2.3101,-2.3101,-2.3101,-2.3101,-2.3101,-2.3101,-2.3101,-2.3101,-2.3101,-2.3101,-2.3101,-2.2882,-2.2618,-2.2441,-2.2176,-2.1909,-2.1731,-2.1687,-2.1687,-2.1687,-2.1687,-2.1687,-2.1687,-2.1687,-2.1687,-2.1687,-2.1687,-2.1687,-2.1687,-2.1687,-2.1687,-2.1687,-2.1687,-2.1687,-2.1687,-2.1687,-2.1687,-2.1687,-2.1687,-2.1311,-0.9637,-1.0481,-1.1105,-1.1105,-1.0527,-0.9901,-0.9588,0.0,0.0,-0.8444,-0.8501,-0.8633,-0.8778,-0.8844,0.0,0.0,0.0,0.0,0.0,0.0,0.0,0.0,0.0,0.0,0.0,0.0,0.0,0.0,0.0,0.0,-2.1687,-2.0907,-2.0889,-2.1909,-2.2061,-2.2309,-2.275,-2.2794,-2.2882,-2.3101,-2.3101,-2.3101,-2.3101,-2.3101,-2.3101,-2.3101,-2.3101,0.0,0.0,-2.3101,-2.3101,-2.3101,-2.3101,-2.3101,-2.3101,-2.3101,-2.3101,-2.3101,-2.3101,-2.3101,-2.3101,-2.3101,-2.3101,-2.3101,-2.3101,-2.3101,-2.3101,-2.3101,-2.3101,-2.3101,-2.3101,-2.3101,-2.3101,-2.3101,-2.3101,-2.3101,-2.3101,-2.3101,-2.3101,-2.3101,-2.3101,-2.3101,-2.3101,-2.275,-2.2441,-2.2397,-2.1998,-2.1731,-2.1687,-2.1687,-2.1687,-2.1687,-2.1687,-2.1687,-2.1687,-2.1687,-2.1687,-2.1687,-2.1687,-2.1687,-2.1687,-2.1687,-2.1687,-2.1687,-2.1687,-2.1687,-2.1687,-2.1687,-2.1687,-2.1687,-2.1687,-2.1642,-1.0003,-1.0738,-1.1105,-1.1105,-1.0491,-0.9841,-0.9576,0.0,-0.8573,-0.8432,-0.8501,-0.8633,-0.8778,-0.8804,-0.8884,0.0,0.0,0.0,0.0,0.0,0.0,0.0,0.0,0.0,0.0,0.0,0.0,0.0,0.0,0.0,-2.1642,-2.1374,-2.1087,-2.1042,-2.1731,-2.222,-2.2574,-2.2706,-2.2882,-2.3101,-2.3101,-2.3101,-2.3101,-2.3101,-2.3101,-2.3101,-2.3101,0.0,0.0,-2.3101,-2.3101,-2.3101,-2.3101,-2.3101,-2.3101,-2.3101,-2.3101,-2.3101,-2.3101,-2.3101,-2.3101,-2.3101,-2.3101,-2.3101,-2.3101,-2.3101,-2.3101,-2.3101,-2.3101,-2.3101,-2.3101,-2.3101,-2.3101,-2.3101,-2.3101,-2.3101,-2.3101,-2.3101,-2.3101,-2.3101,-2.3101,-2.3057,-2.2925,-2.2618,-2.2353,-2.222,-2.1909,-2.1687,-2.1687,-2.1687,-2.1687,-2.1687,-2.1687,-2.1687,-2.1687,-2.1687,-2.1687,-2.1687,-2.1687,-2.1687,-2.1687,-2.1687,-2.1687,-2.1687,-2.1687,-2.1687,-2.1687,-2.1687,-2.1687,-2.1687,-2.1132,-2.0862,-1.0229,-1.0912,-1.1093,-1.1009,-1.037,-0.9721,0.0,-0.8947,-0.8501,-0.8419,-0.8527,-0.8685,-0.8778,-0.8804,-0.8804,0.0,0.0,0.0,0.0,0.0,0.0,0.0,0.0,0.0,0.0,0.0,0.0,0.0,0.0,0.0,0.0,-2.1553,-2.1419,-2.0709,-2.1642,-2.2176,-2.2397,-2.2662,-2.2882,-2.3101,-2.3101,-2.3101,-2.3101,-2.3101,-2.3101,-2.3101,0.0,0.0,0.0,-2.3101,-2.3101,-2.3101,-2.3101,-2.3101,-2.3101,-2.3101,-2.3101,-2.3101,-2.3101,-2.3101,-2.3101,-2.3101,-2.3101,-2.3101,-2.3101,-2.3101,-2.3101,-2.3101,-2.3101,-2.3101,-2.3101,-2.3101,-2.3101,-2.3101,-2.3101,-2.3101,-2.3101,-2.3101,-2.3101,-2.3101,-2.3101,-2.3057,-2.2838,-2.2574,-2.2309,-2.215,-2.1865,-2.1687,-2.1687,-2.1687,-2.1687,-2.1687,-2.1687,-2.1687,-2.1687,-2.1687,-2.1687,-2.1687,-2.1687,-2.1687,-2.1687,-2.1687,-2.1687,-2.1687,-2.1687,-2.1687,-2.1687,-2.1687,-2.1687,-2.1687,-2.0754,-1.9985,-1.0219,-1.0912,-1.1045,-1.0755,-1.0106,-0.9444,0.0,-0.8751,-0.8395,-0.8395,-0.8619,-0.8804,-0.8804,-0.8804,-0.8804,-0.8804,0.0,0.0,0.0,0.0,0.0,0.0,0.0,0.0,0.0,0.0,0.0,0.0,0.0,0.0,0.0,-2.1177,-2.1687,-2.1687,-2.1954,-2.2176,-2.2397,-2.2662,-2.2882,-2.3101,-2.3101,-2.3101,-2.3101,-2.3101,-2.3101,0.0,0.0,0.0,0.0,-2.3101,-2.3101,-2.3101,-2.3101,-2.3101,-2.3101,-2.3101,-2.3101,-2.3101,-2.3101,-2.3101,-2.3101,-2.3101,-2.3101,-2.3101,-2.3101,-2.3101,-2.3101,-2.3101,-2.3101,-2.3101,-2.3101,-2.3101,-2.3101,-2.3101,-2.3101,-2.3101,-2.3101,-2.3101,-2.3101,-2.3101,-2.3101,-2.3057,-2.2838,-2.2574,-2.2309,-2.215,-2.1865,-2.1687,-2.1687,-2.1687,-2.1687,-2.1687,-2.1687,-2.1687,-2.1687,-2.1687,-2.1687,-2.1687,-2.1687,-2.1687,-2.1687,-2.1687,-2.1687,-2.1687,-2.1687,-2.1687,-2.1687,-2.1687,-2.1687,-2.1687,-2.0754,-1.9255,-0.9183,-0.9805,-0.9985,-0.9901,-0.942,-0.8969,-0.9033,-0.8699,-0.8421,-0.8527,-0.8659,-0.8804,-0.8804,-0.8804,-0.8938,-0.9339,-0.9486,0.0,0.0,0.0,0.0,0.0,0.0,0.0,0.0,0.0,0.0,0.0,0.0,0.0,0.0,-2.1177,-2.1776,-2.1972,-2.2061,-2.2264,-2.2662,-2.275,-2.2882,-2.3101,-2.3101,-2.3101,-2.3101,-2.3101,0.0,0.0,0.0,0.0,0.0,-2.3101,-2.3101,-2.3101,-2.3101,-2.3101,-2.3101,-2.3101,-2.3101,-2.3101,-2.3101,-2.3101,-2.3101,-2.3101,-2.3101,-2.3101,-2.3101,-2.3101,-2.3101,-2.3101,-2.3101,-2.3101,-2.3101,-2.3101,-2.3101,-2.3101,-2.3101,-2.3101,-2.3101,-2.3101,-2.3057,-2.2925,-2.2882,-2.275,-2.2397,-2.222,-2.2087,-2.1865,-2.1731,-2.1687,-2.1687,-2.1687,-2.1687,-2.1687,-2.1687,-2.1687,-2.1687,-2.1687,-2.1687,-2.1687,-2.1687,-2.1687,-2.1687,-2.1687,-2.1687,-2.1687,-2.1687,-2.1687,-2.1687,-2.1687,-2.0997,-1.9712,-1.9438,-1.8195,0.0,-0.93,-0.9492,-0.9384,-0.9096,-0.8832,-0.8837,-0.8671,-0.8501,-0.858,-0.8712,-0.8804,-0.8804,-0.8804,-0.8925,-0.9299,-0.9446,0.0,0.0,0.0,0.0,0.0,0.0,0.0,0.0,0.0,0.0,0.0,0.0,0.0,0.0,-2.1177,-2.182,-2.2087,-2.2106,-2.2283,-2.2662,-2.275,-2.2882,-2.3101,-2.3101,-2.3101,-2.3101,-2.3101,0.0,0.0,0.0,0.0,0.0,-2.3101,-2.3101,-2.3101,-2.3101,-2.3101,-2.3101,-2.3101,-2.3101,-2.3101,-2.3101,-2.3101,-2.3101,-2.3101,-2.3101,-2.3101,-2.3101,-2.3101,-2.3101,-2.3101,-2.3101,-2.3101,-2.3101,-2.3101,-2.3101,-2.3101,-2.3101,-2.3101,-2.3013,-2.2969,-2.2925,-2.2706,-2.2662,-2.253,-2.2132,-2.2106,-2.2017,-2.1731,-2.1687,-2.1687,-2.1687,-2.1687,-2.1687,-2.1687,-2.1687,-2.1687,-2.1687,-2.1687,-2.1687,-2.1687,-2.1687,-2.1687,-2.1687,-2.1687,-2.1687,-2.1687,-2.1687,-2.1687,-2.1687,-2.1687,-2.0682,-1.8796,-1.8796,-1.7684,0.0,-0.9143,-0.9287,-0.9047,-0.8955,-0.8854,-0.8646,-0.8586,0.0,-0.8606,-0.8712,-0.8818,-0.8831,-0.8818,-0.8831,-0.8884,-0.9098,0.0,0.0,0.0,0.0,0.0,0.0,0.0,0.0,0.0,0.0,0.0,0.0,0.0,0.0,-2.1132,-2.1776,-2.1954,-2.2061,-2.222,-2.2441,-2.2662,-2.2882,-2.3101,-2.3101,-2.3101,-2.3101,-2.3101,0.0,0.0,0.0,0.0,0.0,-2.3101,-2.3101,-2.3101,-2.3101,-2.3101,-2.3101,-2.3101,-2.3101,-2.3101,-2.3101,-2.3101,-2.3101,-2.3101,-2.3101,-2.3101,-2.3101,-2.3101,-2.3101,-2.3101,-2.3101,-2.3101,-2.3101,-2.3101,-2.3101,-2.3101,-2.3101,-2.3013,-2.2838,-2.2794,-2.2706,-2.2441,-2.2397,-2.2309,-2.2106,-2.2043,-2.2017,-2.1731,-2.1687,-2.1687,-2.1687,-2.1687,-2.1687,-2.1687,-2.1687,-2.1687,-2.1687,-2.1687,-2.1687,-2.1687,-2.1687,-2.1687,-2.1687,-2.1687,-2.1687,-2.1687,-2.1687,-2.1687,-2.1687,-2.1687,-2.0682,-1.8796,-1.8796,-1.7638,-0.7472,0.0,-0.7776,-0.7974,-0.8067,-0.8134,0.0,-0.8526,-0.8633,-0.8725,0.0,-0.8871,-0.9071,-0.8924,-0.9031,-0.9699,-0.983,0.0,0.0,0.0,0.0,0.0,0.0,0.0,0.0,0.0,0.0,0.0,0.0,0.0,0.0,-2.0772,-2.1419,-2.0754,-2.1642,-2.2328,-2.2706,-2.2574,-2.2706,-2.3101,-2.3101,-2.3101,-2.3101,-2.3101,0.0,0.0,0.0,0.0,-2.3101,-2.3101,-2.3101,-2.3101,-2.3101,-2.3101,-2.3101,-2.3101,-2.3101,-2.3101,-2.3101,-2.3101,-2.3101,-2.3101,-2.3101,-2.3101,-2.3101,-2.3101,-2.3101,-2.3101,-2.3101,-2.3101,-2.3101,-2.3101,-2.3101,-2.3101,-2.2969,-2.2838,-2.2794,-2.2618,-2.2441,-2.222,-2.2176,-2.2087,-2.182,-2.1776,-2.1776,-2.1687,-2.1687,-2.1687,-2.1687,-2.1687,-2.1687,-2.1687,-2.1687,-2.1687,-2.1687,-2.1687,-2.1687,-2.1687,-2.1687,-2.1687,-2.1687,-2.1687,-2.1687,-2.1687,-2.1687,-2.1687,-2.1687,-2.1687,-2.0682,-1.8796,-1.8796,-1.7684,-0.6929,-0.7204,-0.7474,-0.7609,-0.7871,-0.8138,-0.8343,0.0,0.0,0.0,0.0,-0.8858,-0.8991,-0.8991,0.0,-0.9604,-1.006,0.0,0.0,0.0,0.0,0.0,0.0,0.0,0.0,0.0,0.0,0.0,0.0,0.0,0.0,-2.0031,-2.0348,-2.0303,-2.1024,-2.1802,-2.2618,-2.2574,-2.275,-2.3101,-2.3101,-2.3101,-2.3101,-2.3101,-2.3101,0.0,0.0,0.0,-2.3101,-2.3101,-2.3101,-2.3101,-2.3101,-2.3101,-2.3101,-2.3101,-2.3101,-2.3101,-2.3101,-2.3101,-2.3101,-2.3101,-2.3101,-2.3101,-2.3101,-2.3101,-2.3101,-2.3101,-2.3101,-2.3101,-2.3101,-2.3013,-2.2969,-2.2969,-2.2794,-2.2574,-2.2485,-2.2353,-2.2176,-2.1954,-2.1909,-2.1865,-2.1731,-2.1687,-2.1687,-2.1687,-2.1851,-2.1961,-2.1961,-2.2126,-2.2181,-2.198,-2.2144,-2.2089,-2.1723,-2.1851,-2.1888,-2.1705,-2.1687,-2.1687,-2.1687,-2.1687,-2.1508,-2.1087,-2.0591,-2.0591,-2.1042,-2.0574,-1.9849,-1.8796,-1.8334,-1.7171,-0.6795,-0.7295,-0.7721,-0.7622,-0.7973,-0.837,-0.8408,0.0,0.0,0.0,0.0,0.0,0.0,0.0,0.0,0.0,0.0,0.0,0.0,0.0,0.0,0.0,0.0,0.0,0.0,0.0,0.0,0.0,0.0,0.0,0.0,-1.9239,-1.9209,-2.0031,-2.0421,-2.1186,-2.2397,-2.2662,-2.2882,-2.3101,-2.3101,-2.3101,-2.3101,-2.3101,-2.3101,0.0,0.0,0.0,-2.3101,-2.3101,-2.3101,-2.3101,-2.3101,-2.3101,-2.3101,-2.3101,-2.3101,-2.3101,-2.3101,-2.3101,-2.3101,-2.3101,-2.3101,-2.3101,-2.3101,-2.3101,-2.3101,-2.3101,-2.3101,-2.3101,-2.3057,-2.2925,-2.2794,-2.275,-2.2587,-2.2384,-2.215,-2.2099,-2.2047,-2.175,-2.1742,-2.1778,-2.1778,-2.1833,-2.187,-2.187,-2.2163,-2.2382,-2.2382,-2.2693,-2.2767,-2.2419,-2.2693,-2.262,-2.1943,-2.2126,-2.208,-2.1617,-2.1634,-2.1642,-2.1508,-2.1508,-2.1042,-2.0076,-1.9255,-1.9193,-2.0076,-1.9209,-1.8703,-1.8519,-1.7638,-1.648,-0.731,-0.7706,-0.7873,-0.7583,-0.7883,-0.828,-0.8515,0.0,0.0,0.0,0.0,0.0,0.0,0.0,0.0,0.0,0.0,0.0,0.0,0.0,0.0,0.0,0.0,0.0,0.0,0.0,0.0,0.0,0.0,0.0,0.0,-1.8888,-1.8888,-1.9026,-2.0059,-2.1186,-2.2397,-2.2662,-2.2882,-2.3101,-2.3101,-2.3101,-2.3101,-2.3101,-2.3101,0.0,0.0,-2.3101,-2.3101,-2.3101,-2.3101,-2.3101,-2.3101,-2.3101,-2.3101,-2.3101,-2.3101,-2.3101,-2.3101,-2.3101,-2.3101,-2.3101,-2.3101,-2.3101,-2.3101,-2.3101,-2.3101,-2.3101,-2.3101,-2.3057,-2.2882,-2.2838,-2.275,-2.253,-2.2572,-2.2561,-2.218,-2.2187,-2.218,-2.176,-2.1961,-2.2181,-2.2181,-2.2492,-2.273,-2.273,-2.2767,-2.2821,-2.2821,-2.2858,-2.2876,-2.2821,-2.2876,-2.2858,-2.273,-2.2455,-2.1933,-2.1078,-2.1464,-2.1311,-2.0529,-2.0529,-2.0076,-1.9055,-1.8888,-1.8888,-1.9026,-1.8888,-1.8226,-1.7217,-1.703,-1.6292,-0.7153,-0.7565,-0.7941,-0.788,-0.8267,-0.8619,-0.8606,0.0,0.0,0.0,0.0,0.0,0.0,0.0,0.0,0.0,0.0,0.0,0.0,0.0,0.0,0.0,0.0,0.0,0.0,0.0,0.0,0.0,0.0,0.0,0.0,0.0,-1.7451,-1.7963,-1.9147,-2.0331,-2.1427,-2.2334,-2.2882,-2.3101,-2.3101,-2.3101,-2.3101,-2.3101,-2.3101,-2.3101,0.0,-2.3101,-2.3101,-2.3101,-2.3101,-2.3101,-2.3101,-2.3101,-2.3101,-2.3101,-2.3101,-2.3101,-2.3101,-2.3101,-2.3101,-2.3101,-2.3101,-2.3101,-2.3101,-2.3101,-2.3101,-2.2969,-2.2925,-2.2984,-2.3063,-2.2961,-2.2749,-2.2839,-2.2861,-2.2751,-2.2566,-2.2584,-2.2565,-2.2382,-2.2492,-2.262,-2.262,-2.2785,-2.2913,-2.2913,-2.3096,-2.3224,-2.3224,-2.3474,-2.3529,-2.3242,-2.2876,-2.2483,-2.206,-2.15,-2.126,-2.1316,-2.0588,-2.0167,-2.0303,-1.9255,-1.8473,-1.801,-1.7451,-1.7451,-1.7963,-1.7451,-1.7077,-1.6889,-1.6372,-1.5676,-0.7085,-0.7537,-0.8023,-0.829,-0.8646,-0.8946,-0.8934,0.0,0.0,0.0,0.0,0.0,0.0,0.0,0.0,0.0,0.0,0.0,0.0,0.0,0.0,0.0,0.0,0.0,0.0,0.0,0.0,0.0,0.0,0.0,0.0,0.0,-1.6258,-1.7279,-1.8411,-1.9542,-2.0692,-2.2024,-2.2838,-2.3013,-2.3101,-2.3101,-2.3101,-2.3101,-2.3101,-2.3101,-2.3101,-2.3101,-2.3101,-2.3101,-2.3101,-2.3101,-2.3101,-2.3101,-2.3101,-2.3101,-2.3101,-2.3101,-2.3101,-2.3101,-2.3101,-2.3101,-2.3101,-2.312,-2.3174,-2.3149,-2.3144,-2.3019,-2.2968,-2.298,-2.319,-2.3051,-2.288,-2.3168,-2.3128,-2.3023,-2.2931,-2.2986,-2.3023,-2.2931,-2.2986,-2.3041,-2.3041,-2.3114,-2.3187,-2.3187,-2.3444,-2.3645,-2.3645,-2.3754,-2.3678,-2.3322,-2.2596,-2.1845,-2.1141,-2.0392,-2.0313,-2.1197,-1.9823,-1.9267,-1.9777,-1.8347,-1.7417,-1.7165,-1.6416,-1.6375,-1.7065,-1.6306,-1.6123,-1.6466,-1.5724,-1.5118,-0.7676,-0.7999,-0.8264,-0.8671,-0.8778,0.0,-0.9804,-0.9806,0.0,0.0,0.0,0.0,0.0,0.0,0.0,0.0,0.0,0.0,0.0,0.0,0.0,0.0,0.0,0.0,0.0,0.0,0.0,0.0,0.0,0.0,0.0,0.0,0.0,-1.7279,-1.8288,-1.9513,-2.0962,-2.1935,-2.2574,-2.2838,-2.3013,-2.3101,-2.3101,-2.3101,-2.3101,-2.3101,-2.3101,-2.3101,-2.3101,-2.3101,-2.3101,-2.3101,-2.3101,-2.3101,-2.3101,-2.3101,-2.3101,-2.3101,-2.3101,-2.3101,-2.3101,-2.3101,-2.3101,-2.3115,-2.3345,-2.3371,-2.3422,-2.3594,-2.3429,-2.3168,-2.2841,-2.3,-2.3205,-2.2989,-2.3187,-2.3352,-2.2986,-2.3187,-2.3352,-2.2968,-2.3206,-2.3444,-2.3444,-2.3822,-2.411,-2.411,-2.4146,-2.4165,-2.4165,-2.327,-2.2619,-2.2584,-2.1641,-2.082,-2.0436,-1.9486,-1.9184,-1.9781,-1.9701,-1.9231,-1.8415,-1.8218,-1.7676,-1.6746,-1.6697,-1.6563,-1.6392,-1.6295,-1.5906,-1.5226,-1.5178,-1.4831,-0.7264,-0.7832,-0.8365,-0.851,0.0,0.0,0.0,0.0,0.0,0.0,0.0,0.0,0.0,0.0,0.0,0.0,0.0,0.0,0.0,0.0,0.0,0.0,0.0,0.0,0.0,0.0,0.0,0.0,0.0,0.0,0.0,0.0,0.0,-1.6339,-1.7326,-1.8427,-1.9604,-2.0872,-2.1872,-2.2574,-2.2925,-2.3101,-2.3101,-2.3101,-2.3101,-2.3101,-2.3101,-2.3101,-2.3101,-2.3101,-2.3101,-2.3101,-2.3101,-2.3101,-2.3101,-2.2969,-2.2925,-2.2882,-2.2706,-2.2834,-2.3044,-2.3044,-2.3236,-2.3484,-2.3564,-2.3602,-2.3548,-2.3486,-2.357,-2.3624,-2.3504,-2.3436,-2.3478,-2.3639,-2.3804,-2.3877,-2.373,-2.3822,-2.3877,-2.373,-2.3822,-2.3914,-2.3914,-2.411,-2.4202,-2.4202,-2.4202,-2.4202,-2.4202,-2.3188,-2.2485,-2.2485,-2.0928,-1.9494,-1.8692,-1.8278,-1.8133,-1.8366,-1.8046,-1.7931,-1.8192,-1.7598,-1.71,-1.67,-1.6526,-1.638,-1.6321,-1.6086,-1.5652,-1.5083,-1.5083,-1.4783,-0.7161,-0.7772,-0.8415,0.0,0.0,0.0,0.0,0.0,0.0,0.0,0.0,0.0,0.0,0.0,0.0,0.0,0.0,0.0,0.0,0.0,0.0,0.0,0.0,0.0,0.0,0.0,0.0,0.0,0.0,0.0,0.0,0.0,0.0,0.0,-1.6763,-1.7824,-1.8872,-2.0268,-2.1516,-2.253,-2.2925,-2.3101,-2.3101,-2.3101,-2.3101,-2.3101,-2.3101,-2.3101,-2.3101,-2.3101,-2.3101,-2.3101,-2.3101,-2.3057,-2.3013,-2.2838,-2.275,-2.2681,-2.2637,-2.2775,-2.3021,-2.3172,-2.3418,-2.3701,-2.3721,-2.3758,-2.3749,-2.3643,-2.377,-2.3973,-2.3973,-2.3876,-2.3804,-2.4128,-2.4202,-2.4202,-2.4202,-2.4202,-2.4202,-2.4202,-2.4202,-2.4202,-2.4202,-2.4202,-2.4202,-2.4202,-2.3904,-2.3637,-2.3637,-2.2367,-2.1336,-2.0979,-1.9591,-1.8408,-1.7687,-1.7582,-1.7582,-1.7582,-1.7208,-1.7286,-1.7994,-1.7336,-1.6981,-1.6981,-1.6794,-1.6697,-1.6603,-1.6255,-1.5765,-1.521,-1.5162,-1.4823,-0.7513,-0.7933,-0.8469,0.0,0.0,0.0,0.0,0.0,0.0,0.0,0.0,0.0,0.0,0.0,0.0,0.0,0.0,0.0,0.0,0.0,0.0,0.0,0.0,0.0,0.0,0.0,0.0,0.0,0.0,0.0,0.0,0.0,0.0,0.0,-1.6763,-1.787,-1.9085,-2.0359,-2.1606,-2.2794,-2.3013,-2.3101,-2.3101,-2.3101,-2.3101,-2.3101,-2.3101,-2.3101,-2.3101,-2.3101,-2.3101,-2.3101,-2.3101,-2.2969,-2.2794,-2.2794,-2.2618,-2.2454,-2.287,-2.3002,-2.3078,-2.3531,-2.3682,-2.3711,-2.3868,-2.3884,-2.3929,-2.4141,-2.4202,-2.4202,-2.4202,-2.4202,-2.4202,-2.4202,-2.4202,-2.4202,-2.4202,-2.4202,-2.4202,-2.4202,-2.4202,-2.4202,-2.4202,-2.4202,-2.4202,-2.4202,-2.3238,-2.2485,-2.2467,-2.057,-1.876,-1.7687,-1.7582,-1.7582,-1.7582,-1.7582,-1.7582,-1.7582,-1.7582,-1.7582,-1.7582,-1.7582,-1.7582,-1.7582,-1.7582,-1.7435,-1.7206,-1.6846,-1.6291,-1.5503,-1.5244,-1.4802,-0.7513,-0.7933,0.0,0.0,0.0,0.0,0.0,0.0,0.0,0.0,0.0,0.0,0.0,0.0,0.0,0.0,0.0,0.0,0.0,0.0,0.0,0.0,0.0,0.0,0.0,0.0,0.0,0.0,0.0,0.0,0.0,0.0,0.0,0.0,-1.6103,-1.7077,-1.8872,-1.9588,-2.0827,-2.253,-2.2925,-2.3101,-2.3101,-2.3101,-2.3101,-2.3101,-2.3101,-2.3101,-2.3101,-2.3101,-2.3101,-2.3101,-2.2925,-2.2838,-2.275,-2.2441,-2.2452,-2.2625,-2.251,-2.2889,-2.3389,-2.3518,-2.3758,-2.4066,-2.4079,-2.4116,-2.4104,-2.4165,-2.4202,-2.4202,-2.4202,-2.4202,-2.4202,-2.4202,-2.4202,-2.4202,-2.4202,-2.4202,-2.4202,-2.4202,-2.4202,-2.4202,-2.4202,-2.3538,-2.2987,-2.2987,-2.2064,-2.1081,-2.0261,-1.9591,-1.876,-1.7687,-1.7582,-1.7582,-1.7582,-1.7582,-1.7582,-1.7582,-1.7582,-1.7582,-1.7582,-1.7582,-1.7582,-1.7582,-1.7434,-1.7183,-1.6846,-1.6547,-1.6099,-1.547,-1.542,-1.5084,-0.7785,0.0,0.0,0.0,0.0,0.0,0.0,0.0,0.0,0.0,0.0,0.0,0.0,0.0,0.0,0.0,0.0,0.0,0.0,0.0,0.0,0.0,0.0,0.0,0.0,0.0,0.0,0.0,0.0,0.0,0.0,0.0,0.0,0.0,-1.5784,-1.6749,-1.8796,-1.9147,-2.0331,-2.2264,-2.275,-2.2969,-2.2969,-2.3057,-2.3101,-2.3101,-2.3101,-2.3101,-2.3101,-2.3101,-2.3101,-2.312,-2.3075,-2.2955,-2.284,-2.267,-2.2648,-2.2778,-2.2805,-2.3078,-2.3517,-2.373,-2.395,-2.4202,-2.4202,-2.4202,-2.4202,-2.4202,-2.4202,-2.4202,-2.4202,-2.4202,-2.4202,-2.4202,-2.4202,-2.4202,-2.4202,-2.4202,-2.4202,-2.4202,-2.3836,-2.3538,-2.3538,-2.2619,-2.1861,-2.1861,-2.0928,-1.9797,-1.8722,-1.8565,-1.8304,-1.7687,-1.7582,-1.7582,-1.7582,-1.7582,-1.7582,-1.7582,-1.7582,-1.7582,-1.7582,-1.7582,-1.7582,-1.7582,-1.746,-1.7224,-1.6912,-1.6588,-1.6189,-1.5667,-1.5552,-1.5265,0.0,0.0,0.0,0.0,0.0,0.0,0.0,0.0,0.0,0.0,0.0,0.0,0.0,0.0,0.0,0.0,0.0,0.0,0.0,0.0,0.0,0.0,0.0,0.0,0.0,0.0,0.0,0.0,0.0,0.0,0.0,0.0,0.0,-1.5784,-1.5784,-1.6749,-1.8796,-1.901,-2.0104,0.0,-2.2574,-2.2794,-2.2794,-2.3013,-2.3101,-2.3101,-2.3101,-2.3101,-2.3101,-2.3101,-2.312,-2.3154,-2.33,-2.3202,-2.307,-2.3187,-2.312,-2.3023,-2.337,-2.3517,-2.3608,-2.4073,-2.4202,-2.4202,-2.4202,-2.4202,-2.4202,-2.4202,-2.4202,-2.4202,-2.4202,-2.4202,-2.4202,-2.4202,-2.4202,-2.4202,-2.4202,-2.4202,-2.4152,-2.4053,-2.3188,-2.2467,-2.2367,-2.1454,-2.0723,-2.0621,-1.9694,-1.8708,-1.774,-1.7582,-1.7582,-1.7582,-1.7582,-1.7582,-1.7582,-1.7582,-1.7582,-1.7582,-1.7582,-1.7582,-1.7582,-1.7582,-1.7582,-1.7582,-1.7582,-1.7424,-1.7173,-1.6842,-1.6398,-1.5912,-1.564,-1.539,0.0,0.0,0.0,0.0,0.0,0.0,0.0,0.0,0.0,0.0,0.0,0.0,0.0,0.0,0.0,0.0,0.0,0.0,0.0,0.0,0.0,0.0,0.0,0.0,0.0,0.0,0.0,0.0,0.0,0.0,0.0,0.0,0.0,-1.5784,-1.5784,-1.6749,-1.8796,-1.901,-2.0104,0.0,-2.2574,-2.2794,-2.2794,-2.3013,-2.3101,-2.3101,-2.3101,-2.3101,-2.3101,-2.3101,-2.3207,-2.3339,-2.3145,-2.3164,-2.3206,-2.3064,-2.3143,-2.3389,-2.3462,-2.3749,-2.4091,-2.4183,-2.4202,-2.4202,-2.4202,-2.4202,-2.4202,-2.4202,-2.4202,-2.4202,-2.4202,-2.4202,-2.4202,-2.4202,-2.4202,-2.4202,-2.4202,-2.4202,-2.3954,-2.3038,-2.2686,-2.2215,-2.1404,-2.0313,-1.928,-1.8461,-1.8094,-1.7845,-1.7635,-1.7582,-1.7582,-1.7582,-1.7582,-1.7582,-1.7582,-1.7582,-1.7582,-1.7582,-1.7582,-1.7582,-1.7582,-1.7582,-1.7582,-1.7582,-1.7384,-1.712,-1.6789,-1.6524,-1.6234,-1.5919,-1.5866,-1.5668,0.0,0.0,0.0,0.0,0.0,0.0,0.0,0.0,0.0,0.0,0.0,0.0,0.0,0.0,0.0,0.0,0.0,0.0,0.0,0.0,0.0,0.0,0.0,0.0,0.0,0.0,0.0,0.0,0.0,0.0,0.0,-1.5784,-1.5784,-1.5784,-1.5784,-1.6749,-1.8796,-1.8918,-1.9923,-2.1909,-2.2397,-2.2706,-2.2969,-2.3057,-2.3101,-2.3101,-2.3101,-2.3101,-2.312,-2.3315,-2.3396,-2.3422,-2.3548,-2.3617,-2.3605,-2.3551,-2.3657,-2.384,-2.384,-2.3969,-2.4202,-2.4202,-2.4202,-2.4202,-2.4202,-2.4202,-2.4202,-2.4202,-2.4202,-2.4202,-2.4202,-2.3805,-2.3388,-2.3388,-2.3805,-2.4053,-2.3488,-2.3786,-2.3687,-2.2064,-2.1709,-2.1387,-2.0261,-1.9176,-1.8251,-1.7687,-1.7582,-1.7582,-1.7582,-1.7582,-1.7582,-1.7582,-1.7582,-1.7582,-1.7582,-1.7582,-1.7582,-1.7582,-1.7582,-1.7582,-1.7582,-1.7582,-1.7529,-1.7437,-1.7279,-1.6961,-1.6524,-1.6377,-1.6164,-1.5885,-1.5885,-1.5813,0.0,0.0,0.0,0.0,0.0,0.0,0.0,0.0,0.0,0.0,0.0,0.0,0.0,0.0,0.0,0.0,0.0,0.0,0.0,0.0,0.0,0.0,0.0,0.0,0.0,0.0,0.0,0.0,0.0,0.0,-1.5784,-1.5784,-1.5784,-1.5784,-1.5784,-1.6749,-1.8796,-1.8796,-1.9803,-2.1687,-2.2176,-2.2662,-2.3101,-2.3179,-2.3159,-2.3101,-2.3257,-2.3276,-2.3237,-2.3666,-2.3719,-2.3626,-2.4051,-2.4133,-2.3985,-2.4122,-2.4202,-2.4202,-2.4202,-2.4202,-2.4202,-2.4202,-2.4202,-2.4202,-2.4202,-2.4202,-2.4202,-2.4202,-2.4053,-2.3904,-2.3904,-2.3088,-2.2215,-2.2215,-2.292,-2.3388,-2.2417,-2.3138,-2.3238,-2.103,-2.0467,-2.0004,-1.9072,-1.8199,-1.7582,-1.7582,-1.7582,-1.7582,-1.7582,-1.7582,-1.7582,-1.7582,-1.7582,-1.7582,-1.7582,-1.7582,-1.7582,-1.7582,-1.7582,-1.7582,-1.7582,-1.7582,-1.7424,-1.712,-1.712,-1.6855,-1.6324,-1.6271,-1.6111,-1.5885,-1.5885,-1.5861,0.0,0.0,0.0,0.0,0.0,0.0,0.0,0.0,0.0,0.0,0.0,0.0,0.0,0.0,0.0,0.0,0.0,0.0,0.0,0.0,0.0,0.0,0.0,0.0,0.0,0.0,0.0,0.0,0.0,0.0,-1.5784,-1.5784,-1.5784,-1.5784,-1.5784,-1.6749,-1.8796,-1.8796,-1.9803,-2.1687,-2.2176,-2.2662,-2.3101,-2.3535,-2.3496,-2.314,-2.3881,-2.4043,-2.373,-2.3912,-2.4039,-2.4165,-2.3991,-2.4059,-2.4177,-2.4183,-2.4202,-2.4202,-2.4202,-2.4202,-2.4202,-2.4202,-2.4202,-2.4202,-2.4202,-2.4202,-2.4202,-2.4202,-2.3488,-2.2736,-2.2736,-2.1912,-2.1097,-2.1097,-2.1234,-2.1285,-2.1148,-2.1962,-2.2064,-1.9849,-1.867,-1.7989,-1.7845,-1.7687,-1.7582,-1.7582,-1.7582,-1.7582,-1.7582,-1.7582,-1.7582,-1.7582,-1.7582,-1.7582,-1.7582,-1.7582,-1.7582,-1.7582,-1.7582,-1.7582,-1.7582,-1.7582,-1.7318,-1.6789,-1.6789,-1.663,-1.6324,-1.6057,-1.5939,-1.5885,-1.5885,-1.5765,0.0,0.0,0.0,0.0,0.0,0.0,0.0,0.0,0.0,0.0,0.0,0.0,0.0,0.0,0.0,0.0,0.0,0.0,0.0,0.0,0.0,0.0,0.0,0.0,0.0,0.0,0.0,0.0,0.0,-1.5784,-1.5784,-1.5784,-1.5784,-1.5784,-1.5784,-1.6749,-1.8796,-1.8796,-1.9894,-2.2087,-2.2309,-2.2662,-2.312,-2.346,-2.3538,-2.3535,-2.416,-2.4224,-2.3932,-2.4236,-2.4288,-2.4114,-2.4175,-2.4233,-2.4202,-2.4202,-2.4202,-2.4202,-2.4202,-2.4202,-2.4202,-2.4202,-2.4202,-2.4202,-2.4202,-2.4202,-2.4053,-2.3438,-2.2887,-2.2367,-2.1759,-2.0775,-1.9952,-1.9952,-1.9952,-1.9797,-1.9176,-2.0416,-2.1132,-1.9487,-1.8356,-1.7582,-1.7582,-1.7582,-1.7582,-1.7582,-1.7582,-1.7582,-1.7582,-1.7582,-1.7582,-1.7582,-1.7582,-1.7582,-1.7582,-1.7582,-1.7582,-1.7582,-1.7582,-1.7582,-1.7582,-1.7477,-1.716,-1.6736,-1.6683,-1.6471,-1.6057,-1.5951,-1.5885,-1.5885,-1.5885,-1.5825,0.0,0.0,0.0,0.0,0.0,0.0,0.0,0.0,0.0,0.0,0.0,0.0,0.0,0.0,0.0,0.0,0.0,0.0,0.0,0.0,0.0,0.0,0.0,0.0,0.0,0.0,0.0,0.0,0.0,-1.5784,-1.5784,-1.5784,-1.5784,-1.5784,-1.5784,-1.6749,-1.8796,-1.9301,-2.0484,-2.2309,-2.2397,-2.2574,-2.2925,-2.3262,-2.3532,-2.3783,-2.421,-2.4264,-2.4096,-2.4488,-2.4438,-2.407,-2.4319,-2.435,-2.4202,-2.4202,-2.4202,-2.4202,-2.4202,-2.4202,-2.4202,-2.4202,-2.4202,-2.4152,-2.3854,-2.3786,-2.3538,-2.2417,-2.1861,-2.1505,-2.0672,-1.9642,-1.876,-1.876,-1.876,-1.8655,-1.8094,-1.9086,-1.9797,-1.8968,-1.8146,-1.7582,-1.7582,-1.7582,-1.7582,-1.7582,-1.7582,-1.7582,-1.7582,-1.7582,-1.7582,-1.7582,-1.7582,-1.7582,-1.7582,-1.7582,-1.7582,-1.7582,-1.7582,-1.7582,-1.7582,-1.7331,-1.7067,-1.6736,-1.663,-1.6365,-1.5885,-1.5885,-1.5885,-1.5885,-1.5885,-1.5849,0.0,0.0,0.0,0.0,0.0,0.0,0.0,0.0,0.0,0.0,0.0,0.0,0.0,0.0,0.0,0.0,0.0,0.0,0.0,0.0,0.0,0.0,0.0,0.0,0.0,0.0,0.0,0.0,0.0,-1.5784,-1.5784,-1.5784,-1.5784,-1.5784,-1.5784,-1.6749,-1.8796,-2.0637,-2.1731,-2.2106,-2.2309,-2.2397,-2.246,-2.3102,-2.3503,-2.3719,-2.4155,-2.4297,-2.4316,-2.444,-2.4492,-2.4461,-2.4282,-2.4202,-2.4202,-2.4202,-2.4202,-2.4202,-2.4202,-2.4202,-2.4202,-2.4202,-2.4202,-2.4003,-2.2937,-2.2585,-2.2367,-2.1302,-2.021,-1.9383,-1.928,-1.8513,-1.7687,-1.7687,-1.7687,-1.795,-1.8916,-1.8408,-1.774,-1.7687,-1.7635,-1.7582,-1.7582,-1.7582,-1.7582,-1.7582,-1.7582,-1.7582,-1.7582,-1.7582,-1.7582,-1.7582,-1.7582,-1.7582,-1.7582,-1.7582,-1.7582,-1.7582,-1.7582,-1.7582,-1.7582,-1.7331,-1.7067,-1.6736,-1.6471,-1.6164,-1.5885,-1.5885,-1.5885,-1.5885,-1.5885,-1.5753,0.0,0.0,0.0,0.0,0.0,0.0,0.0,0.0,0.0,0.0,0.0,0.0,0.0,0.0,0.0,0.0,0.0,0.0,0.0,0.0,0.0,0.0,0.0,0.0,0.0,0.0,0.0,0.0,0.0,0.0,-1.5784,-1.5784,-1.5784,-1.5784,-1.5784,-1.6749,-1.8796,-2.0727,-2.182,-2.2106,-2.2176,-2.2264,-2.2397,-2.2504,-2.2761,-2.3064,-2.3029,-2.3531,-2.4422,-2.4473,-2.443,-2.4301,-2.4251,-2.4202,-2.4202,-2.4202,-2.4202,-2.4202,-2.4202,-2.4202,-2.4202,-2.4202,-2.3687,-2.3038,-2.2619,-2.2013,-2.1251,-2.0107,-1.9487,-1.902,-1.8356,-1.7884,-1.7582,-1.7582,-1.7582,-1.7687,-1.8094,-1.7898,-1.7582,-1.7582,-1.7582,-1.7582,-1.7582,-1.7582,-1.7582,-1.7582,-1.7582,-1.7582,-1.7582,-1.7582,-1.7582,-1.7582,-1.7582,-1.7582,-1.7582,-1.7582,-1.7582,-1.7582,-1.7582,-1.7529,-1.7331,-1.7054,-1.6736,-1.643,-1.6164,-1.6004,-1.5885,-1.5885,-1.5885,-1.5885,-1.5716,-1.5596,-0.6239,0.0,0.0,0.0,0.0,0.0,0.0,0.0,0.0,0.0,0.0,0.0,0.0,0.0,0.0,0.0,0.0,0.0,0.0,0.0,0.0,0.0,0.0,0.0,0.0,0.0,0.0,0.0,0.0,0.0,-1.5784,-1.5784,-1.5784,-1.5784,-1.6116,-1.7124,-1.8796,-2.0393,-2.1463,-2.1972,-2.2061,-2.2132,-2.2176,-2.2132,-2.2266,-2.2565,-2.2364,-2.3036,-2.4177,-2.4177,-2.4171,-2.4202,-2.4202,-2.4202,-2.4202,-2.4202,-2.4202,-2.4202,-2.4202,-2.4202,-2.4202,-2.4202,-2.3438,-2.2417,-2.2064,-2.1183,-2.0107,-1.8968,-1.8655,-1.8513,-1.7793,-1.7582,-1.7582,-1.7582,-1.7582,-1.7582,-1.7582,-1.7582,-1.7582,-1.7582,-1.7582,-1.7582,-1.7582,-1.7582,-1.7582,-1.7582,-1.7582,-1.7582,-1.7582,-1.7582,-1.7582,-1.7582,-1.7582,-1.7582,-1.7582,-1.7582,-1.7582,-1.7582,-1.7582,-1.7477,-1.7226,-1.6895,-1.6577,-1.6324,-1.6057,-1.5885,-1.5885,-1.5885,-1.5849,-1.5753,-1.5584,-1.5403,0.0,0.0,0.0,0.0,0.0,0.0,0.0,0.0,0.0,0.0,0.0,0.0,0.0,0.0,0.0,0.0,0.0,0.0,0.0,0.0,0.0,0.0,0.0,0.0,0.0,0.0,0.0,0.0,0.0,-1.5771,-1.5784,-1.5784,-1.5784,-1.5784,-1.6763,-1.7777,-1.8796,-1.9786,-2.0754,-2.1687,-2.1954,-2.1954,-2.1687,-2.1972,-2.2176,-2.2254,-2.2254,-2.2712,-2.3462,-2.348,-2.3785,-2.4183,-2.4202,-2.4202,-2.4202,-2.4202,-2.4202,-2.4202,-2.4202,-2.4202,-2.4202,-2.4152,-2.3388,-2.2266,-2.12,-2.0055,-1.8916,-1.7884,-1.7582,-1.7582,-1.7582,-1.7582,-1.7582,-1.7582,-1.7582,-1.7582,-1.7582,-1.7582,-1.7582,-1.7582,-1.7582,-1.7582,-1.7582,-1.7582,-1.7582,-1.7582,-1.7582,-1.7582,-1.7582,-1.7582,-1.7582,-1.7582,-1.7582,-1.7582,-1.7582,-1.7582,-1.7582,-1.7582,-1.7582,-1.749,-1.7173,-1.6842,-1.6577,-1.6271,-1.6057,-1.5885,-1.5873,-1.5873,-1.5741,-1.5499,-1.5487,-1.5197,-0.6075,0.0,0.0,0.0,0.0,0.0,0.0,0.0,0.0,0.0,0.0,0.0,0.0,0.0,0.0,0.0,0.0,0.0,0.0,0.0,0.0,0.0,0.0,0.0,0.0,0.0,0.0,0.0,-1.5471,-1.5605,-1.5771,-1.5784,-1.5784,-1.5784,-1.6763,-1.7777,-1.8796,-1.9786,-2.0754,-2.1687,-2.1776,-2.1776,-2.1687,-2.1776,-2.1849,-2.1851,-2.1851,-2.2144,-2.2657,-2.3242,-2.3553,-2.3749,-2.4091,-2.4202,-2.4202,-2.4202,-2.4202,-2.4202,-2.4202,-2.4202,-2.4053,-2.3238,-2.2215,-2.1132,-2.0004,-1.8916,-1.7989,-1.7687,-1.7582,-1.7582,-1.7582,-1.7582,-1.7582,-1.7582,-1.7582,-1.7582,-1.7582,-1.7582,-1.7582,-1.7582,-1.7582,-1.7582,-1.7582,-1.7582,-1.7582,-1.7582,-1.7582,-1.7582,-1.7582,-1.7582,-1.7582,-1.7582,-1.7582,-1.7582,-1.7582,-1.7582,-1.7582,-1.7582,-1.7437,-1.7173,-1.6842,-1.6577,-1.6258,-1.6004,-1.5939,-1.5801,-1.5608,-1.5608,-1.5572,-1.5487,-1.5113,-1.4751,-0.6438,0.0,0.0,0.0,0.0,0.0,0.0,0.0,0.0,0.0,0.0,0.0,0.0,0.0,0.0,0.0,0.0,0.0,0.0,0.0,0.0,0.0,0.0,0.0,0.0,0.0,0.0,-1.5003,-1.515,-1.5337,-1.5631,-1.5718,-1.5784,-1.5784,-1.6763,-1.7777,-1.8796,-1.9786,-2.0754,-2.1687,-2.1687,-2.1687,-2.1687,-2.1687,-2.1687,-2.1687,-2.1687,-2.1815,-2.2089,-2.273,-2.3187,-2.3517,-2.3804,-2.4055,-2.4202,-2.4202,-2.4202,-2.4202,-2.4202,-2.4202,-2.4003,-2.2887,-2.1759,-2.0672,-1.9539,-1.8461,-1.7582,-1.7582,-1.7582,-1.7582,-1.7582,-1.7582,-1.7582,-1.7582,-1.7582,-1.7582,-1.7582,-1.7582,-1.7582,-1.7582,-1.7582,-1.7582,-1.7582,-1.7582,-1.7582,-1.7582,-1.7582,-1.7582,-1.7582,-1.7582,-1.7582,-1.7582,-1.7582,-1.7582,-1.7582,-1.7582,-1.7582,-1.7582,-1.7331,-1.7067,-1.6736,-1.643,-1.6164,-1.5885,-1.5777,-1.5547,-1.5173,-1.539,-1.539,-1.5161,-1.4739,-1.4461,-0.688,-0.7115,0.0,0.0,0.0,0.0,-0.8377,-0.843,0.0,0.0,0.0,0.0,0.0,0.0,0.0,0.0,0.0,0.0,0.0,0.0,0.0,0.0,0.0,0.0,0.0,-1.4079,-1.4456,-1.4466,-1.483,-1.5169,-1.5378,-1.5671,-1.5784,-1.5784,-1.6669,-1.7684,-1.8796,-1.9712,-2.0664,-2.1687,-2.1687,-2.1687,-2.1687,-2.1687,-2.1687,-2.1687,-2.1687,-2.1687,-2.1723,-2.2071,-2.2657,-2.337,-2.3462,-2.3767,-2.4146,-2.4183,-2.4202,-2.4202,-2.4202,-2.4102,-2.3805,-2.2686,-2.1607,-2.0518,-1.9383,-1.8356,-1.7582,-1.7582,-1.7582,-1.7582,-1.7582,-1.7582,-1.7582,-1.7582,-1.7582,-1.7582,-1.7582,-1.7582,-1.7582,-1.7582,-1.7582,-1.7582,-1.7582,-1.7582,-1.7582,-1.7582,-1.7582,-1.7582,-1.7582,-1.7582,-1.7582,-1.7582,-1.7582,-1.7582,-1.7582,-1.7582,-1.7582,-1.7582,-1.7279,-1.7014,-1.6683,-1.6418,-1.6152,-1.5849,-1.5559,-1.5185,-1.4714,-1.5185,-1.5161,-1.4666,-1.4316,-1.41,-0.7672,-0.7575,0.0,0.0,0.0,0.0,0.0,-0.7508,0.0,0.0,0.0,0.0,0.0,0.0,0.0,0.0,0.0,0.0,0.0,0.0,0.0,0.0,0.0,0.0,0.0,-1.3706,-1.3973,-1.4439,-1.5017,-1.5337,-1.5391,-1.5671,-1.5784,-1.5784,-1.5974,-1.6936,-1.8796,-1.898,-1.9985,-2.1687,-2.1687,-2.1687,-2.1687,-2.1687,-2.1687,-2.1687,-2.1687,-2.1687,-2.1705,-2.1778,-2.2089,-2.2584,-2.3242,-2.3553,-2.3694,-2.4073,-2.4202,-2.4202,-2.4202,-2.3587,-2.2619,-2.1556,-2.0467,-1.9332,-1.8251,-1.7793,-1.7582,-1.7582,-1.7582,-1.7582,-1.7582,-1.7582,-1.7582,-1.7582,-1.7582,-1.7582,-1.7582,-1.7582,-1.7582,-1.7582,-1.7582,-1.7582,-1.7582,-1.7582,-1.7582,-1.7582,-1.7582,-1.7582,-1.7582,-1.7582,-1.7582,-1.7582,-1.7582,-1.7582,-1.7582,-1.7582,-1.7529,-1.7279,-1.6948,-1.6683,-1.6377,-1.6111,-1.5842,-1.5584,-1.5113,-1.4823,-1.4714,-1.4823,-1.4702,-1.4377,-1.3437,-1.3017,-0.827,-0.8136,0.0,-0.7776,0.0,0.0,0.0,0.0,0.0,0.0,0.0,0.0,0.0,0.0,0.0,0.0,0.0,0.0,0.0,0.0,0.0,0.0,0.0,0.0,0.0,-1.3427,-1.3786,-1.4269,-1.471,-1.503,-1.5177,-1.5458,-1.5685,-1.5784,-1.6749,-1.7777,-1.8796,-1.9758,-2.0727,-2.1687,-2.1687,-2.1687,-2.1687,-2.1687,-2.1687,-2.1687,-2.1687,-2.1687,-2.1687,-2.1687,-2.1815,-2.2071,-2.2876,-2.3316,-2.3553,-2.4055,-2.4202,-2.4102,-2.3538,-2.2987,-2.2215,-2.057,-1.9694,-1.902,-1.795,-1.7582,-1.7582,-1.7582,-1.7582,-1.7582,-1.7582,-1.7582,-1.7582,-1.7582,-1.7582,-1.7582,-1.7582,-1.7582,-1.7582,-1.7582,-1.7582,-1.7582,-1.7582,-1.7582,-1.7582,-1.7582,-1.7477,-1.7384,-1.7384,-1.7265,-1.7213,-1.7384,-1.7384,-1.7384,-1.7384,-1.7384,-1.7279,-1.6948,-1.6683,-1.643,-1.6324,-1.6045,-1.5704,-1.5318,-1.492,-1.4347,-1.3716,-1.3716,-1.3648,-1.3511,-1.2931,-1.2436,0.0,0.0,0.0,0.0,0.0,-0.8085,0.0,0.0,0.0,0.0,0.0,0.0,0.0,0.0,0.0,0.0,0.0,0.0,0.0,0.0,0.0,0.0,0.0,0.0,0.0,-1.3066,-1.352,-1.3975,-1.4162,-1.4469,-1.4981,-1.5244,-1.5524,-1.5771,-1.7544,-1.8611,-1.8796,-2.0529,-2.1508,-2.1687,-2.1687,-2.1687,-2.1687,-2.1687,-2.1687,-2.1687,-2.1687,-2.1687,-2.1687,-2.1687,-2.1687,-2.1778,-2.2584,-2.3096,-2.3444,-2.3772,-2.3886,-2.3687,-2.2568,-2.2064,-2.154,-1.9797,-1.9072,-1.8722,-1.7845,-1.7582,-1.7582,-1.7582,-1.7582,-1.7582,-1.7582,-1.7582,-1.7582,-1.7582,-1.7582,-1.7582,-1.7582,-1.7582,-1.7582,-1.7582,-1.7582,-1.7582,-1.7582,-1.7582,-1.7582,-1.7529,-1.7331,-1.7173,-1.712,-1.6842,-1.6842,-1.7173,-1.712,-1.712,-1.7173,-1.712,-1.6961,-1.663,-1.643,-1.6271,-1.6217,-1.5895,-1.5511,-1.504,-1.4564,-1.3777,-1.2678,-1.2484,-1.2387,-1.2387,-1.2193,-1.1658,0.0,0.0,0.0,0.0,-0.8738,0.0,0.0,0.0,0.0,0.0,0.0,0.0,0.0,0.0,0.0,0.0,0.0,0.0,0.0,0.0,0.0,0.0,0.0,0.0,0.0,0.0,-1.2799,-1.3586,-1.344,-1.3828,-1.4955,-1.5244,-1.5524,-1.5771,-1.6904,-1.7917,-1.8796,-1.9894,-2.0907,-2.1687,-2.1687,-2.1687,-2.1687,-2.1687,-2.1687,-2.1687,-2.1687,-2.1687,-2.1687,-2.1687,-2.1687,-2.1778,-2.2584,-2.2931,-2.2964,-2.2775,-2.2686,-2.2535,-2.1454,-2.0416,-1.9539,-1.928,-1.8565,-1.774,-1.7635,-1.7582,-1.7582,-1.7582,-1.7582,-1.7582,-1.7582,-1.7582,-1.7582,-1.7582,-1.7582,-1.7582,-1.7582,-1.7582,-1.7582,-1.7582,-1.7582,-1.7582,-1.7582,-1.7582,-1.7529,-1.7279,-1.7226,-1.7067,-1.6789,-1.6736,-1.6842,-1.7173,-1.6948,-1.6895,-1.7173,-1.6948,-1.663,-1.6377,-1.6324,-1.6164,-1.5951,-1.5451,-1.5065,-1.4763,-1.3547,-1.2856,-1.2678,-1.1804,-1.1365,-1.1365,-1.0386,-0.9903,0.0,0.0,0.0,0.0,0.0,0.0,-0.7548,0.0,-0.7228,0.0,0.0,0.0,0.0,0.0,0.0,0.0,0.0,0.0,0.0,0.0,0.0,0.0,0.0,0.0,0.0,0.0,0.0,0.0,0.0,-1.3427,-1.4402,-1.4941,-1.5284,-1.5565,-1.727,-1.8102,-1.7917,-2.0031,-2.1042,-2.0907,-2.1463,-2.1687,-2.1687,-2.1687,-2.1687,-2.1687,-2.1687,-2.1687,-2.1687,-2.1687,-2.1374,-2.096,-2.1525,-2.1831,-2.2,-2.2085,-2.1929,-2.1387,-2.0313,-1.9591,-1.9124,-1.8461,-1.7989,-1.7582,-1.7582,-1.7582,-1.7582,-1.7582,-1.7582,-1.7582,-1.7582,-1.7582,-1.7582,-1.7582,-1.7582,-1.7582,-1.7582,-1.7582,-1.7529,-1.7384,-1.7384,-1.7331,-1.7107,-1.7213,-1.7279,-1.6948,-1.6802,-1.6643,-1.6471,-1.6311,-1.6365,-1.6643,-1.6537,-1.6524,-1.6643,-1.6537,-1.6377,-1.6111,-1.5911,-1.5773,-1.5656,-1.4577,-1.3902,-1.3788,-1.2513,-1.1512,-1.0925,-1.0485,-0.9953,-0.9361,-0.9509,-0.9262,-1.0238,0.0,0.0,0.0,0.0,0.0,0.0,0.0,0.0,0.0,0.0,0.0,0.0,0.0,0.0,0.0,0.0,0.0,0.0,0.0,0.0,0.0,0.0,0.0,0.0,0.0,0.0,0.0,0.0,0.0,-1.3895,-1.4376,-1.4843,-1.5378,-1.7507,-1.8241,-1.7326,-2.0229,-2.1221,-2.0303,-2.1266,-2.1687,-2.1687,-2.1687,-2.1553,-2.1311,-2.1311,-2.1132,-2.0907,-2.0907,-2.0484,-1.9911,-2.0197,-2.0345,-2.0376,-2.0884,-2.0777,-2.0261,-1.9124,-1.876,-1.8617,-1.7845,-1.7582,-1.7582,-1.7582,-1.7582,-1.7582,-1.7582,-1.7582,-1.7582,-1.7582,-1.7582,-1.7582,-1.7582,-1.7529,-1.7477,-1.7477,-1.7424,-1.7318,-1.712,-1.7067,-1.6961,-1.663,-1.6842,-1.6961,-1.663,-1.643,-1.6271,-1.6217,-1.6004,-1.5992,-1.6271,-1.6217,-1.6217,-1.6271,-1.6217,-1.6074,-1.5789,-1.5608,-1.5271,-1.4859,-1.3719,-1.295,-1.2589,-1.1393,-1.0386,-0.9608,-0.9312,-0.8775,-0.8038,-0.8775,-0.8726,0.0,0.0,0.0,-0.9245,0.0,0.0,0.0,0.0,-0.7792,0.0,0.0,0.0,0.0,0.0,0.0,0.0,0.0,0.0,0.0,0.0,0.0,0.0,0.0,0.0,0.0,0.0,0.0,0.0,0.0,0.0,-1.3507,-1.364,-1.4173,-1.5364,-1.7296,-1.7993,-1.7326,-2.0229,-2.1221,-2.0303,-2.1266,-2.1687,-2.1687,-2.1687,-2.1177,-2.0348,-2.0348,-1.9803,-1.8888,-1.8888,-1.8888,-1.8842,-1.8858,-1.8473,-1.8008,-1.8675,-1.9052,-1.9124,-1.8042,-1.7635,-1.7635,-1.7635,-1.7582,-1.7582,-1.7582,-1.7582,-1.7582,-1.7582,-1.7582,-1.7582,-1.7582,-1.7582,-1.7582,-1.7582,-1.7384,-1.7226,-1.7226,-1.6948,-1.6736,-1.6736,-1.6736,-1.663,-1.6377,-1.6524,-1.663,-1.6377,-1.6324,-1.6217,-1.5951,-1.5885,-1.5992,-1.6271,-1.6057,-1.6004,-1.6271,-1.6057,-1.5789,-1.5523,-1.5499,-1.4796,-1.3225,-1.3132,-1.2529,-1.1287,-1.0199,-0.9657,-0.9608,-0.8577,-0.8038,-0.7988,-0.8038,-0.8038,0.0,0.0,-1.1953,-1.0385,0.0,0.0,0.0,0.0,0.0,0.0,0.0,0.0,0.0,0.0,0.0,0.0,0.0,0.0,0.0,0.0,0.0,0.0,0.0,0.0,0.0,0.0,0.0,0.0,0.0,0.0,0.0,-1.3507,-1.4202,-1.4803,-1.6474,-1.702,-1.6292,-1.9285,-2.0303,-1.933,-2.0952,-2.1687,-2.1687,-2.1687,-2.1177,-2.0303,-2.0303,-1.9758,-1.8796,-1.8796,-1.8427,-1.7824,-1.7824,-1.7374,-1.6947,-1.7995,-1.8203,-1.7833,-1.7673,-1.7582,-1.7582,-1.7582,-1.7582,-1.7582,-1.7582,-1.7582,-1.7582,-1.7582,-1.7582,-1.7582,-1.7582,-1.7582,-1.7582,-1.7384,-1.7279,-1.712,-1.6895,-1.6789,-1.663,-1.6483,-1.643,-1.6377,-1.6111,-1.6099,-1.6152,-1.6057,-1.6057,-1.5992,-1.5885,-1.5885,-1.5939,-1.6057,-1.5951,-1.5939,-1.6057,-1.5781,-1.5596,-1.5511,-1.4486,-1.3657,-1.3132,-1.1588,-1.0605,-1.0149,-0.9072,-0.8528,-0.8528,-0.8187,-0.7988,-0.7988,-0.7988,-0.7988,-1.2492,-1.2636,0.0,-1.1216,-1.0827,0.0,-0.8991,0.0,0.0,0.0,0.0,0.0,0.0,0.0,0.0,0.0,0.0,0.0,0.0,0.0,0.0,0.0,0.0,0.0,0.0,0.0,-0.8991,-0.99,0.0,0.0,0.0,0.0,-1.3774,-1.4496,-1.5946,-1.6415,-1.5818,-1.8457,-1.9422,-1.8842,-2.0076,-2.1042,-2.1687,-2.1374,-2.0682,-1.9758,-1.9758,-1.8964,-1.7731,-1.7731,-1.7358,-1.6763,-1.6763,-1.651,-1.6263,-1.7295,-1.7512,-1.738,-1.7515,-1.7582,-1.7582,-1.7582,-1.7582,-1.7582,-1.7582,-1.7582,-1.7582,-1.7582,-1.7582,-1.7582,-1.7582,-1.7529,-1.7437,-1.7226,-1.7014,-1.6802,-1.6577,-1.6471,-1.6365,-1.6217,-1.6164,-1.6111,-1.5939,-1.5885,-1.5885,-1.5885,-1.5885,-1.5885,-1.5885,-1.5885,-1.5885,-1.5885,-1.5885,-1.5849,-1.5765,-1.5596,-1.5259,-1.4698,-1.3657,-1.2741,-1.1915,-1.0407,-0.941,-0.9023,-0.8336,-0.7988,-0.7988,-0.7988,-0.7988,-0.7988,-0.7988,-0.7988]}]]